<?xml version='1.0' encoding='UTF-8'?>
<gpx version="1.1" creator="https://www.komoot.de" xmlns="http://www.topografix.com/GPX/1/1" xmlns:xsi="http://www.w3.org/2001/XMLSchema-instance" xsi:schemaLocation="http://www.topografix.com/GPX/1/1 http://www.topografix.com/GPX/1/1/gpx.xsd">
  <metadata>
    <name>27 GWR ANELLO VAL SABBIA VAL TROMPIA</name>
    <author>
      <link href="https://www.komoot.de">
        <text>komoot</text>
        <type>text/html</type>
      </link>
    </author>
  </metadata>
  <trk>
    <name>27 GWR ANELLO VAL SABBIA VAL TROMPIA</name>
    <trkseg>
      <trkpt lat="45.580136" lon="10.229266">
        <ele>179.635565</ele>
        <time>2021-01-22T12:55:40.493Z</time>
      </trkpt>
      <trkpt lat="45.580136" lon="10.229266">
        <ele>179.635565</ele>
        <time>2021-01-22T12:55:40.523Z</time>
      </trkpt>
      <trkpt lat="45.580081" lon="10.229443">
        <ele>179.635565</ele>
        <time>2021-01-22T12:55:42.423Z</time>
      </trkpt>
      <trkpt lat="45.580061" lon="10.229475">
        <ele>179.635565</ele>
        <time>2021-01-22T12:55:42.859Z</time>
      </trkpt>
      <trkpt lat="45.580044" lon="10.229527">
        <ele>179.635565</ele>
        <time>2021-01-22T12:55:43.454Z</time>
      </trkpt>
      <trkpt lat="45.580050" lon="10.229643">
        <ele>179.635565</ele>
        <time>2021-01-22T12:55:44.558Z</time>
      </trkpt>
      <trkpt lat="45.580079" lon="10.229699">
        <ele>179.635565</ele>
        <time>2021-01-22T12:55:45.240Z</time>
      </trkpt>
      <trkpt lat="45.580107" lon="10.229727">
        <ele>179.635565</ele>
        <time>2021-01-22T12:55:45.703Z</time>
      </trkpt>
      <trkpt lat="45.580125" lon="10.229920">
        <ele>179.635565</ele>
        <time>2021-01-22T12:55:47.669Z</time>
      </trkpt>
      <trkpt lat="45.580101" lon="10.230104">
        <ele>179.635565</ele>
        <time>2021-01-22T12:55:49.547Z</time>
      </trkpt>
      <trkpt lat="45.580105" lon="10.230192">
        <ele>179.635565</ele>
        <time>2021-01-22T12:55:50.433Z</time>
      </trkpt>
      <trkpt lat="45.579989" lon="10.230575">
        <ele>179.622638</ele>
        <time>2021-01-22T12:55:54.750Z</time>
      </trkpt>
      <trkpt lat="45.579797" lon="10.231167">
        <ele>179.558366</ele>
        <time>2021-01-22T12:56:01.521Z</time>
      </trkpt>
      <trkpt lat="45.579638" lon="10.231693">
        <ele>179.501926</ele>
        <time>2021-01-22T12:56:07.297Z</time>
      </trkpt>
      <trkpt lat="45.579323" lon="10.232879">
        <ele>179.378214</ele>
        <time>2021-01-22T12:56:19.571Z</time>
      </trkpt>
      <trkpt lat="45.579216" lon="10.233285">
        <ele>179.345230</ele>
        <time>2021-01-22T12:56:23.922Z</time>
      </trkpt>
      <trkpt lat="45.579059" lon="10.233990">
        <ele>179.288982</ele>
        <time>2021-01-22T12:56:31.718Z</time>
      </trkpt>
      <trkpt lat="45.579016" lon="10.234191">
        <ele>179.273003</ele>
        <time>2021-01-22T12:56:33.910Z</time>
      </trkpt>
      <trkpt lat="45.578991" lon="10.234316">
        <ele>179.263119</ele>
        <time>2021-01-22T12:56:35.270Z</time>
      </trkpt>
      <trkpt lat="45.578964" lon="10.234448">
        <ele>179.252663</ele>
        <time>2021-01-22T12:56:36.641Z</time>
      </trkpt>
      <trkpt lat="45.578947" lon="10.234534">
        <ele>179.245869</ele>
        <time>2021-01-22T12:56:37.581Z</time>
      </trkpt>
      <trkpt lat="45.578796" lon="10.235188">
        <ele>179.193510</ele>
        <time>2021-01-22T12:56:44.299Z</time>
      </trkpt>
      <trkpt lat="45.578999" lon="10.235406">
        <ele>179.222071</ele>
        <time>2021-01-22T12:56:47.932Z</time>
      </trkpt>
      <trkpt lat="45.579997" lon="10.236448">
        <ele>179.444698</ele>
        <time>2021-01-22T12:57:06.257Z</time>
      </trkpt>
      <trkpt lat="45.582526" lon="10.238864">
        <ele>182.454471</ele>
        <time>2021-01-22T12:58:02.567Z</time>
      </trkpt>
      <trkpt lat="45.582567" lon="10.238908">
        <ele>182.534112</ele>
        <time>2021-01-22T12:58:04.100Z</time>
      </trkpt>
      <trkpt lat="45.582860" lon="10.239218">
        <ele>183.100372</ele>
        <time>2021-01-22T12:58:12.384Z</time>
      </trkpt>
      <trkpt lat="45.582927" lon="10.239295">
        <ele>183.233919</ele>
        <time>2021-01-22T12:58:14.176Z</time>
      </trkpt>
      <trkpt lat="45.582950" lon="10.239322">
        <ele>183.280152</ele>
        <time>2021-01-22T12:58:14.836Z</time>
      </trkpt>
      <trkpt lat="45.582970" lon="10.239345">
        <ele>183.320027</ele>
        <time>2021-01-22T12:58:15.398Z</time>
      </trkpt>
      <trkpt lat="45.583629" lon="10.240141">
        <ele>184.612743</ele>
        <time>2021-01-22T12:58:36.064Z</time>
      </trkpt>
      <trkpt lat="45.584203" lon="10.240864">
        <ele>185.728009</ele>
        <time>2021-01-22T12:58:52.050Z</time>
      </trkpt>
      <trkpt lat="45.584349" lon="10.241078">
        <ele>186.032858</ele>
        <time>2021-01-22T12:58:56.502Z</time>
      </trkpt>
      <trkpt lat="45.584398" lon="10.241144">
        <ele>186.131005</ele>
        <time>2021-01-22T12:58:57.684Z</time>
      </trkpt>
      <trkpt lat="45.584412" lon="10.241188">
        <ele>186.180308</ele>
        <time>2021-01-22T12:58:58.277Z</time>
      </trkpt>
      <trkpt lat="45.584450" lon="10.241264">
        <ele>186.275583</ele>
        <time>2021-01-22T12:58:59.145Z</time>
      </trkpt>
      <trkpt lat="45.584506" lon="10.241387">
        <ele>186.425261</ele>
        <time>2021-01-22T12:59:01.133Z</time>
      </trkpt>
      <trkpt lat="45.584619" lon="10.241726">
        <ele>186.546758</ele>
        <time>2021-01-22T12:59:05.272Z</time>
      </trkpt>
      <trkpt lat="45.584675" lon="10.241961">
        <ele>186.578100</ele>
        <time>2021-01-22T12:59:08.319Z</time>
      </trkpt>
      <trkpt lat="45.584719" lon="10.242168">
        <ele>186.605413</ele>
        <time>2021-01-22T12:59:10.333Z</time>
      </trkpt>
      <trkpt lat="45.584885" lon="10.242994">
        <ele>186.713913</ele>
        <time>2021-01-22T12:59:18.968Z</time>
      </trkpt>
      <trkpt lat="45.584929" lon="10.243327">
        <ele>186.756698</ele>
        <time>2021-01-22T12:59:22.016Z</time>
      </trkpt>
      <trkpt lat="45.584990" lon="10.244202">
        <ele>187.012706</ele>
        <time>2021-01-22T12:59:32.461Z</time>
      </trkpt>
      <trkpt lat="45.584951" lon="10.244581">
        <ele>187.270867</ele>
        <time>2021-01-22T12:59:37.237Z</time>
      </trkpt>
      <trkpt lat="45.584917" lon="10.245125">
        <ele>187.638937</ele>
        <time>2021-01-22T12:59:44.501Z</time>
      </trkpt>
      <trkpt lat="45.584883" lon="10.245647">
        <ele>187.992243</ele>
        <time>2021-01-22T12:59:51.504Z</time>
      </trkpt>
      <trkpt lat="45.584806" lon="10.246093">
        <ele>188.301821</ele>
        <time>2021-01-22T12:59:57.635Z</time>
      </trkpt>
      <trkpt lat="45.584756" lon="10.246185">
        <ele>188.380321</ele>
        <time>2021-01-22T12:59:59.641Z</time>
      </trkpt>
      <trkpt lat="45.584716" lon="10.246230">
        <ele>188.429345</ele>
        <time>2021-01-22T13:00:00.673Z</time>
      </trkpt>
      <trkpt lat="45.584685" lon="10.246293">
        <ele>188.481246</ele>
        <time>2021-01-22T13:00:01.610Z</time>
      </trkpt>
      <trkpt lat="45.584669" lon="10.246367">
        <ele>188.533442</ele>
        <time>2021-01-22T13:00:02.601Z</time>
      </trkpt>
      <trkpt lat="45.584668" lon="10.246443">
        <ele>188.585229</ele>
        <time>2021-01-22T13:00:03.551Z</time>
      </trkpt>
      <trkpt lat="45.584679" lon="10.246502">
        <ele>188.627631</ele>
        <time>2021-01-22T13:00:04.297Z</time>
      </trkpt>
      <trkpt lat="45.584699" lon="10.246556">
        <ele>188.670059</ele>
        <time>2021-01-22T13:00:05.154Z</time>
      </trkpt>
      <trkpt lat="45.584727" lon="10.246601">
        <ele>188.711875</ele>
        <time>2021-01-22T13:00:06.233Z</time>
      </trkpt>
      <trkpt lat="45.584735" lon="10.246754">
        <ele>188.818423</ele>
        <time>2021-01-22T13:00:08.396Z</time>
      </trkpt>
      <trkpt lat="45.584769" lon="10.247158">
        <ele>189.101005</ele>
        <time>2021-01-22T13:00:14.130Z</time>
      </trkpt>
      <trkpt lat="45.584736" lon="10.247601">
        <ele>189.410387</ele>
        <time>2021-01-22T13:00:20.193Z</time>
      </trkpt>
      <trkpt lat="45.584607" lon="10.249365">
        <ele>190.696282</ele>
        <time>2021-01-22T13:00:42.142Z</time>
      </trkpt>
      <trkpt lat="45.584595" lon="10.249444">
        <ele>190.762878</ele>
        <time>2021-01-22T13:00:43.261Z</time>
      </trkpt>
      <trkpt lat="45.584590" lon="10.249534">
        <ele>190.837253</ele>
        <time>2021-01-22T13:00:44.509Z</time>
      </trkpt>
      <trkpt lat="45.584565" lon="10.249953">
        <ele>191.183678</ele>
        <time>2021-01-22T13:00:50.575Z</time>
      </trkpt>
      <trkpt lat="45.584559" lon="10.250090">
        <ele>191.296760</ele>
        <time>2021-01-22T13:00:52.620Z</time>
      </trkpt>
      <trkpt lat="45.584467" lon="10.252166">
        <ele>192.881574</ele>
        <time>2021-01-22T13:01:21.691Z</time>
      </trkpt>
      <trkpt lat="45.584465" lon="10.252211">
        <ele>192.909893</ele>
        <time>2021-01-22T13:01:22.251Z</time>
      </trkpt>
      <trkpt lat="45.584457" lon="10.252366">
        <ele>193.007505</ele>
        <time>2021-01-22T13:01:24.392Z</time>
      </trkpt>
      <trkpt lat="45.584371" lon="10.253806">
        <ele>193.915188</ele>
        <time>2021-01-22T13:01:42.618Z</time>
      </trkpt>
      <trkpt lat="45.584339" lon="10.254469">
        <ele>194.293010</ele>
        <time>2021-01-22T13:01:50.636Z</time>
      </trkpt>
      <trkpt lat="45.584316" lon="10.255033">
        <ele>194.591727</ele>
        <time>2021-01-22T13:01:57.251Z</time>
      </trkpt>
      <trkpt lat="45.584315" lon="10.255059">
        <ele>194.605495</ele>
        <time>2021-01-22T13:01:57.526Z</time>
      </trkpt>
      <trkpt lat="45.584313" lon="10.255104">
        <ele>194.629337</ele>
        <time>2021-01-22T13:01:58.010Z</time>
      </trkpt>
      <trkpt lat="45.584307" lon="10.255608">
        <ele>194.895863</ele>
        <time>2021-01-22T13:02:04.210Z</time>
      </trkpt>
      <trkpt lat="45.584297" lon="10.256028">
        <ele>195.118064</ele>
        <time>2021-01-22T13:02:09.705Z</time>
      </trkpt>
      <trkpt lat="45.584216" lon="10.257982">
        <ele>196.346114</ele>
        <time>2021-01-22T13:02:35.798Z</time>
      </trkpt>
      <trkpt lat="45.584145" lon="10.259318">
        <ele>197.257763</ele>
        <time>2021-01-22T13:02:52.793Z</time>
      </trkpt>
      <trkpt lat="45.584100" lon="10.259645">
        <ele>197.513507</ele>
        <time>2021-01-22T13:02:57.306Z</time>
      </trkpt>
      <trkpt lat="45.584034" lon="10.259894">
        <ele>197.717834</ele>
        <time>2021-01-22T13:03:00.734Z</time>
      </trkpt>
      <trkpt lat="45.583994" lon="10.260024">
        <ele>197.826812</ele>
        <time>2021-01-22T13:03:02.746Z</time>
      </trkpt>
      <trkpt lat="45.583969" lon="10.260051">
        <ele>197.861174</ele>
        <time>2021-01-22T13:03:03.321Z</time>
      </trkpt>
      <trkpt lat="45.583949" lon="10.260087">
        <ele>197.896446</ele>
        <time>2021-01-22T13:03:03.894Z</time>
      </trkpt>
      <trkpt lat="45.583932" lon="10.260140">
        <ele>197.941186</ele>
        <time>2021-01-22T13:03:04.632Z</time>
      </trkpt>
      <trkpt lat="45.583928" lon="10.260197">
        <ele>197.985148</ele>
        <time>2021-01-22T13:03:05.369Z</time>
      </trkpt>
      <trkpt lat="45.583935" lon="10.260254">
        <ele>198.029558</ele>
        <time>2021-01-22T13:03:06.088Z</time>
      </trkpt>
      <trkpt lat="45.583953" lon="10.260305">
        <ele>198.073390</ele>
        <time>2021-01-22T13:03:06.822Z</time>
      </trkpt>
      <trkpt lat="45.583960" lon="10.260415">
        <ele>198.158152</ele>
        <time>2021-01-22T13:03:08.442Z</time>
      </trkpt>
      <trkpt lat="45.584015" lon="10.260873">
        <ele>198.514758</ele>
        <time>2021-01-22T13:03:14.469Z</time>
      </trkpt>
      <trkpt lat="45.584051" lon="10.261180">
        <ele>198.753633</ele>
        <time>2021-01-22T13:03:18.789Z</time>
      </trkpt>
      <trkpt lat="45.584033" lon="10.261578">
        <ele>199.059695</ele>
        <time>2021-01-22T13:03:24.470Z</time>
      </trkpt>
      <trkpt lat="45.583969" lon="10.262898">
        <ele>200.364309</ele>
        <time>2021-01-22T13:03:43.222Z</time>
      </trkpt>
      <trkpt lat="45.583943" lon="10.263358">
        <ele>200.828106</ele>
        <time>2021-01-22T13:03:49.999Z</time>
      </trkpt>
      <trkpt lat="45.583936" lon="10.263485">
        <ele>200.956133</ele>
        <time>2021-01-22T13:03:51.855Z</time>
      </trkpt>
      <trkpt lat="45.583928" lon="10.263639">
        <ele>201.111326</ele>
        <time>2021-01-22T13:03:54.164Z</time>
      </trkpt>
      <trkpt lat="45.583924" lon="10.263728">
        <ele>201.200954</ele>
        <time>2021-01-22T13:03:55.466Z</time>
      </trkpt>
      <trkpt lat="45.583918" lon="10.263872">
        <ele>201.345927</ele>
        <time>2021-01-22T13:03:57.399Z</time>
      </trkpt>
      <trkpt lat="45.583806" lon="10.266023">
        <ele>203.637772</ele>
        <time>2021-01-22T13:04:29.544Z</time>
      </trkpt>
      <trkpt lat="45.583753" lon="10.267035">
        <ele>204.726449</ele>
        <time>2021-01-22T13:04:44.313Z</time>
      </trkpt>
      <trkpt lat="45.583703" lon="10.267296">
        <ele>205.014924</ele>
        <time>2021-01-22T13:04:48.052Z</time>
      </trkpt>
      <trkpt lat="45.583651" lon="10.267433">
        <ele>205.181070</ele>
        <time>2021-01-22T13:04:50.293Z</time>
      </trkpt>
      <trkpt lat="45.583623" lon="10.267470">
        <ele>205.239164</ele>
        <time>2021-01-22T13:04:51.265Z</time>
      </trkpt>
      <trkpt lat="45.583602" lon="10.267516">
        <ele>205.297713</ele>
        <time>2021-01-22T13:04:52.106Z</time>
      </trkpt>
      <trkpt lat="45.583588" lon="10.267598">
        <ele>205.387693</ele>
        <time>2021-01-22T13:04:53.265Z</time>
      </trkpt>
      <trkpt lat="45.583599" lon="10.267682">
        <ele>205.478796</ele>
        <time>2021-01-22T13:04:54.456Z</time>
      </trkpt>
      <trkpt lat="45.583624" lon="10.267740">
        <ele>205.551413</ele>
        <time>2021-01-22T13:04:55.418Z</time>
      </trkpt>
      <trkpt lat="45.583640" lon="10.267844">
        <ele>205.664930</ele>
        <time>2021-01-22T13:04:57.065Z</time>
      </trkpt>
      <trkpt lat="45.583654" lon="10.268057">
        <ele>205.892999</ele>
        <time>2021-01-22T13:05:00.268Z</time>
      </trkpt>
      <trkpt lat="45.583675" lon="10.268373">
        <ele>206.231388</ele>
        <time>2021-01-22T13:05:04.898Z</time>
      </trkpt>
      <trkpt lat="45.583671" lon="10.268799">
        <ele>206.685568</ele>
        <time>2021-01-22T13:05:11.137Z</time>
      </trkpt>
      <trkpt lat="45.583647" lon="10.269455">
        <ele>207.401548</ele>
        <time>2021-01-22T13:05:20.599Z</time>
      </trkpt>
      <trkpt lat="45.583648" lon="10.269508">
        <ele>207.463596</ele>
        <time>2021-01-22T13:05:21.675Z</time>
      </trkpt>
      <trkpt lat="45.583815" lon="10.272324">
        <ele>210.813831</ele>
        <time>2021-01-22T13:06:04.515Z</time>
      </trkpt>
      <trkpt lat="45.583839" lon="10.272686">
        <ele>211.273297</ele>
        <time>2021-01-22T13:06:09.903Z</time>
      </trkpt>
      <trkpt lat="45.583854" lon="10.272930">
        <ele>211.582799</ele>
        <time>2021-01-22T13:06:13.483Z</time>
      </trkpt>
      <trkpt lat="45.583829" lon="10.273100">
        <ele>211.802300</ele>
        <time>2021-01-22T13:06:16.015Z</time>
      </trkpt>
      <trkpt lat="45.583785" lon="10.273259">
        <ele>212.018346</ele>
        <time>2021-01-22T13:06:18.716Z</time>
      </trkpt>
      <trkpt lat="45.583742" lon="10.273375">
        <ele>212.184212</ele>
        <time>2021-01-22T13:06:20.848Z</time>
      </trkpt>
      <trkpt lat="45.583715" lon="10.273396">
        <ele>212.239714</ele>
        <time>2021-01-22T13:06:21.529Z</time>
      </trkpt>
      <trkpt lat="45.583676" lon="10.273462">
        <ele>212.348862</ele>
        <time>2021-01-22T13:06:22.862Z</time>
      </trkpt>
      <trkpt lat="45.583666" lon="10.273504">
        <ele>212.404919</ele>
        <time>2021-01-22T13:06:23.579Z</time>
      </trkpt>
      <trkpt lat="45.583663" lon="10.273548">
        <ele>212.460780</ele>
        <time>2021-01-22T13:06:24.318Z</time>
      </trkpt>
      <trkpt lat="45.583680" lon="10.273634">
        <ele>212.573701</ele>
        <time>2021-01-22T13:06:25.673Z</time>
      </trkpt>
      <trkpt lat="45.583699" lon="10.273670">
        <ele>212.630675</ele>
        <time>2021-01-22T13:06:26.456Z</time>
      </trkpt>
      <trkpt lat="45.583724" lon="10.273698">
        <ele>212.688025</ele>
        <time>2021-01-22T13:06:27.229Z</time>
      </trkpt>
      <trkpt lat="45.583754" lon="10.273716">
        <ele>212.746771</ele>
        <time>2021-01-22T13:06:27.978Z</time>
      </trkpt>
      <trkpt lat="45.583802" lon="10.273775">
        <ele>212.861088</ele>
        <time>2021-01-22T13:06:29.462Z</time>
      </trkpt>
      <trkpt lat="45.583843" lon="10.273846">
        <ele>212.977399</ele>
        <time>2021-01-22T13:06:30.895Z</time>
      </trkpt>
      <trkpt lat="45.583915" lon="10.274029">
        <ele>213.242670</ele>
        <time>2021-01-22T13:06:34.290Z</time>
      </trkpt>
      <trkpt lat="45.583919" lon="10.274075">
        <ele>213.301242</ele>
        <time>2021-01-22T13:06:35.111Z</time>
      </trkpt>
      <trkpt lat="45.583939" lon="10.274331">
        <ele>213.619358</ele>
        <time>2021-01-22T13:06:39.294Z</time>
      </trkpt>
      <trkpt lat="45.583972" lon="10.274733">
        <ele>214.105042</ele>
        <time>2021-01-22T13:06:45.728Z</time>
      </trkpt>
      <trkpt lat="45.583999" lon="10.275015">
        <ele>214.446578</ele>
        <time>2021-01-22T13:06:49.670Z</time>
      </trkpt>
      <trkpt lat="45.584013" lon="10.275126">
        <ele>214.581917</ele>
        <time>2021-01-22T13:06:51.508Z</time>
      </trkpt>
      <trkpt lat="45.584048" lon="10.275414">
        <ele>214.932671</ele>
        <time>2021-01-22T13:06:55.806Z</time>
      </trkpt>
      <trkpt lat="45.584178" lon="10.276279">
        <ele>215.994281</ele>
        <time>2021-01-22T13:07:09.187Z</time>
      </trkpt>
      <trkpt lat="45.584200" lon="10.276425">
        <ele>216.173487</ele>
        <time>2021-01-22T13:07:11.373Z</time>
      </trkpt>
      <trkpt lat="45.584302" lon="10.277101">
        <ele>216.953294</ele>
        <time>2021-01-22T13:07:21.823Z</time>
      </trkpt>
      <trkpt lat="45.584354" lon="10.277443">
        <ele>217.325431</ele>
        <time>2021-01-22T13:07:27.352Z</time>
      </trkpt>
      <trkpt lat="45.584358" lon="10.277518">
        <ele>217.405411</ele>
        <time>2021-01-22T13:07:28.357Z</time>
      </trkpt>
      <trkpt lat="45.584368" lon="10.277777">
        <ele>217.681228</ele>
        <time>2021-01-22T13:07:31.845Z</time>
      </trkpt>
      <trkpt lat="45.584458" lon="10.278374">
        <ele>218.330586</ele>
        <time>2021-01-22T13:07:40.658Z</time>
      </trkpt>
      <trkpt lat="45.584492" lon="10.278604">
        <ele>218.580544</ele>
        <time>2021-01-22T13:07:43.938Z</time>
      </trkpt>
      <trkpt lat="45.584597" lon="10.279298">
        <ele>219.333666</ele>
        <time>2021-01-22T13:07:54.196Z</time>
      </trkpt>
      <trkpt lat="45.584618" lon="10.279439">
        <ele>219.479548</ele>
        <time>2021-01-22T13:07:56.524Z</time>
      </trkpt>
      <trkpt lat="45.584716" lon="10.279983">
        <ele>220.048000</ele>
        <time>2021-01-22T13:08:04.934Z</time>
      </trkpt>
      <trkpt lat="45.584750" lon="10.280243">
        <ele>220.315664</ele>
        <time>2021-01-22T13:08:08.677Z</time>
      </trkpt>
      <trkpt lat="45.584729" lon="10.280279">
        <ele>220.363090</ele>
        <time>2021-01-22T13:08:09.303Z</time>
      </trkpt>
      <trkpt lat="45.584718" lon="10.280325">
        <ele>220.412282</ele>
        <time>2021-01-22T13:08:10.042Z</time>
      </trkpt>
      <trkpt lat="45.584720" lon="10.280373">
        <ele>220.460942</ele>
        <time>2021-01-22T13:08:10.817Z</time>
      </trkpt>
      <trkpt lat="45.584735" lon="10.280416">
        <ele>220.509563</ele>
        <time>2021-01-22T13:08:11.537Z</time>
      </trkpt>
      <trkpt lat="45.584759" lon="10.280448">
        <ele>220.557028</ele>
        <time>2021-01-22T13:08:12.217Z</time>
      </trkpt>
      <trkpt lat="45.584790" lon="10.280466">
        <ele>220.605412</ele>
        <time>2021-01-22T13:08:12.891Z</time>
      </trkpt>
      <trkpt lat="45.584837" lon="10.280575">
        <ele>220.734971</ele>
        <time>2021-01-22T13:08:14.640Z</time>
      </trkpt>
      <trkpt lat="45.585022" lon="10.281920">
        <ele>222.106017</ele>
        <time>2021-01-22T13:08:34.181Z</time>
      </trkpt>
      <trkpt lat="45.585027" lon="10.281960">
        <ele>222.144190</ele>
        <time>2021-01-22T13:08:34.781Z</time>
      </trkpt>
      <trkpt lat="45.585110" lon="10.282573">
        <ele>222.730755</ele>
        <time>2021-01-22T13:08:43.765Z</time>
      </trkpt>
      <trkpt lat="45.585202" lon="10.283246">
        <ele>223.374956</ele>
        <time>2021-01-22T13:08:53.016Z</time>
      </trkpt>
      <trkpt lat="45.585211" lon="10.283306">
        <ele>223.432603</ele>
        <time>2021-01-22T13:08:53.825Z</time>
      </trkpt>
      <trkpt lat="45.585239" lon="10.283500">
        <ele>223.618692</ele>
        <time>2021-01-22T13:08:56.406Z</time>
      </trkpt>
      <trkpt lat="45.585284" lon="10.283806">
        <ele>223.912443</ele>
        <time>2021-01-22T13:09:00.758Z</time>
      </trkpt>
      <trkpt lat="45.585421" lon="10.284743">
        <ele>225.044671</ele>
        <time>2021-01-22T13:09:15.133Z</time>
      </trkpt>
      <trkpt lat="45.585557" lon="10.285550">
        <ele>226.188132</ele>
        <time>2021-01-22T13:09:29.256Z</time>
      </trkpt>
      <trkpt lat="45.585599" lon="10.285818">
        <ele>226.566459</ele>
        <time>2021-01-22T13:09:34.067Z</time>
      </trkpt>
      <trkpt lat="45.585651" lon="10.286189">
        <ele>227.087678</ele>
        <time>2021-01-22T13:09:40.345Z</time>
      </trkpt>
      <trkpt lat="45.585655" lon="10.286217">
        <ele>227.127044</ele>
        <time>2021-01-22T13:09:40.819Z</time>
      </trkpt>
      <trkpt lat="45.585721" lon="10.286680">
        <ele>227.777945</ele>
        <time>2021-01-22T13:09:48.286Z</time>
      </trkpt>
      <trkpt lat="45.585730" lon="10.286740">
        <ele>227.857430</ele>
        <time>2021-01-22T13:09:49.221Z</time>
      </trkpt>
      <trkpt lat="45.585797" lon="10.287193">
        <ele>228.170663</ele>
        <time>2021-01-22T13:09:55.836Z</time>
      </trkpt>
      <trkpt lat="45.585830" lon="10.287421">
        <ele>228.328173</ele>
        <time>2021-01-22T13:09:58.957Z</time>
      </trkpt>
      <trkpt lat="45.585838" lon="10.287477">
        <ele>228.366840</ele>
        <time>2021-01-22T13:09:59.707Z</time>
      </trkpt>
      <trkpt lat="45.585987" lon="10.288517">
        <ele>229.085010</ele>
        <time>2021-01-22T13:10:13.468Z</time>
      </trkpt>
      <trkpt lat="45.586000" lon="10.288611">
        <ele>229.149833</ele>
        <time>2021-01-22T13:10:14.645Z</time>
      </trkpt>
      <trkpt lat="45.586104" lon="10.289437">
        <ele>229.746883</ele>
        <time>2021-01-22T13:10:23.957Z</time>
      </trkpt>
      <trkpt lat="45.586111" lon="10.289488">
        <ele>229.790190</ele>
        <time>2021-01-22T13:10:24.495Z</time>
      </trkpt>
      <trkpt lat="45.586271" lon="10.290626">
        <ele>230.757412</ele>
        <time>2021-01-22T13:10:38.877Z</time>
      </trkpt>
      <trkpt lat="45.586358" lon="10.291195">
        <ele>231.242732</ele>
        <time>2021-01-22T13:10:47.300Z</time>
      </trkpt>
      <trkpt lat="45.586380" lon="10.291339">
        <ele>231.365550</ele>
        <time>2021-01-22T13:10:49.662Z</time>
      </trkpt>
      <trkpt lat="45.586606" lon="10.292843">
        <ele>233.297552</ele>
        <time>2021-01-22T13:11:15.355Z</time>
      </trkpt>
      <trkpt lat="45.586639" lon="10.293051">
        <ele>233.601629</ele>
        <time>2021-01-22T13:11:19.040Z</time>
      </trkpt>
      <trkpt lat="45.586806" lon="10.294107">
        <ele>235.145155</ele>
        <time>2021-01-22T13:11:36.555Z</time>
      </trkpt>
      <trkpt lat="45.586968" lon="10.295151">
        <ele>236.219981</ele>
        <time>2021-01-22T13:11:52.408Z</time>
      </trkpt>
      <trkpt lat="45.587020" lon="10.295490">
        <ele>236.539897</ele>
        <time>2021-01-22T13:11:56.877Z</time>
      </trkpt>
      <trkpt lat="45.587069" lon="10.295684">
        <ele>236.730022</ele>
        <time>2021-01-22T13:11:59.967Z</time>
      </trkpt>
      <trkpt lat="45.587174" lon="10.296223">
        <ele>237.245774</ele>
        <time>2021-01-22T13:12:07.352Z</time>
      </trkpt>
      <trkpt lat="45.587364" lon="10.297170">
        <ele>238.243256</ele>
        <time>2021-01-22T13:12:20.358Z</time>
      </trkpt>
      <trkpt lat="45.587813" lon="10.299387">
        <ele>240.928676</ele>
        <time>2021-01-22T13:12:55.053Z</time>
      </trkpt>
      <trkpt lat="45.587843" lon="10.299542">
        <ele>241.179573</ele>
        <time>2021-01-22T13:12:58.453Z</time>
      </trkpt>
      <trkpt lat="45.587938" lon="10.300016">
        <ele>241.948798</ele>
        <time>2021-01-22T13:13:06.717Z</time>
      </trkpt>
      <trkpt lat="45.588082" lon="10.300476">
        <ele>242.734980</ele>
        <time>2021-01-22T13:13:15.220Z</time>
      </trkpt>
      <trkpt lat="45.588499" lon="10.301257">
        <ele>244.267565</ele>
        <time>2021-01-22T13:13:31.559Z</time>
      </trkpt>
      <trkpt lat="45.588517" lon="10.301319">
        <ele>244.372285</ele>
        <time>2021-01-22T13:13:33.515Z</time>
      </trkpt>
      <trkpt lat="45.588553" lon="10.301442">
        <ele>244.580284</ele>
        <time>2021-01-22T13:13:35.531Z</time>
      </trkpt>
      <trkpt lat="45.588668" lon="10.303138">
        <ele>247.038593</ele>
        <time>2021-01-22T13:14:02.719Z</time>
      </trkpt>
      <trkpt lat="45.588848" lon="10.303826">
        <ele>248.094512</ele>
        <time>2021-01-22T13:14:14.539Z</time>
      </trkpt>
      <trkpt lat="45.589039" lon="10.304293">
        <ele>248.994793</ele>
        <time>2021-01-22T13:14:22.914Z</time>
      </trkpt>
      <trkpt lat="45.589176" lon="10.304565">
        <ele>249.598275</ele>
        <time>2021-01-22T13:14:28.322Z</time>
      </trkpt>
      <trkpt lat="45.589553" lon="10.305277">
        <ele>251.206064</ele>
        <time>2021-01-22T13:14:43.208Z</time>
      </trkpt>
      <trkpt lat="45.589866" lon="10.305840">
        <ele>252.500873</ele>
        <time>2021-01-22T13:14:56.894Z</time>
      </trkpt>
      <trkpt lat="45.590526" lon="10.306751">
        <ele>255.794047</ele>
        <time>2021-01-22T13:15:23.274Z</time>
      </trkpt>
      <trkpt lat="45.590717" lon="10.307125">
        <ele>257.048398</ele>
        <time>2021-01-22T13:15:32.740Z</time>
      </trkpt>
      <trkpt lat="45.591824" lon="10.309264">
        <ele>264.670444</ele>
        <time>2021-01-22T13:16:33.411Z</time>
      </trkpt>
      <trkpt lat="45.592282" lon="10.310124">
        <ele>267.910434</ele>
        <time>2021-01-22T13:16:56.451Z</time>
      </trkpt>
      <trkpt lat="45.592500" lon="10.310441">
        <ele>269.372490</ele>
        <time>2021-01-22T13:17:05.920Z</time>
      </trkpt>
      <trkpt lat="45.592790" lon="10.310745">
        <ele>271.063208</ele>
        <time>2021-01-22T13:17:17.500Z</time>
      </trkpt>
      <trkpt lat="45.593095" lon="10.310764">
        <ele>272.498355</ele>
        <time>2021-01-22T13:17:29.603Z</time>
      </trkpt>
      <trkpt lat="45.593515" lon="10.310515">
        <ele>274.635903</ele>
        <time>2021-01-22T13:17:44.893Z</time>
      </trkpt>
      <trkpt lat="45.593560" lon="10.310489">
        <ele>274.864080</ele>
        <time>2021-01-22T13:17:47.099Z</time>
      </trkpt>
      <trkpt lat="45.593844" lon="10.310420">
        <ele>276.220100</ele>
        <time>2021-01-22T13:17:56.088Z</time>
      </trkpt>
      <trkpt lat="45.594327" lon="10.310450">
        <ele>278.520682</ele>
        <time>2021-01-22T13:18:12.396Z</time>
      </trkpt>
      <trkpt lat="45.594435" lon="10.310450">
        <ele>279.034612</ele>
        <time>2021-01-22T13:18:17.036Z</time>
      </trkpt>
      <trkpt lat="45.594667" lon="10.310390">
        <ele>280.156543</ele>
        <time>2021-01-22T13:18:24.189Z</time>
      </trkpt>
      <trkpt lat="45.595094" lon="10.310140">
        <ele>282.352376</ele>
        <time>2021-01-22T13:18:41.210Z</time>
      </trkpt>
      <trkpt lat="45.595704" lon="10.309621">
        <ele>285.439554</ele>
        <time>2021-01-22T13:19:04.200Z</time>
      </trkpt>
      <trkpt lat="45.596055" lon="10.309552">
        <ele>286.679374</ele>
        <time>2021-01-22T13:19:14.723Z</time>
      </trkpt>
      <trkpt lat="45.596422" lon="10.309581">
        <ele>287.965580</ele>
        <time>2021-01-22T13:19:24.951Z</time>
      </trkpt>
      <trkpt lat="45.596838" lon="10.309273">
        <ele>289.605034</ele>
        <time>2021-01-22T13:19:37.433Z</time>
      </trkpt>
      <trkpt lat="45.597245" lon="10.309228">
        <ele>291.037141</ele>
        <time>2021-01-22T13:19:48.185Z</time>
      </trkpt>
      <trkpt lat="45.597259" lon="10.309230">
        <ele>291.088022</ele>
        <time>2021-01-22T13:19:49.110Z</time>
      </trkpt>
      <trkpt lat="45.597437" lon="10.309255">
        <ele>291.734828</ele>
        <time>2021-01-22T13:19:54.024Z</time>
      </trkpt>
      <trkpt lat="45.597857" lon="10.309360">
        <ele>293.276744</ele>
        <time>2021-01-22T13:20:06.286Z</time>
      </trkpt>
      <trkpt lat="45.598117" lon="10.309327">
        <ele>294.220688</ele>
        <time>2021-01-22T13:20:13.886Z</time>
      </trkpt>
      <trkpt lat="45.598341" lon="10.309144">
        <ele>295.153746</ele>
        <time>2021-01-22T13:20:21.757Z</time>
      </trkpt>
      <trkpt lat="45.598704" lon="10.308616">
        <ele>297.026738</ele>
        <time>2021-01-22T13:20:37.609Z</time>
      </trkpt>
      <trkpt lat="45.598750" lon="10.308566">
        <ele>297.235732</ele>
        <time>2021-01-22T13:20:39.736Z</time>
      </trkpt>
      <trkpt lat="45.598779" lon="10.308534">
        <ele>297.368224</ele>
        <time>2021-01-22T13:20:41.304Z</time>
      </trkpt>
      <trkpt lat="45.599268" lon="10.308193">
        <ele>298.987781</ele>
        <time>2021-01-22T13:20:56.300Z</time>
      </trkpt>
      <trkpt lat="45.599757" lon="10.307879">
        <ele>300.572495</ele>
        <time>2021-01-22T13:21:11.774Z</time>
      </trkpt>
      <trkpt lat="45.600072" lon="10.307661">
        <ele>301.607080</ele>
        <time>2021-01-22T13:21:20.770Z</time>
      </trkpt>
      <trkpt lat="45.600764" lon="10.307209">
        <ele>303.486946</ele>
        <time>2021-01-22T13:21:36.878Z</time>
      </trkpt>
      <trkpt lat="45.600931" lon="10.307163">
        <ele>303.822451</ele>
        <time>2021-01-22T13:21:41.180Z</time>
      </trkpt>
      <trkpt lat="45.600975" lon="10.307158">
        <ele>303.909524</ele>
        <time>2021-01-22T13:21:42.050Z</time>
      </trkpt>
      <trkpt lat="45.601035" lon="10.307150">
        <ele>304.028401</ele>
        <time>2021-01-22T13:21:43.060Z</time>
      </trkpt>
      <trkpt lat="45.601419" lon="10.307178">
        <ele>304.786907</ele>
        <time>2021-01-22T13:21:52.373Z</time>
      </trkpt>
      <trkpt lat="45.602112" lon="10.307401">
        <ele>306.188216</ele>
        <time>2021-01-22T13:22:07.517Z</time>
      </trkpt>
      <trkpt lat="45.602185" lon="10.307437">
        <ele>306.360644</ele>
        <time>2021-01-22T13:22:09.010Z</time>
      </trkpt>
      <trkpt lat="45.602218" lon="10.307453">
        <ele>306.459332</ele>
        <time>2021-01-22T13:22:09.813Z</time>
      </trkpt>
      <trkpt lat="45.602241" lon="10.307468">
        <ele>306.530930</ele>
        <time>2021-01-22T13:22:10.787Z</time>
      </trkpt>
      <trkpt lat="45.602291" lon="10.307499">
        <ele>306.685280</ele>
        <time>2021-01-22T13:22:12.645Z</time>
      </trkpt>
      <trkpt lat="45.602373" lon="10.307561">
        <ele>306.947999</ele>
        <time>2021-01-22T13:22:14.906Z</time>
      </trkpt>
      <trkpt lat="45.602411" lon="10.307595">
        <ele>307.074964</ele>
        <time>2021-01-22T13:22:15.540Z</time>
      </trkpt>
      <trkpt lat="45.602449" lon="10.307629">
        <ele>307.201928</ele>
        <time>2021-01-22T13:22:16.350Z</time>
      </trkpt>
      <trkpt lat="45.602482" lon="10.307654">
        <ele>307.307702</ele>
        <time>2021-01-22T13:22:17.142Z</time>
      </trkpt>
      <trkpt lat="45.602517" lon="10.307693">
        <ele>307.433386</ele>
        <time>2021-01-22T13:22:17.977Z</time>
      </trkpt>
      <trkpt lat="45.602560" lon="10.307744">
        <ele>307.591630</ele>
        <time>2021-01-22T13:22:19.846Z</time>
      </trkpt>
      <trkpt lat="45.602620" lon="10.307816">
        <ele>307.813499</ele>
        <time>2021-01-22T13:22:22.334Z</time>
      </trkpt>
      <trkpt lat="45.603277" lon="10.308812">
        <ele>310.525796</ele>
        <time>2021-01-22T13:22:47.619Z</time>
      </trkpt>
      <trkpt lat="45.603310" lon="10.308860">
        <ele>310.659136</ele>
        <time>2021-01-22T13:22:49.576Z</time>
      </trkpt>
      <trkpt lat="45.603368" lon="10.308944">
        <ele>310.892976</ele>
        <time>2021-01-22T13:22:52.349Z</time>
      </trkpt>
      <trkpt lat="45.603400" lon="10.308990">
        <ele>311.021506</ele>
        <time>2021-01-22T13:22:53.567Z</time>
      </trkpt>
      <trkpt lat="45.603456" lon="10.309071">
        <ele>311.247137</ele>
        <time>2021-01-22T13:22:55.574Z</time>
      </trkpt>
      <trkpt lat="45.603841" lon="10.309624">
        <ele>312.977707</ele>
        <time>2021-01-22T13:23:10.566Z</time>
      </trkpt>
      <trkpt lat="45.604062" lon="10.309914">
        <ele>313.939134</ele>
        <time>2021-01-22T13:23:18.161Z</time>
      </trkpt>
      <trkpt lat="45.604190" lon="10.309997">
        <ele>314.389568</ele>
        <time>2021-01-22T13:23:22.320Z</time>
      </trkpt>
      <trkpt lat="45.605442" lon="10.310061">
        <ele>318.581889</ele>
        <time>2021-01-22T13:23:57.018Z</time>
      </trkpt>
      <trkpt lat="45.605644" lon="10.310138">
        <ele>319.346839</ele>
        <time>2021-01-22T13:24:03.462Z</time>
      </trkpt>
      <trkpt lat="45.606200" lon="10.310351">
        <ele>321.453044</ele>
        <time>2021-01-22T13:24:20.046Z</time>
      </trkpt>
      <trkpt lat="45.606302" lon="10.310400">
        <ele>321.846776</ele>
        <time>2021-01-22T13:24:23.466Z</time>
      </trkpt>
      <trkpt lat="45.606362" lon="10.310428">
        <ele>322.077720</ele>
        <time>2021-01-22T13:24:25.764Z</time>
      </trkpt>
      <trkpt lat="45.606751" lon="10.310642">
        <ele>323.602847</ele>
        <time>2021-01-22T13:24:37.754Z</time>
      </trkpt>
      <trkpt lat="45.607196" lon="10.310791">
        <ele>325.494239</ele>
        <time>2021-01-22T13:24:52.176Z</time>
      </trkpt>
      <trkpt lat="45.607311" lon="10.310840">
        <ele>325.995714</ele>
        <time>2021-01-22T13:24:56.046Z</time>
      </trkpt>
      <trkpt lat="45.607678" lon="10.311062">
        <ele>327.661060</ele>
        <time>2021-01-22T13:25:08.892Z</time>
      </trkpt>
      <trkpt lat="45.608081" lon="10.311414">
        <ele>329.634688</ele>
        <time>2021-01-22T13:25:23.347Z</time>
      </trkpt>
      <trkpt lat="45.608443" lon="10.311768">
        <ele>331.514846</ele>
        <time>2021-01-22T13:25:37.026Z</time>
      </trkpt>
      <trkpt lat="45.608667" lon="10.312050">
        <ele>333.033187</ele>
        <time>2021-01-22T13:25:47.261Z</time>
      </trkpt>
      <trkpt lat="45.609035" lon="10.313236">
        <ele>337.650092</ele>
        <time>2021-01-22T13:26:19.285Z</time>
      </trkpt>
      <trkpt lat="45.609228" lon="10.313620">
        <ele>339.332664</ele>
        <time>2021-01-22T13:26:30.956Z</time>
      </trkpt>
      <trkpt lat="45.609322" lon="10.313721">
        <ele>339.930837</ele>
        <time>2021-01-22T13:26:36.595Z</time>
      </trkpt>
      <trkpt lat="45.609417" lon="10.313817">
        <ele>340.540080</ele>
        <time>2021-01-22T13:26:40.298Z</time>
      </trkpt>
      <trkpt lat="45.609532" lon="10.313920">
        <ele>341.328119</ele>
        <time>2021-01-22T13:26:44.570Z</time>
      </trkpt>
      <trkpt lat="45.609572" lon="10.313947">
        <ele>341.584987</ele>
        <time>2021-01-22T13:26:46.932Z</time>
      </trkpt>
      <trkpt lat="45.609653" lon="10.314001">
        <ele>342.103979</ele>
        <time>2021-01-22T13:26:51.115Z</time>
      </trkpt>
      <trkpt lat="45.609790" lon="10.314077">
        <ele>342.957324</ele>
        <time>2021-01-22T13:26:55.737Z</time>
      </trkpt>
      <trkpt lat="45.610203" lon="10.314201">
        <ele>345.407890</ele>
        <time>2021-01-22T13:27:11.806Z</time>
      </trkpt>
      <trkpt lat="45.610268" lon="10.314236">
        <ele>345.811226</ele>
        <time>2021-01-22T13:27:15.561Z</time>
      </trkpt>
      <trkpt lat="45.610624" lon="10.314563">
        <ele>348.268443</ele>
        <time>2021-01-22T13:27:32.984Z</time>
      </trkpt>
      <trkpt lat="45.610833" lon="10.314897">
        <ele>350.088785</ele>
        <time>2021-01-22T13:27:44.117Z</time>
      </trkpt>
      <trkpt lat="45.610908" lon="10.314979">
        <ele>350.637076</ele>
        <time>2021-01-22T13:27:47.493Z</time>
      </trkpt>
      <trkpt lat="45.611100" lon="10.315116">
        <ele>351.575487</ele>
        <time>2021-01-22T13:27:54.698Z</time>
      </trkpt>
      <trkpt lat="45.611468" lon="10.315376">
        <ele>353.253446</ele>
        <time>2021-01-22T13:28:08.425Z</time>
      </trkpt>
      <trkpt lat="45.611568" lon="10.315463">
        <ele>353.731963</ele>
        <time>2021-01-22T13:28:11.999Z</time>
      </trkpt>
      <trkpt lat="45.611586" lon="10.315486">
        <ele>353.830650</ele>
        <time>2021-01-22T13:28:13.442Z</time>
      </trkpt>
      <trkpt lat="45.611602" lon="10.315507">
        <ele>353.919437</ele>
        <time>2021-01-22T13:28:14.084Z</time>
      </trkpt>
      <trkpt lat="45.611621" lon="10.315543">
        <ele>354.048389</ele>
        <time>2021-01-22T13:28:14.923Z</time>
      </trkpt>
      <trkpt lat="45.611662" lon="10.315636">
        <ele>354.362721</ele>
        <time>2021-01-22T13:28:17.200Z</time>
      </trkpt>
      <trkpt lat="45.611676" lon="10.315665">
        <ele>354.463474</ele>
        <time>2021-01-22T13:28:17.927Z</time>
      </trkpt>
      <trkpt lat="45.611747" lon="10.315770">
        <ele>354.881055</ele>
        <time>2021-01-22T13:28:21.022Z</time>
      </trkpt>
      <trkpt lat="45.612228" lon="10.316451">
        <ele>357.648298</ele>
        <time>2021-01-22T13:28:41.106Z</time>
      </trkpt>
      <trkpt lat="45.612434" lon="10.316620">
        <ele>358.501334</ele>
        <time>2021-01-22T13:28:47.366Z</time>
      </trkpt>
      <trkpt lat="45.612778" lon="10.316754">
        <ele>359.552727</ele>
        <time>2021-01-22T13:28:57.068Z</time>
      </trkpt>
      <trkpt lat="45.612873" lon="10.316807">
        <ele>359.853446</ele>
        <time>2021-01-22T13:28:59.854Z</time>
      </trkpt>
      <trkpt lat="45.612958" lon="10.316870">
        <ele>360.135784</ele>
        <time>2021-01-22T13:29:02.171Z</time>
      </trkpt>
      <trkpt lat="45.612982" lon="10.316902">
        <ele>360.232561</ele>
        <time>2021-01-22T13:29:03.242Z</time>
      </trkpt>
      <trkpt lat="45.612995" lon="10.316944">
        <ele>360.327298</ele>
        <time>2021-01-22T13:29:04.026Z</time>
      </trkpt>
      <trkpt lat="45.613002" lon="10.316981">
        <ele>360.406362</ele>
        <time>2021-01-22T13:29:04.940Z</time>
      </trkpt>
      <trkpt lat="45.613002" lon="10.317037">
        <ele>360.521875</ele>
        <time>2021-01-22T13:29:05.878Z</time>
      </trkpt>
      <trkpt lat="45.612986" lon="10.317286">
        <ele>361.037658</ele>
        <time>2021-01-22T13:29:10.776Z</time>
      </trkpt>
      <trkpt lat="45.612991" lon="10.317448">
        <ele>361.372147</ele>
        <time>2021-01-22T13:29:13.865Z</time>
      </trkpt>
      <trkpt lat="45.612996" lon="10.317501">
        <ele>361.482461</ele>
        <time>2021-01-22T13:29:15.145Z</time>
      </trkpt>
      <trkpt lat="45.613034" lon="10.317688">
        <ele>361.884140</ele>
        <time>2021-01-22T13:29:18.457Z</time>
      </trkpt>
      <trkpt lat="45.613132" lon="10.317916">
        <ele>362.436135</ele>
        <time>2021-01-22T13:29:23.455Z</time>
      </trkpt>
      <trkpt lat="45.613157" lon="10.317968">
        <ele>362.566289</ele>
        <time>2021-01-22T13:29:24.898Z</time>
      </trkpt>
      <trkpt lat="45.613201" lon="10.318072">
        <ele>362.816999</ele>
        <time>2021-01-22T13:29:26.693Z</time>
      </trkpt>
      <trkpt lat="45.613225" lon="10.318180">
        <ele>363.050745</ele>
        <time>2021-01-22T13:29:28.896Z</time>
      </trkpt>
      <trkpt lat="45.613236" lon="10.318325">
        <ele>363.351594</ele>
        <time>2021-01-22T13:29:31.401Z</time>
      </trkpt>
      <trkpt lat="45.613228" lon="10.318429">
        <ele>363.561068</ele>
        <time>2021-01-22T13:29:33.559Z</time>
      </trkpt>
      <trkpt lat="45.613214" lon="10.318602">
        <ele>363.886411</ele>
        <time>2021-01-22T13:29:36.212Z</time>
      </trkpt>
      <trkpt lat="45.613187" lon="10.318878">
        <ele>364.407035</ele>
        <time>2021-01-22T13:29:40.831Z</time>
      </trkpt>
      <trkpt lat="45.613173" lon="10.319090">
        <ele>364.804841</ele>
        <time>2021-01-22T13:29:43.901Z</time>
      </trkpt>
      <trkpt lat="45.613160" lon="10.319522">
        <ele>365.612623</ele>
        <time>2021-01-22T13:29:50.985Z</time>
      </trkpt>
      <trkpt lat="45.613158" lon="10.319617">
        <ele>365.790176</ele>
        <time>2021-01-22T13:29:52.134Z</time>
      </trkpt>
      <trkpt lat="45.613174" lon="10.320209">
        <ele>366.896939</ele>
        <time>2021-01-22T13:30:03.156Z</time>
      </trkpt>
      <trkpt lat="45.613270" lon="10.321091">
        <ele>368.803870</ele>
        <time>2021-01-22T13:30:21.147Z</time>
      </trkpt>
      <trkpt lat="45.613283" lon="10.321287">
        <ele>369.509432</ele>
        <time>2021-01-22T13:30:24.372Z</time>
      </trkpt>
      <trkpt lat="45.613288" lon="10.321449">
        <ele>370.090561</ele>
        <time>2021-01-22T13:30:27.445Z</time>
      </trkpt>
      <trkpt lat="45.613302" lon="10.321776">
        <ele>371.264634</ele>
        <time>2021-01-22T13:30:33.605Z</time>
      </trkpt>
      <trkpt lat="45.613334" lon="10.322654">
        <ele>374.415415</ele>
        <time>2021-01-22T13:30:53.768Z</time>
      </trkpt>
      <trkpt lat="45.613360" lon="10.322859">
        <ele>375.162057</ele>
        <time>2021-01-22T13:30:58.310Z</time>
      </trkpt>
      <trkpt lat="45.613391" lon="10.322979">
        <ele>375.620495</ele>
        <time>2021-01-22T13:31:01.713Z</time>
      </trkpt>
      <trkpt lat="45.613466" lon="10.323324">
        <ele>376.915211</ele>
        <time>2021-01-22T13:31:13.801Z</time>
      </trkpt>
      <trkpt lat="45.613536" lon="10.323608">
        <ele>378.279826</ele>
        <time>2021-01-22T13:31:25.421Z</time>
      </trkpt>
      <trkpt lat="45.613554" lon="10.323702">
        <ele>378.838762</ele>
        <time>2021-01-22T13:31:29.326Z</time>
      </trkpt>
      <trkpt lat="45.613571" lon="10.324088">
        <ele>381.056898</ele>
        <time>2021-01-22T13:31:42.984Z</time>
      </trkpt>
      <trkpt lat="45.613503" lon="10.324374">
        <ele>382.789304</ele>
        <time>2021-01-22T13:31:52.008Z</time>
      </trkpt>
      <trkpt lat="45.613474" lon="10.324459">
        <ele>383.331684</ele>
        <time>2021-01-22T13:31:55.035Z</time>
      </trkpt>
      <trkpt lat="45.613436" lon="10.324569">
        <ele>384.035287</ele>
        <time>2021-01-22T13:32:00.518Z</time>
      </trkpt>
      <trkpt lat="45.613286" lon="10.324957">
        <ele>386.577758</ele>
        <time>2021-01-22T13:32:14.192Z</time>
      </trkpt>
      <trkpt lat="45.613168" lon="10.325278">
        <ele>388.657474</ele>
        <time>2021-01-22T13:32:25.640Z</time>
      </trkpt>
      <trkpt lat="45.613155" lon="10.325313">
        <ele>388.884748</ele>
        <time>2021-01-22T13:32:26.764Z</time>
      </trkpt>
      <trkpt lat="45.613142" lon="10.325374">
        <ele>389.250469</ele>
        <time>2021-01-22T13:32:28.772Z</time>
      </trkpt>
      <trkpt lat="45.613114" lon="10.325517">
        <ele>390.102120</ele>
        <time>2021-01-22T13:32:34.577Z</time>
      </trkpt>
      <trkpt lat="45.613111" lon="10.325582">
        <ele>390.475716</ele>
        <time>2021-01-22T13:32:36.821Z</time>
      </trkpt>
      <trkpt lat="45.613159" lon="10.325821">
        <ele>391.901796</ele>
        <time>2021-01-22T13:32:43.747Z</time>
      </trkpt>
      <trkpt lat="45.613203" lon="10.325987">
        <ele>392.886113</ele>
        <time>2021-01-22T13:32:51.310Z</time>
      </trkpt>
      <trkpt lat="45.613214" lon="10.326028">
        <ele>393.124954</ele>
        <time>2021-01-22T13:32:52.540Z</time>
      </trkpt>
      <trkpt lat="45.613319" lon="10.326425">
        <ele>395.433446</ele>
        <time>2021-01-22T13:33:07.153Z</time>
      </trkpt>
      <trkpt lat="45.613321" lon="10.326668">
        <ele>396.755221</ele>
        <time>2021-01-22T13:33:16.258Z</time>
      </trkpt>
      <trkpt lat="45.613322" lon="10.326724">
        <ele>397.059905</ele>
        <time>2021-01-22T13:33:18.519Z</time>
      </trkpt>
      <trkpt lat="45.613264" lon="10.327760">
        <ele>402.712759</ele>
        <time>2021-01-22T13:33:51.336Z</time>
      </trkpt>
      <trkpt lat="45.613246" lon="10.328057">
        <ele>404.334204</ele>
        <time>2021-01-22T13:34:00.366Z</time>
      </trkpt>
      <trkpt lat="45.613218" lon="10.328499">
        <ele>406.509490</ele>
        <time>2021-01-22T13:34:12.599Z</time>
      </trkpt>
      <trkpt lat="45.613212" lon="10.328593">
        <ele>406.776316</ele>
        <time>2021-01-22T13:34:16.567Z</time>
      </trkpt>
      <trkpt lat="45.613147" lon="10.329625">
        <ele>409.705408</ele>
        <time>2021-01-22T13:34:45.374Z</time>
      </trkpt>
      <trkpt lat="45.613115" lon="10.330108">
        <ele>411.076879</ele>
        <time>2021-01-22T13:34:55.844Z</time>
      </trkpt>
      <trkpt lat="45.613080" lon="10.330631">
        <ele>412.562064</ele>
        <time>2021-01-22T13:35:05.119Z</time>
      </trkpt>
      <trkpt lat="45.613109" lon="10.331040">
        <ele>413.506928</ele>
        <time>2021-01-22T13:35:08.688Z</time>
      </trkpt>
      <trkpt lat="45.613138" lon="10.331152">
        <ele>413.485317</ele>
        <time>2021-01-22T13:35:09.636Z</time>
      </trkpt>
      <trkpt lat="45.613670" lon="10.332154">
        <ele>413.257684</ele>
        <time>2021-01-22T13:35:21.038Z</time>
      </trkpt>
      <trkpt lat="45.613894" lon="10.332632">
        <ele>413.153571</ele>
        <time>2021-01-22T13:35:26.174Z</time>
      </trkpt>
      <trkpt lat="45.613967" lon="10.332810">
        <ele>413.116233</ele>
        <time>2021-01-22T13:35:27.711Z</time>
      </trkpt>
      <trkpt lat="45.614026" lon="10.332948">
        <ele>413.086966</ele>
        <time>2021-01-22T13:35:30.119Z</time>
      </trkpt>
      <trkpt lat="45.614055" lon="10.333042">
        <ele>413.068376</ele>
        <time>2021-01-22T13:35:31.519Z</time>
      </trkpt>
      <trkpt lat="45.614077" lon="10.333297">
        <ele>413.400265</ele>
        <time>2021-01-22T13:35:33.524Z</time>
      </trkpt>
      <trkpt lat="45.614074" lon="10.333772">
        <ele>414.305433</ele>
        <time>2021-01-22T13:35:39.975Z</time>
      </trkpt>
      <trkpt lat="45.614076" lon="10.333958">
        <ele>414.659905</ele>
        <time>2021-01-22T13:35:43.888Z</time>
      </trkpt>
      <trkpt lat="45.614060" lon="10.335027">
        <ele>416.697392</ele>
        <time>2021-01-22T13:36:04.903Z</time>
      </trkpt>
      <trkpt lat="45.614025" lon="10.335646">
        <ele>417.880768</ele>
        <time>2021-01-22T13:36:19.409Z</time>
      </trkpt>
      <trkpt lat="45.613946" lon="10.336844">
        <ele>420.950545</ele>
        <time>2021-01-22T13:36:46.038Z</time>
      </trkpt>
      <trkpt lat="45.614032" lon="10.337789">
        <ele>423.402111</ele>
        <time>2021-01-22T13:37:04.855Z</time>
      </trkpt>
      <trkpt lat="45.614010" lon="10.338255">
        <ele>424.622815</ele>
        <time>2021-01-22T13:37:12.979Z</time>
      </trkpt>
      <trkpt lat="45.614008" lon="10.338273">
        <ele>424.696054</ele>
        <time>2021-01-22T13:37:13.763Z</time>
      </trkpt>
      <trkpt lat="45.613991" lon="10.338419">
        <ele>425.290824</ele>
        <time>2021-01-22T13:37:16.989Z</time>
      </trkpt>
      <trkpt lat="45.613889" lon="10.339248">
        <ele>428.673288</ele>
        <time>2021-01-22T13:37:32.903Z</time>
      </trkpt>
      <trkpt lat="45.613881" lon="10.339304">
        <ele>428.902969</ele>
        <time>2021-01-22T13:37:34.524Z</time>
      </trkpt>
      <trkpt lat="45.613867" lon="10.339409">
        <ele>429.332506</ele>
        <time>2021-01-22T13:37:37.211Z</time>
      </trkpt>
      <trkpt lat="45.613856" lon="10.339483">
        <ele>429.636515</ele>
        <time>2021-01-22T13:37:39.086Z</time>
      </trkpt>
      <trkpt lat="45.613779" lon="10.340126">
        <ele>432.257995</ele>
        <time>2021-01-22T13:37:56.732Z</time>
      </trkpt>
      <trkpt lat="45.613757" lon="10.340311">
        <ele>433.012083</ele>
        <time>2021-01-22T13:38:02.070Z</time>
      </trkpt>
      <trkpt lat="45.613629" lon="10.341384">
        <ele>439.587009</ele>
        <time>2021-01-22T13:38:43.114Z</time>
      </trkpt>
      <trkpt lat="45.613595" lon="10.341657">
        <ele>441.688732</ele>
        <time>2021-01-22T13:38:54.864Z</time>
      </trkpt>
      <trkpt lat="45.613524" lon="10.342171">
        <ele>445.659793</ele>
        <time>2021-01-22T13:39:16.843Z</time>
      </trkpt>
      <trkpt lat="45.613388" lon="10.342785">
        <ele>450.541314</ele>
        <time>2021-01-22T13:39:43.324Z</time>
      </trkpt>
      <trkpt lat="45.613371" lon="10.342867">
        <ele>451.189552</ele>
        <time>2021-01-22T13:39:48.871Z</time>
      </trkpt>
      <trkpt lat="45.613326" lon="10.343091">
        <ele>452.955982</ele>
        <time>2021-01-22T13:39:59.885Z</time>
      </trkpt>
      <trkpt lat="45.613303" lon="10.344561">
        <ele>460.919786</ele>
        <time>2021-01-22T13:40:59.665Z</time>
      </trkpt>
      <trkpt lat="45.613184" lon="10.345018">
        <ele>463.404914</ele>
        <time>2021-01-22T13:41:14.824Z</time>
      </trkpt>
      <trkpt lat="45.612819" lon="10.345784">
        <ele>467.424043</ele>
        <time>2021-01-22T13:41:29.936Z</time>
      </trkpt>
      <trkpt lat="45.612807" lon="10.346022">
        <ele>467.285496</ele>
        <time>2021-01-22T13:41:32.862Z</time>
      </trkpt>
      <trkpt lat="45.612838" lon="10.346083">
        <ele>467.241718</ele>
        <time>2021-01-22T13:41:33.933Z</time>
      </trkpt>
      <trkpt lat="45.612910" lon="10.346092">
        <ele>467.181726</ele>
        <time>2021-01-22T13:41:34.755Z</time>
      </trkpt>
      <trkpt lat="45.613032" lon="10.345990">
        <ele>467.064414</ele>
        <time>2021-01-22T13:41:36.792Z</time>
      </trkpt>
      <trkpt lat="45.613507" lon="10.344878">
        <ele>466.307900</ele>
        <time>2021-01-22T13:41:47.132Z</time>
      </trkpt>
      <trkpt lat="45.613859" lon="10.343839">
        <ele>466.080870</ele>
        <time>2021-01-22T13:41:55.822Z</time>
      </trkpt>
      <trkpt lat="45.614017" lon="10.343521">
        <ele>466.129049</ele>
        <time>2021-01-22T13:41:59.534Z</time>
      </trkpt>
      <trkpt lat="45.614415" lon="10.342743">
        <ele>466.248103</ele>
        <time>2021-01-22T13:42:10.220Z</time>
      </trkpt>
      <trkpt lat="45.614505" lon="10.342674">
        <ele>466.266137</ele>
        <time>2021-01-22T13:42:11.632Z</time>
      </trkpt>
      <trkpt lat="45.614618" lon="10.342702">
        <ele>466.286388</ele>
        <time>2021-01-22T13:42:13.622Z</time>
      </trkpt>
      <trkpt lat="45.614650" lon="10.342766">
        <ele>466.296105</ele>
        <time>2021-01-22T13:42:16.204Z</time>
      </trkpt>
      <trkpt lat="45.614665" lon="10.342821">
        <ele>466.303397</ele>
        <time>2021-01-22T13:42:17.105Z</time>
      </trkpt>
      <trkpt lat="45.614622" lon="10.343030">
        <ele>466.543436</ele>
        <time>2021-01-22T13:42:20.329Z</time>
      </trkpt>
      <trkpt lat="45.614367" lon="10.343274">
        <ele>467.802903</ele>
        <time>2021-01-22T13:42:29.930Z</time>
      </trkpt>
      <trkpt lat="45.614184" lon="10.343568">
        <ele>468.932815</ele>
        <time>2021-01-22T13:42:39.520Z</time>
      </trkpt>
      <trkpt lat="45.614053" lon="10.343914">
        <ele>470.062395</ele>
        <time>2021-01-22T13:42:48.653Z</time>
      </trkpt>
      <trkpt lat="45.613996" lon="10.344267">
        <ele>471.102544</ele>
        <time>2021-01-22T13:42:56.753Z</time>
      </trkpt>
      <trkpt lat="45.613974" lon="10.344699">
        <ele>472.346138</ele>
        <time>2021-01-22T13:43:07.771Z</time>
      </trkpt>
      <trkpt lat="45.613965" lon="10.344882">
        <ele>472.872845</ele>
        <time>2021-01-22T13:43:12.750Z</time>
      </trkpt>
      <trkpt lat="45.613942" lon="10.345134">
        <ele>473.602494</ele>
        <time>2021-01-22T13:43:17.710Z</time>
      </trkpt>
      <trkpt lat="45.613779" lon="10.345770">
        <ele>475.137635</ele>
        <time>2021-01-22T13:43:32.592Z</time>
      </trkpt>
      <trkpt lat="45.613311" lon="10.347159">
        <ele>478.580862</ele>
        <time>2021-01-22T13:44:02.349Z</time>
      </trkpt>
      <trkpt lat="45.612899" lon="10.350089">
        <ele>483.406609</ele>
        <time>2021-01-22T13:44:48.627Z</time>
      </trkpt>
      <trkpt lat="45.612846" lon="10.350389">
        <ele>484.401684</ele>
        <time>2021-01-22T13:44:54.104Z</time>
      </trkpt>
      <trkpt lat="45.612807" lon="10.350609">
        <ele>485.131556</ele>
        <time>2021-01-22T13:44:59.299Z</time>
      </trkpt>
      <trkpt lat="45.612516" lon="10.352201">
        <ele>490.423253</ele>
        <time>2021-01-22T13:45:39.741Z</time>
      </trkpt>
      <trkpt lat="45.612435" lon="10.353101">
        <ele>494.069885</ele>
        <time>2021-01-22T13:46:04.081Z</time>
      </trkpt>
      <trkpt lat="45.612452" lon="10.353659">
        <ele>496.608724</ele>
        <time>2021-01-22T13:46:18.372Z</time>
      </trkpt>
      <trkpt lat="45.612461" lon="10.353951">
        <ele>497.937322</ele>
        <time>2021-01-22T13:46:27.400Z</time>
      </trkpt>
      <trkpt lat="45.612419" lon="10.354461">
        <ele>500.271579</ele>
        <time>2021-01-22T13:46:42.222Z</time>
      </trkpt>
      <trkpt lat="45.612225" lon="10.355408">
        <ele>505.215204</ele>
        <time>2021-01-22T13:47:12.952Z</time>
      </trkpt>
      <trkpt lat="45.612123" lon="10.355854">
        <ele>508.004272</ele>
        <time>2021-01-22T13:47:27.227Z</time>
      </trkpt>
      <trkpt lat="45.612110" lon="10.355909">
        <ele>508.349346</ele>
        <time>2021-01-22T13:47:30.107Z</time>
      </trkpt>
      <trkpt lat="45.611860" lon="10.356714">
        <ele>513.584568</ele>
        <time>2021-01-22T13:47:58.319Z</time>
      </trkpt>
      <trkpt lat="45.611730" lon="10.357113">
        <ele>516.200839</ele>
        <time>2021-01-22T13:48:14.633Z</time>
      </trkpt>
      <trkpt lat="45.611497" lon="10.357761">
        <ele>520.946646</ele>
        <time>2021-01-22T13:48:43.670Z</time>
      </trkpt>
      <trkpt lat="45.610700" lon="10.359312">
        <ele>534.783436</ele>
        <time>2021-01-22T13:50:01.528Z</time>
      </trkpt>
      <trkpt lat="45.610463" lon="10.359544">
        <ele>537.347677</ele>
        <time>2021-01-22T13:50:17.605Z</time>
      </trkpt>
      <trkpt lat="45.610266" lon="10.359639">
        <ele>538.296350</ele>
        <time>2021-01-22T13:50:29.846Z</time>
      </trkpt>
      <trkpt lat="45.609787" lon="10.359682">
        <ele>540.486318</ele>
        <time>2021-01-22T13:50:48.309Z</time>
      </trkpt>
      <trkpt lat="45.609624" lon="10.359775">
        <ele>541.287135</ele>
        <time>2021-01-22T13:50:53.380Z</time>
      </trkpt>
      <trkpt lat="45.609608" lon="10.359834">
        <ele>541.489119</ele>
        <time>2021-01-22T13:50:58.109Z</time>
      </trkpt>
      <trkpt lat="45.609596" lon="10.359914">
        <ele>541.750283</ele>
        <time>2021-01-22T13:50:58.707Z</time>
      </trkpt>
      <trkpt lat="45.609682" lon="10.360057">
        <ele>542.352231</ele>
        <time>2021-01-22T13:51:01.617Z</time>
      </trkpt>
      <trkpt lat="45.609747" lon="10.360074">
        <ele>542.653747</ele>
        <time>2021-01-22T13:51:02.972Z</time>
      </trkpt>
      <trkpt lat="45.611063" lon="10.359780">
        <ele>544.545853</ele>
        <time>2021-01-22T13:51:24.128Z</time>
      </trkpt>
      <trkpt lat="45.611190" lon="10.359588">
        <ele>544.376716</ele>
        <time>2021-01-22T13:51:25.947Z</time>
      </trkpt>
      <trkpt lat="45.611418" lon="10.358915">
        <ele>543.898084</ele>
        <time>2021-01-22T13:51:31.403Z</time>
      </trkpt>
      <trkpt lat="45.612007" lon="10.358436">
        <ele>544.662959</ele>
        <time>2021-01-22T13:51:40.285Z</time>
      </trkpt>
      <trkpt lat="45.612237" lon="10.358156">
        <ele>545.578479</ele>
        <time>2021-01-22T13:51:46.546Z</time>
      </trkpt>
      <trkpt lat="45.612344" lon="10.357902">
        <ele>546.207037</ele>
        <time>2021-01-22T13:51:51.942Z</time>
      </trkpt>
      <trkpt lat="45.612433" lon="10.357305">
        <ele>547.501038</ele>
        <time>2021-01-22T13:52:04.960Z</time>
      </trkpt>
      <trkpt lat="45.612481" lon="10.357209">
        <ele>547.751192</ele>
        <time>2021-01-22T13:52:07.675Z</time>
      </trkpt>
      <trkpt lat="45.612620" lon="10.357194">
        <ele>548.173637</ele>
        <time>2021-01-22T13:52:12.811Z</time>
      </trkpt>
      <trkpt lat="45.612691" lon="10.357375">
        <ele>548.613550</ele>
        <time>2021-01-22T13:52:18.246Z</time>
      </trkpt>
      <trkpt lat="45.612675" lon="10.357501">
        <ele>548.885021</ele>
        <time>2021-01-22T13:52:21.579Z</time>
      </trkpt>
      <trkpt lat="45.611712" lon="10.359600">
        <ele>560.982976</ele>
        <time>2021-01-22T13:53:40.140Z</time>
      </trkpt>
      <trkpt lat="45.611382" lon="10.360691">
        <ele>563.530266</ele>
        <time>2021-01-22T13:54:13.532Z</time>
      </trkpt>
      <trkpt lat="45.611295" lon="10.360870">
        <ele>563.917650</ele>
        <time>2021-01-22T13:54:17.453Z</time>
      </trkpt>
      <trkpt lat="45.611133" lon="10.361030">
        <ele>564.417920</ele>
        <time>2021-01-22T13:54:23.901Z</time>
      </trkpt>
      <trkpt lat="45.610865" lon="10.361132">
        <ele>565.122544</ele>
        <time>2021-01-22T13:54:27.422Z</time>
      </trkpt>
      <trkpt lat="45.610734" lon="10.361137">
        <ele>565.455493</ele>
        <time>2021-01-22T13:54:30.468Z</time>
      </trkpt>
      <trkpt lat="45.610590" lon="10.361158">
        <ele>565.823251</ele>
        <time>2021-01-22T13:54:32.022Z</time>
      </trkpt>
      <trkpt lat="45.609735" lon="10.361174">
        <ele>563.027720</ele>
        <time>2021-01-22T13:54:40.274Z</time>
      </trkpt>
      <trkpt lat="45.609628" lon="10.361264">
        <ele>562.453389</ele>
        <time>2021-01-22T13:54:41.500Z</time>
      </trkpt>
      <trkpt lat="45.609584" lon="10.361384">
        <ele>562.014933</ele>
        <time>2021-01-22T13:54:42.394Z</time>
      </trkpt>
      <trkpt lat="45.609578" lon="10.361428">
        <ele>561.869860</ele>
        <time>2021-01-22T13:54:42.658Z</time>
      </trkpt>
      <trkpt lat="45.609578" lon="10.361478">
        <ele>561.708050</ele>
        <time>2021-01-22T13:54:42.962Z</time>
      </trkpt>
      <trkpt lat="45.609585" lon="10.361533">
        <ele>561.527137</ele>
        <time>2021-01-22T13:54:43.429Z</time>
      </trkpt>
      <trkpt lat="45.609595" lon="10.361574">
        <ele>561.386619</ele>
        <time>2021-01-22T13:54:43.703Z</time>
      </trkpt>
      <trkpt lat="45.609611" lon="10.361611">
        <ele>561.245848</ele>
        <time>2021-01-22T13:54:43.972Z</time>
      </trkpt>
      <trkpt lat="45.609739" lon="10.361720">
        <ele>560.556596</ele>
        <time>2021-01-22T13:54:45.414Z</time>
      </trkpt>
      <trkpt lat="45.609906" lon="10.361802">
        <ele>559.739722</ele>
        <time>2021-01-22T13:54:46.968Z</time>
      </trkpt>
      <trkpt lat="45.609982" lon="10.361840">
        <ele>559.367247</ele>
        <time>2021-01-22T13:54:47.678Z</time>
      </trkpt>
      <trkpt lat="45.610046" lon="10.361904">
        <ele>559.005921</ele>
        <time>2021-01-22T13:54:48.584Z</time>
      </trkpt>
      <trkpt lat="45.610108" lon="10.361966">
        <ele>558.655886</ele>
        <time>2021-01-22T13:54:49.336Z</time>
      </trkpt>
      <trkpt lat="45.610639" lon="10.362886">
        <ele>557.711969</ele>
        <time>2021-01-22T13:54:57.270Z</time>
      </trkpt>
      <trkpt lat="45.611359" lon="10.363377">
        <ele>557.473147</ele>
        <time>2021-01-22T13:55:13.810Z</time>
      </trkpt>
      <trkpt lat="45.611502" lon="10.363609">
        <ele>557.408392</ele>
        <time>2021-01-22T13:55:20.453Z</time>
      </trkpt>
      <trkpt lat="45.611621" lon="10.364291">
        <ele>558.709516</ele>
        <time>2021-01-22T13:55:36.366Z</time>
      </trkpt>
      <trkpt lat="45.611856" lon="10.364545">
        <ele>559.741226</ele>
        <time>2021-01-22T13:55:46.669Z</time>
      </trkpt>
      <trkpt lat="45.612010" lon="10.364579">
        <ele>560.286923</ele>
        <time>2021-01-22T13:55:52.220Z</time>
      </trkpt>
      <trkpt lat="45.612223" lon="10.364535">
        <ele>561.040590</ele>
        <time>2021-01-22T13:55:59.523Z</time>
      </trkpt>
      <trkpt lat="45.613411" lon="10.363654">
        <ele>563.363813</ele>
        <time>2021-01-22T13:56:32.264Z</time>
      </trkpt>
      <trkpt lat="45.614008" lon="10.363550">
        <ele>563.045597</ele>
        <time>2021-01-22T13:56:39.100Z</time>
      </trkpt>
      <trkpt lat="45.614172" lon="10.363606">
        <ele>562.956382</ele>
        <time>2021-01-22T13:56:40.927Z</time>
      </trkpt>
      <trkpt lat="45.614277" lon="10.363754">
        <ele>562.878363</ele>
        <time>2021-01-22T13:56:42.438Z</time>
      </trkpt>
      <trkpt lat="45.614304" lon="10.363961">
        <ele>562.800431</ele>
        <time>2021-01-22T13:56:43.983Z</time>
      </trkpt>
      <trkpt lat="45.614190" lon="10.364417">
        <ele>562.688658</ele>
        <time>2021-01-22T13:56:47.412Z</time>
      </trkpt>
      <trkpt lat="45.614182" lon="10.364798">
        <ele>562.641648</ele>
        <time>2021-01-22T13:56:50.979Z</time>
      </trkpt>
      <trkpt lat="45.614283" lon="10.365093">
        <ele>562.601141</ele>
        <time>2021-01-22T13:56:53.325Z</time>
      </trkpt>
      <trkpt lat="45.614665" lon="10.365601">
        <ele>562.509155</ele>
        <time>2021-01-22T13:57:04.392Z</time>
      </trkpt>
      <trkpt lat="45.614771" lon="10.365823">
        <ele>562.476005</ele>
        <time>2021-01-22T13:57:06.509Z</time>
      </trkpt>
      <trkpt lat="45.614749" lon="10.366359">
        <ele>562.409788</ele>
        <time>2021-01-22T13:57:13.837Z</time>
      </trkpt>
      <trkpt lat="45.614757" lon="10.366445">
        <ele>562.360662</ele>
        <time>2021-01-22T13:57:17.084Z</time>
      </trkpt>
      <trkpt lat="45.614779" lon="10.366528">
        <ele>562.281340</ele>
        <time>2021-01-22T13:57:18.811Z</time>
      </trkpt>
      <trkpt lat="45.614935" lon="10.366855">
        <ele>561.927612</ele>
        <time>2021-01-22T13:57:23.946Z</time>
      </trkpt>
      <trkpt lat="45.615081" lon="10.366951">
        <ele>561.722295</ele>
        <time>2021-01-22T13:57:28.717Z</time>
      </trkpt>
      <trkpt lat="45.615160" lon="10.366961">
        <ele>561.620967</ele>
        <time>2021-01-22T13:57:29.893Z</time>
      </trkpt>
      <trkpt lat="45.615265" lon="10.366955">
        <ele>561.486709</ele>
        <time>2021-01-22T13:57:30.787Z</time>
      </trkpt>
      <trkpt lat="45.615438" lon="10.366930">
        <ele>561.264553</ele>
        <time>2021-01-22T13:57:36.236Z</time>
      </trkpt>
      <trkpt lat="45.615568" lon="10.366911">
        <ele>561.097596</ele>
        <time>2021-01-22T13:57:37.620Z</time>
      </trkpt>
      <trkpt lat="45.615817" lon="10.366828">
        <ele>560.770934</ele>
        <time>2021-01-22T13:57:40.820Z</time>
      </trkpt>
      <trkpt lat="45.615954" lon="10.366703">
        <ele>560.563291</ele>
        <time>2021-01-22T13:57:42.264Z</time>
      </trkpt>
      <trkpt lat="45.616168" lon="10.366269">
        <ele>560.044057</ele>
        <time>2021-01-22T13:57:46.076Z</time>
      </trkpt>
      <trkpt lat="45.616262" lon="10.366116">
        <ele>559.421893</ele>
        <time>2021-01-22T13:57:48.020Z</time>
      </trkpt>
      <trkpt lat="45.616288" lon="10.366095">
        <ele>559.291457</ele>
        <time>2021-01-22T13:57:48.447Z</time>
      </trkpt>
      <trkpt lat="45.616399" lon="10.366077">
        <ele>558.803506</ele>
        <time>2021-01-22T13:57:49.624Z</time>
      </trkpt>
      <trkpt lat="45.616436" lon="10.366087">
        <ele>558.639029</ele>
        <time>2021-01-22T13:57:49.939Z</time>
      </trkpt>
      <trkpt lat="45.617041" lon="10.367494">
        <ele>553.593075</ele>
        <time>2021-01-22T13:58:00.860Z</time>
      </trkpt>
      <trkpt lat="45.617264" lon="10.367765">
        <ele>552.314688</ele>
        <time>2021-01-22T13:58:03.632Z</time>
      </trkpt>
      <trkpt lat="45.617490" lon="10.367776">
        <ele>551.658991</ele>
        <time>2021-01-22T13:58:06.429Z</time>
      </trkpt>
      <trkpt lat="45.617729" lon="10.367583">
        <ele>550.890913</ele>
        <time>2021-01-22T13:58:09.877Z</time>
      </trkpt>
      <trkpt lat="45.617972" lon="10.367035">
        <ele>549.620997</ele>
        <time>2021-01-22T13:58:15.304Z</time>
      </trkpt>
      <trkpt lat="45.618280" lon="10.366540">
        <ele>548.324325</ele>
        <time>2021-01-22T13:58:20.226Z</time>
      </trkpt>
      <trkpt lat="45.618655" lon="10.366185">
        <ele>546.838844</ele>
        <time>2021-01-22T13:58:24.639Z</time>
      </trkpt>
      <trkpt lat="45.619016" lon="10.365627">
        <ele>543.130650</ele>
        <time>2021-01-22T13:58:29.559Z</time>
      </trkpt>
      <trkpt lat="45.619192" lon="10.365561">
        <ele>541.861523</ele>
        <time>2021-01-22T13:58:31.178Z</time>
      </trkpt>
      <trkpt lat="45.620299" lon="10.367410">
        <ele>531.216483</ele>
        <time>2021-01-22T13:58:46.180Z</time>
      </trkpt>
      <trkpt lat="45.620938" lon="10.367757">
        <ele>527.699265</ele>
        <time>2021-01-22T13:58:52.651Z</time>
      </trkpt>
      <trkpt lat="45.620995" lon="10.367830">
        <ele>527.305507</ele>
        <time>2021-01-22T13:58:54.068Z</time>
      </trkpt>
      <trkpt lat="45.621029" lon="10.367920">
        <ele>526.937380</ele>
        <time>2021-01-22T13:58:54.764Z</time>
      </trkpt>
      <trkpt lat="45.621121" lon="10.368680">
        <ele>526.268025</ele>
        <time>2021-01-22T13:59:00.520Z</time>
      </trkpt>
      <trkpt lat="45.620851" lon="10.369246">
        <ele>527.938878</ele>
        <time>2021-01-22T13:59:10.639Z</time>
      </trkpt>
      <trkpt lat="45.620835" lon="10.369562">
        <ele>528.711552</ele>
        <time>2021-01-22T13:59:16.782Z</time>
      </trkpt>
      <trkpt lat="45.620836" lon="10.370195">
        <ele>530.255310</ele>
        <time>2021-01-22T13:59:35.647Z</time>
      </trkpt>
      <trkpt lat="45.620838" lon="10.371082">
        <ele>532.812979</ele>
        <time>2021-01-22T14:00:02.898Z</time>
      </trkpt>
      <trkpt lat="45.620868" lon="10.371323">
        <ele>533.732734</ele>
        <time>2021-01-22T14:00:09.405Z</time>
      </trkpt>
      <trkpt lat="45.620892" lon="10.371432">
        <ele>534.162102</ele>
        <time>2021-01-22T14:00:14.297Z</time>
      </trkpt>
      <trkpt lat="45.621009" lon="10.371633">
        <ele>535.144674</ele>
        <time>2021-01-22T14:00:19.752Z</time>
      </trkpt>
      <trkpt lat="45.621066" lon="10.371722">
        <ele>535.598100</ele>
        <time>2021-01-22T14:00:23.976Z</time>
      </trkpt>
      <trkpt lat="45.621157" lon="10.371822">
        <ele>536.214683</ele>
        <time>2021-01-22T14:00:29.801Z</time>
      </trkpt>
      <trkpt lat="45.621219" lon="10.371886">
        <ele>536.625495</ele>
        <time>2021-01-22T14:00:32.482Z</time>
      </trkpt>
      <trkpt lat="45.621991" lon="10.372569">
        <ele>541.270386</ele>
        <time>2021-01-22T14:01:04.352Z</time>
      </trkpt>
      <trkpt lat="45.622218" lon="10.372573">
        <ele>540.613200</ele>
        <time>2021-01-22T14:01:09.893Z</time>
      </trkpt>
      <trkpt lat="45.622784" lon="10.372108">
        <ele>538.723490</ele>
        <time>2021-01-22T14:01:16.932Z</time>
      </trkpt>
      <trkpt lat="45.623398" lon="10.372013">
        <ele>536.935662</ele>
        <time>2021-01-22T14:01:22.633Z</time>
      </trkpt>
      <trkpt lat="45.623498" lon="10.371919">
        <ele>536.589221</ele>
        <time>2021-01-22T14:01:23.728Z</time>
      </trkpt>
      <trkpt lat="45.624133" lon="10.370897">
        <ele>531.445737</ele>
        <time>2021-01-22T14:01:32.331Z</time>
      </trkpt>
      <trkpt lat="45.624278" lon="10.370755">
        <ele>530.416735</ele>
        <time>2021-01-22T14:01:33.935Z</time>
      </trkpt>
      <trkpt lat="45.624601" lon="10.370715">
        <ele>528.518493</ele>
        <time>2021-01-22T14:01:36.900Z</time>
      </trkpt>
      <trkpt lat="45.624859" lon="10.370907">
        <ele>526.815566</ele>
        <time>2021-01-22T14:01:39.615Z</time>
      </trkpt>
      <trkpt lat="45.625508" lon="10.372338">
        <ele>523.214624</ele>
        <time>2021-01-22T14:01:51.501Z</time>
      </trkpt>
      <trkpt lat="45.625553" lon="10.372898">
        <ele>522.256898</ele>
        <time>2021-01-22T14:01:55.973Z</time>
      </trkpt>
      <trkpt lat="45.625470" lon="10.373309">
        <ele>521.530058</ele>
        <time>2021-01-22T14:01:59.846Z</time>
      </trkpt>
      <trkpt lat="45.625377" lon="10.373530">
        <ele>521.193428</ele>
        <time>2021-01-22T14:02:02.534Z</time>
      </trkpt>
      <trkpt lat="45.624879" lon="10.374281">
        <ele>520.608634</ele>
        <time>2021-01-22T14:02:15.563Z</time>
      </trkpt>
      <trkpt lat="45.624620" lon="10.374916">
        <ele>520.193255</ele>
        <time>2021-01-22T14:02:21.913Z</time>
      </trkpt>
      <trkpt lat="45.624496" lon="10.375615">
        <ele>519.762730</ele>
        <time>2021-01-22T14:02:27.952Z</time>
      </trkpt>
      <trkpt lat="45.624506" lon="10.375789">
        <ele>519.211746</ele>
        <time>2021-01-22T14:02:29.054Z</time>
      </trkpt>
      <trkpt lat="45.624628" lon="10.376003">
        <ele>518.340414</ele>
        <time>2021-01-22T14:02:31.232Z</time>
      </trkpt>
      <trkpt lat="45.624683" lon="10.376049">
        <ele>518.052881</ele>
        <time>2021-01-22T14:02:32.740Z</time>
      </trkpt>
      <trkpt lat="45.624740" lon="10.376078">
        <ele>517.779864</ele>
        <time>2021-01-22T14:02:33.243Z</time>
      </trkpt>
      <trkpt lat="45.624898" lon="10.376077">
        <ele>517.066863</ele>
        <time>2021-01-22T14:02:34.889Z</time>
      </trkpt>
      <trkpt lat="45.624989" lon="10.376008">
        <ele>516.602051</ele>
        <time>2021-01-22T14:02:36.076Z</time>
      </trkpt>
      <trkpt lat="45.626013" lon="10.374592">
        <ele>509.611396</ele>
        <time>2021-01-22T14:02:49.273Z</time>
      </trkpt>
      <trkpt lat="45.626259" lon="10.374334">
        <ele>507.718681</ele>
        <time>2021-01-22T14:02:52.108Z</time>
      </trkpt>
      <trkpt lat="45.626416" lon="10.374286">
        <ele>506.722622</ele>
        <time>2021-01-22T14:02:53.541Z</time>
      </trkpt>
      <trkpt lat="45.626611" lon="10.374323">
        <ele>505.502218</ele>
        <time>2021-01-22T14:02:55.295Z</time>
      </trkpt>
      <trkpt lat="45.626774" lon="10.374456">
        <ele>504.337894</ele>
        <time>2021-01-22T14:02:56.997Z</time>
      </trkpt>
      <trkpt lat="45.626887" lon="10.374635">
        <ele>503.291642</ele>
        <time>2021-01-22T14:02:58.522Z</time>
      </trkpt>
      <trkpt lat="45.627015" lon="10.374833">
        <ele>502.121761</ele>
        <time>2021-01-22T14:03:00.260Z</time>
      </trkpt>
      <trkpt lat="45.627053" lon="10.374892">
        <ele>501.773755</ele>
        <time>2021-01-22T14:03:00.730Z</time>
      </trkpt>
      <trkpt lat="45.627219" lon="10.375002">
        <ele>500.638666</ele>
        <time>2021-01-22T14:03:02.544Z</time>
      </trkpt>
      <trkpt lat="45.627330" lon="10.374980">
        <ele>500.031927</ele>
        <time>2021-01-22T14:03:03.557Z</time>
      </trkpt>
      <trkpt lat="45.627485" lon="10.374754">
        <ele>498.871100</ele>
        <time>2021-01-22T14:03:05.655Z</time>
      </trkpt>
      <trkpt lat="45.627504" lon="10.374649">
        <ele>498.473367</ele>
        <time>2021-01-22T14:03:06.320Z</time>
      </trkpt>
      <trkpt lat="45.627480" lon="10.374522">
        <ele>497.990934</ele>
        <time>2021-01-22T14:03:07.143Z</time>
      </trkpt>
      <trkpt lat="45.627261" lon="10.373961">
        <ele>495.634828</ele>
        <time>2021-01-22T14:03:11.337Z</time>
      </trkpt>
      <trkpt lat="45.627076" lon="10.373751">
        <ele>494.396203</ele>
        <time>2021-01-22T14:03:13.608Z</time>
      </trkpt>
      <trkpt lat="45.626820" lon="10.373726">
        <ele>493.050643</ele>
        <time>2021-01-22T14:03:16.009Z</time>
      </trkpt>
      <trkpt lat="45.626444" lon="10.373876">
        <ele>491.022324</ele>
        <time>2021-01-22T14:03:19.666Z</time>
      </trkpt>
      <trkpt lat="45.626306" lon="10.373803">
        <ele>490.431511</ele>
        <time>2021-01-22T14:03:21.014Z</time>
      </trkpt>
      <trkpt lat="45.626219" lon="10.373611">
        <ele>489.789087</ele>
        <time>2021-01-22T14:03:22.744Z</time>
      </trkpt>
      <trkpt lat="45.626233" lon="10.373375">
        <ele>489.124008</ele>
        <time>2021-01-22T14:03:24.494Z</time>
      </trkpt>
      <trkpt lat="45.626502" lon="10.372911">
        <ele>487.431590</ele>
        <time>2021-01-22T14:03:28.833Z</time>
      </trkpt>
      <trkpt lat="45.626582" lon="10.372555">
        <ele>486.381588</ele>
        <time>2021-01-22T14:03:31.509Z</time>
      </trkpt>
      <trkpt lat="45.626530" lon="10.372190">
        <ele>485.335606</ele>
        <time>2021-01-22T14:03:34.202Z</time>
      </trkpt>
      <trkpt lat="45.626131" lon="10.370602">
        <ele>478.153044</ele>
        <time>2021-01-22T14:03:45.124Z</time>
      </trkpt>
      <trkpt lat="45.626202" lon="10.370361">
        <ele>476.868765</ele>
        <time>2021-01-22T14:03:46.688Z</time>
      </trkpt>
      <trkpt lat="45.626403" lon="10.370268">
        <ele>475.385222</ele>
        <time>2021-01-22T14:03:48.646Z</time>
      </trkpt>
      <trkpt lat="45.626420" lon="10.370273">
        <ele>475.263343</ele>
        <time>2021-01-22T14:03:48.794Z</time>
      </trkpt>
      <trkpt lat="45.626498" lon="10.370297">
        <ele>474.703062</ele>
        <time>2021-01-22T14:03:49.494Z</time>
      </trkpt>
      <trkpt lat="45.626619" lon="10.370471">
        <ele>473.498000</ele>
        <time>2021-01-22T14:03:51.111Z</time>
      </trkpt>
      <trkpt lat="45.626721" lon="10.371011">
        <ele>470.693627</ele>
        <time>2021-01-22T14:03:54.598Z</time>
      </trkpt>
      <trkpt lat="45.626755" lon="10.371117">
        <ele>470.052329</ele>
        <time>2021-01-22T14:03:55.276Z</time>
      </trkpt>
      <trkpt lat="45.626815" lon="10.371304">
        <ele>468.920922</ele>
        <time>2021-01-22T14:03:56.584Z</time>
      </trkpt>
      <trkpt lat="45.627007" lon="10.371834">
        <ele>465.638548</ele>
        <time>2021-01-22T14:04:00.345Z</time>
      </trkpt>
      <trkpt lat="45.627343" lon="10.372498">
        <ele>461.131494</ele>
        <time>2021-01-22T14:04:05.437Z</time>
      </trkpt>
      <trkpt lat="45.627736" lon="10.372880">
        <ele>457.394800</ele>
        <time>2021-01-22T14:04:09.660Z</time>
      </trkpt>
      <trkpt lat="45.627906" lon="10.373023">
        <ele>455.313686</ele>
        <time>2021-01-22T14:04:11.388Z</time>
      </trkpt>
      <trkpt lat="45.628156" lon="10.373239">
        <ele>452.037276</ele>
        <time>2021-01-22T14:04:13.957Z</time>
      </trkpt>
      <trkpt lat="45.628331" lon="10.373348">
        <ele>449.896150</ele>
        <time>2021-01-22T14:04:15.597Z</time>
      </trkpt>
      <trkpt lat="45.629197" lon="10.373870">
        <ele>439.354397</ele>
        <time>2021-01-22T14:04:23.556Z</time>
      </trkpt>
      <trkpt lat="45.629902" lon="10.374633">
        <ele>429.488393</ele>
        <time>2021-01-22T14:04:30.918Z</time>
      </trkpt>
      <trkpt lat="45.630049" lon="10.374629">
        <ele>427.850555</ele>
        <time>2021-01-22T14:04:32.136Z</time>
      </trkpt>
      <trkpt lat="45.630439" lon="10.374313">
        <ele>422.857147</ele>
        <time>2021-01-22T14:04:35.936Z</time>
      </trkpt>
      <trkpt lat="45.631219" lon="10.373812">
        <ele>416.181885</ele>
        <time>2021-01-22T14:04:43.666Z</time>
      </trkpt>
      <trkpt lat="45.631500" lon="10.373759">
        <ele>415.564209</ele>
        <time>2021-01-22T14:04:46.582Z</time>
      </trkpt>
      <trkpt lat="45.631536" lon="10.373762">
        <ele>415.485622</ele>
        <time>2021-01-22T14:04:46.892Z</time>
      </trkpt>
      <trkpt lat="45.631688" lon="10.373858">
        <ele>415.123507</ele>
        <time>2021-01-22T14:04:49.056Z</time>
      </trkpt>
      <trkpt lat="45.631795" lon="10.373940">
        <ele>414.858954</ele>
        <time>2021-01-22T14:04:50.638Z</time>
      </trkpt>
      <trkpt lat="45.632150" lon="10.374193">
        <ele>413.994570</ele>
        <time>2021-01-22T14:04:55.434Z</time>
      </trkpt>
      <trkpt lat="45.632306" lon="10.374304">
        <ele>413.614849</ele>
        <time>2021-01-22T14:04:58.600Z</time>
      </trkpt>
      <trkpt lat="45.632475" lon="10.374432">
        <ele>413.198089</ele>
        <time>2021-01-22T14:05:01.254Z</time>
      </trkpt>
      <trkpt lat="45.632764" lon="10.374602">
        <ele>412.629645</ele>
        <time>2021-01-22T14:05:08.404Z</time>
      </trkpt>
      <trkpt lat="45.633203" lon="10.374659">
        <ele>411.915764</ele>
        <time>2021-01-22T14:05:17.379Z</time>
      </trkpt>
      <trkpt lat="45.636778" lon="10.374032">
        <ele>402.346844</ele>
        <time>2021-01-22T14:05:53.799Z</time>
      </trkpt>
      <trkpt lat="45.638337" lon="10.373924">
        <ele>397.833023</ele>
        <time>2021-01-22T14:06:10.080Z</time>
      </trkpt>
      <trkpt lat="45.638570" lon="10.373974">
        <ele>397.144956</ele>
        <time>2021-01-22T14:06:12.647Z</time>
      </trkpt>
      <trkpt lat="45.638669" lon="10.374010">
        <ele>396.846639</ele>
        <time>2021-01-22T14:06:13.683Z</time>
      </trkpt>
      <trkpt lat="45.639221" lon="10.374274">
        <ele>395.146845</ele>
        <time>2021-01-22T14:06:19.901Z</time>
      </trkpt>
      <trkpt lat="45.639444" lon="10.374313">
        <ele>394.490748</ele>
        <time>2021-01-22T14:06:22.225Z</time>
      </trkpt>
      <trkpt lat="45.640474" lon="10.374255">
        <ele>389.925126</ele>
        <time>2021-01-22T14:06:32.134Z</time>
      </trkpt>
      <trkpt lat="45.640844" lon="10.374355">
        <ele>388.079597</ele>
        <time>2021-01-22T14:06:35.620Z</time>
      </trkpt>
      <trkpt lat="45.641225" lon="10.374494">
        <ele>386.152458</ele>
        <time>2021-01-22T14:06:39.258Z</time>
      </trkpt>
      <trkpt lat="45.641356" lon="10.374531">
        <ele>385.498005</ele>
        <time>2021-01-22T14:06:40.491Z</time>
      </trkpt>
      <trkpt lat="45.641519" lon="10.374609">
        <ele>384.713270</ele>
        <time>2021-01-22T14:06:42.105Z</time>
      </trkpt>
      <trkpt lat="45.641851" lon="10.374740">
        <ele>383.347280</ele>
        <time>2021-01-22T14:06:45.339Z</time>
      </trkpt>
      <trkpt lat="45.642019" lon="10.374792">
        <ele>382.665523</ele>
        <time>2021-01-22T14:06:46.947Z</time>
      </trkpt>
      <trkpt lat="45.642055" lon="10.374818">
        <ele>382.505567</ele>
        <time>2021-01-22T14:06:47.339Z</time>
      </trkpt>
      <trkpt lat="45.642095" lon="10.374834">
        <ele>382.340829</ele>
        <time>2021-01-22T14:06:47.736Z</time>
      </trkpt>
      <trkpt lat="45.642136" lon="10.374840">
        <ele>382.177363</ele>
        <time>2021-01-22T14:06:48.121Z</time>
      </trkpt>
      <trkpt lat="45.642497" lon="10.374970">
        <ele>380.700856</ele>
        <time>2021-01-22T14:06:51.676Z</time>
      </trkpt>
      <trkpt lat="45.642908" lon="10.375118">
        <ele>379.019851</ele>
        <time>2021-01-22T14:06:55.892Z</time>
      </trkpt>
      <trkpt lat="45.643850" lon="10.375548">
        <ele>377.057208</ele>
        <time>2021-01-22T14:07:07.216Z</time>
      </trkpt>
      <trkpt lat="45.644274" lon="10.375867">
        <ele>376.522687</ele>
        <time>2021-01-22T14:07:13.345Z</time>
      </trkpt>
      <trkpt lat="45.644458" lon="10.376171">
        <ele>376.209039</ele>
        <time>2021-01-22T14:07:16.959Z</time>
      </trkpt>
      <trkpt lat="45.644743" lon="10.376849">
        <ele>375.732628</ele>
        <time>2021-01-22T14:07:24.168Z</time>
      </trkpt>
      <trkpt lat="45.644811" lon="10.377088">
        <ele>375.657023</ele>
        <time>2021-01-22T14:07:26.555Z</time>
      </trkpt>
      <trkpt lat="45.644845" lon="10.377462">
        <ele>375.546516</ele>
        <time>2021-01-22T14:07:30.081Z</time>
      </trkpt>
      <trkpt lat="45.644836" lon="10.377741">
        <ele>375.464681</ele>
        <time>2021-01-22T14:07:32.685Z</time>
      </trkpt>
      <trkpt lat="45.644811" lon="10.377826">
        <ele>375.437661</ele>
        <time>2021-01-22T14:07:33.563Z</time>
      </trkpt>
      <trkpt lat="45.644786" lon="10.377920">
        <ele>375.408193</ele>
        <time>2021-01-22T14:07:34.530Z</time>
      </trkpt>
      <trkpt lat="45.644750" lon="10.378017">
        <ele>375.376014</ele>
        <time>2021-01-22T14:07:35.573Z</time>
      </trkpt>
      <trkpt lat="45.644708" lon="10.378059">
        <ele>375.354536</ele>
        <time>2021-01-22T14:07:36.267Z</time>
      </trkpt>
      <trkpt lat="45.644678" lon="10.378119">
        <ele>375.332923</ele>
        <time>2021-01-22T14:07:36.964Z</time>
      </trkpt>
      <trkpt lat="45.644663" lon="10.378189">
        <ele>375.311470</ele>
        <time>2021-01-22T14:07:37.660Z</time>
      </trkpt>
      <trkpt lat="45.644665" lon="10.378263">
        <ele>375.289772</ele>
        <time>2021-01-22T14:07:38.377Z</time>
      </trkpt>
      <trkpt lat="45.644684" lon="10.378332">
        <ele>375.268042</ele>
        <time>2021-01-22T14:07:39.095Z</time>
      </trkpt>
      <trkpt lat="45.644717" lon="10.378388">
        <ele>375.246583</ele>
        <time>2021-01-22T14:07:39.812Z</time>
      </trkpt>
      <trkpt lat="45.644754" lon="10.378422">
        <ele>375.228151</ele>
        <time>2021-01-22T14:07:40.417Z</time>
      </trkpt>
      <trkpt lat="45.644840" lon="10.378441">
        <ele>375.191680</ele>
        <time>2021-01-22T14:07:41.611Z</time>
      </trkpt>
      <trkpt lat="45.644883" lon="10.378423">
        <ele>375.172902</ele>
        <time>2021-01-22T14:07:42.214Z</time>
      </trkpt>
      <trkpt lat="45.644923" lon="10.378386">
        <ele>375.152937</ele>
        <time>2021-01-22T14:07:42.877Z</time>
      </trkpt>
      <trkpt lat="45.644953" lon="10.378334">
        <ele>375.133183</ele>
        <time>2021-01-22T14:07:43.552Z</time>
      </trkpt>
      <trkpt lat="45.644971" lon="10.378270">
        <ele>375.112970</ele>
        <time>2021-01-22T14:07:44.229Z</time>
      </trkpt>
      <trkpt lat="45.645094" lon="10.378032">
        <ele>374.958781</ele>
        <time>2021-01-22T14:07:48.224Z</time>
      </trkpt>
      <trkpt lat="45.645298" lon="10.377655">
        <ele>374.565601</ele>
        <time>2021-01-22T14:07:54.763Z</time>
      </trkpt>
      <trkpt lat="45.645357" lon="10.377588">
        <ele>374.476731</ele>
        <time>2021-01-22T14:07:56.252Z</time>
      </trkpt>
      <trkpt lat="45.645513" lon="10.377623">
        <ele>374.290447</ele>
        <time>2021-01-22T14:07:59.400Z</time>
      </trkpt>
      <trkpt lat="45.646987" lon="10.379001">
        <ele>370.507139</ele>
        <time>2021-01-22T14:08:27.826Z</time>
      </trkpt>
      <trkpt lat="45.647038" lon="10.379015">
        <ele>370.302398</ele>
        <time>2021-01-22T14:08:28.607Z</time>
      </trkpt>
      <trkpt lat="45.647157" lon="10.379048">
        <ele>369.824497</ele>
        <time>2021-01-22T14:08:30.252Z</time>
      </trkpt>
      <trkpt lat="45.647773" lon="10.379202">
        <ele>367.359058</ele>
        <time>2021-01-22T14:08:38.970Z</time>
      </trkpt>
      <trkpt lat="45.648966" lon="10.379759">
        <ele>359.649905</ele>
        <time>2021-01-22T14:08:55.156Z</time>
      </trkpt>
      <trkpt lat="45.649207" lon="10.379861">
        <ele>357.863344</ele>
        <time>2021-01-22T14:08:58.402Z</time>
      </trkpt>
      <trkpt lat="45.649312" lon="10.379871">
        <ele>357.115297</ele>
        <time>2021-01-22T14:08:59.724Z</time>
      </trkpt>
      <trkpt lat="45.649609" lon="10.379675">
        <ele>354.790240</ele>
        <time>2021-01-22T14:09:03.870Z</time>
      </trkpt>
      <trkpt lat="45.649678" lon="10.379728">
        <ele>354.233517</ele>
        <time>2021-01-22T14:09:04.858Z</time>
      </trkpt>
      <trkpt lat="45.649808" lon="10.380139">
        <ele>351.805655</ele>
        <time>2021-01-22T14:09:08.820Z</time>
      </trkpt>
      <trkpt lat="45.650180" lon="10.380658">
        <ele>347.470761</ele>
        <time>2021-01-22T14:09:15.283Z</time>
      </trkpt>
      <trkpt lat="45.650283" lon="10.380884">
        <ele>345.897447</ele>
        <time>2021-01-22T14:09:17.612Z</time>
      </trkpt>
      <trkpt lat="45.650466" lon="10.381973">
        <ele>339.365904</ele>
        <time>2021-01-22T14:09:27.464Z</time>
      </trkpt>
      <trkpt lat="45.650555" lon="10.382096">
        <ele>338.333546</ele>
        <time>2021-01-22T14:09:28.988Z</time>
      </trkpt>
      <trkpt lat="45.650891" lon="10.382260">
        <ele>336.153298</ele>
        <time>2021-01-22T14:09:33.437Z</time>
      </trkpt>
      <trkpt lat="45.651260" lon="10.382792">
        <ele>333.053516</ele>
        <time>2021-01-22T14:09:40.135Z</time>
      </trkpt>
      <trkpt lat="45.651491" lon="10.383018">
        <ele>331.397648</ele>
        <time>2021-01-22T14:09:44.016Z</time>
      </trkpt>
      <trkpt lat="45.651691" lon="10.383084">
        <ele>330.183192</ele>
        <time>2021-01-22T14:09:46.731Z</time>
      </trkpt>
      <trkpt lat="45.651967" lon="10.383120">
        <ele>328.543355</ele>
        <time>2021-01-22T14:09:50.532Z</time>
      </trkpt>
      <trkpt lat="45.652089" lon="10.383136">
        <ele>327.818467</ele>
        <time>2021-01-22T14:09:52.258Z</time>
      </trkpt>
      <trkpt lat="45.652325" lon="10.383201">
        <ele>326.958902</ele>
        <time>2021-01-22T14:09:55.652Z</time>
      </trkpt>
      <trkpt lat="45.652390" lon="10.383274">
        <ele>326.739361</ele>
        <time>2021-01-22T14:09:56.871Z</time>
      </trkpt>
      <trkpt lat="45.652507" lon="10.383850">
        <ele>325.625446</ele>
        <time>2021-01-22T14:10:03.019Z</time>
      </trkpt>
      <trkpt lat="45.652526" lon="10.384009">
        <ele>325.325891</ele>
        <time>2021-01-22T14:10:05.081Z</time>
      </trkpt>
      <trkpt lat="45.652826" lon="10.383900">
        <ele>324.503577</ele>
        <time>2021-01-22T14:10:08.267Z</time>
      </trkpt>
      <trkpt lat="45.653510" lon="10.384062">
        <ele>322.661657</ele>
        <time>2021-01-22T14:10:15.819Z</time>
      </trkpt>
      <trkpt lat="45.654052" lon="10.384284">
        <ele>322.381439</ele>
        <time>2021-01-22T14:10:22.424Z</time>
      </trkpt>
      <trkpt lat="45.654439" lon="10.384572">
        <ele>322.179226</ele>
        <time>2021-01-22T14:10:27.560Z</time>
      </trkpt>
      <trkpt lat="45.654531" lon="10.384636">
        <ele>322.131805</ele>
        <time>2021-01-22T14:10:28.991Z</time>
      </trkpt>
      <trkpt lat="45.654616" lon="10.384754">
        <ele>322.076903</ele>
        <time>2021-01-22T14:10:30.794Z</time>
      </trkpt>
      <trkpt lat="45.654702" lon="10.384920">
        <ele>322.009953</ele>
        <time>2021-01-22T14:10:32.958Z</time>
      </trkpt>
      <trkpt lat="45.654723" lon="10.385025">
        <ele>321.974567</ele>
        <time>2021-01-22T14:10:34.191Z</time>
      </trkpt>
      <trkpt lat="45.654766" lon="10.385099">
        <ele>321.943387</ele>
        <time>2021-01-22T14:10:35.527Z</time>
      </trkpt>
      <trkpt lat="45.654892" lon="10.385161">
        <ele>321.881621</ele>
        <time>2021-01-22T14:10:37.661Z</time>
      </trkpt>
      <trkpt lat="45.654968" lon="10.385133">
        <ele>321.845242</ele>
        <time>2021-01-22T14:10:39.085Z</time>
      </trkpt>
      <trkpt lat="45.654989" lon="10.385121">
        <ele>321.834760</ele>
        <time>2021-01-22T14:10:39.510Z</time>
      </trkpt>
      <trkpt lat="45.655073" lon="10.385126">
        <ele>321.856623</ele>
        <time>2021-01-22T14:10:41.228Z</time>
      </trkpt>
      <trkpt lat="45.655235" lon="10.385151">
        <ele>322.278453</ele>
        <time>2021-01-22T14:10:44.481Z</time>
      </trkpt>
      <trkpt lat="45.655283" lon="10.385186">
        <ele>322.417927</ele>
        <time>2021-01-22T14:10:45.596Z</time>
      </trkpt>
      <trkpt lat="45.655331" lon="10.385221">
        <ele>322.557402</ele>
        <time>2021-01-22T14:10:46.744Z</time>
      </trkpt>
      <trkpt lat="45.655458" lon="10.385318">
        <ele>322.930108</ele>
        <time>2021-01-22T14:10:50.212Z</time>
      </trkpt>
      <trkpt lat="45.656026" lon="10.385722">
        <ele>324.572284</ele>
        <time>2021-01-22T14:11:07.090Z</time>
      </trkpt>
      <trkpt lat="45.656305" lon="10.385789">
        <ele>325.304682</ele>
        <time>2021-01-22T14:11:15.485Z</time>
      </trkpt>
      <trkpt lat="45.657913" lon="10.385555">
        <ele>329.425921</ele>
        <time>2021-01-22T14:11:59.187Z</time>
      </trkpt>
      <trkpt lat="45.658073" lon="10.385587">
        <ele>329.835445</ele>
        <time>2021-01-22T14:12:02.955Z</time>
      </trkpt>
      <trkpt lat="45.658181" lon="10.385744">
        <ele>330.225729</ele>
        <time>2021-01-22T14:12:06.458Z</time>
      </trkpt>
      <trkpt lat="45.658185" lon="10.385947">
        <ele>330.585531</ele>
        <time>2021-01-22T14:12:09.513Z</time>
      </trkpt>
      <trkpt lat="45.658091" lon="10.386130">
        <ele>330.987897</ele>
        <time>2021-01-22T14:12:12.844Z</time>
      </trkpt>
      <trkpt lat="45.657522" lon="10.386216">
        <ele>331.649389</ele>
        <time>2021-01-22T14:12:23.560Z</time>
      </trkpt>
      <trkpt lat="45.657196" lon="10.386472">
        <ele>332.067414</ele>
        <time>2021-01-22T14:12:30.054Z</time>
      </trkpt>
      <trkpt lat="45.656810" lon="10.386967">
        <ele>332.650102</ele>
        <time>2021-01-22T14:12:39.317Z</time>
      </trkpt>
      <trkpt lat="45.656613" lon="10.387417">
        <ele>333.129135</ele>
        <time>2021-01-22T14:12:46.469Z</time>
      </trkpt>
      <trkpt lat="45.656540" lon="10.388188">
        <ele>335.275797</ele>
        <time>2021-01-22T14:12:59.070Z</time>
      </trkpt>
      <trkpt lat="45.656608" lon="10.388364">
        <ele>335.830642</ele>
        <time>2021-01-22T14:13:02.796Z</time>
      </trkpt>
      <trkpt lat="45.657003" lon="10.388940">
        <ele>338.057019</ele>
        <time>2021-01-22T14:13:20.343Z</time>
      </trkpt>
      <trkpt lat="45.657071" lon="10.389177">
        <ele>338.763861</ele>
        <time>2021-01-22T14:13:26.737Z</time>
      </trkpt>
      <trkpt lat="45.657404" lon="10.389670">
        <ele>341.125985</ele>
        <time>2021-01-22T14:13:45.934Z</time>
      </trkpt>
      <trkpt lat="45.657522" lon="10.389735">
        <ele>342.083112</ele>
        <time>2021-01-22T14:13:51.317Z</time>
      </trkpt>
      <trkpt lat="45.659111" lon="10.389778">
        <ele>354.080476</ele>
        <time>2021-01-22T14:15:05.689Z</time>
      </trkpt>
      <trkpt lat="45.659962" lon="10.389971">
        <ele>360.000100</ele>
        <time>2021-01-22T14:15:45.073Z</time>
      </trkpt>
      <trkpt lat="45.660604" lon="10.390202">
        <ele>364.548167</ele>
        <time>2021-01-22T14:16:12.304Z</time>
      </trkpt>
      <trkpt lat="45.660866" lon="10.390376">
        <ele>366.345130</ele>
        <time>2021-01-22T14:16:23.154Z</time>
      </trkpt>
      <trkpt lat="45.661694" lon="10.391252">
        <ele>370.244835</ele>
        <time>2021-01-22T14:16:56.749Z</time>
      </trkpt>
      <trkpt lat="45.662673" lon="10.392058">
        <ele>373.544498</ele>
        <time>2021-01-22T14:17:23.904Z</time>
      </trkpt>
      <trkpt lat="45.663750" lon="10.392214">
        <ele>375.132528</ele>
        <time>2021-01-22T14:17:44.624Z</time>
      </trkpt>
      <trkpt lat="45.663909" lon="10.392258">
        <ele>375.370103</ele>
        <time>2021-01-22T14:17:47.956Z</time>
      </trkpt>
      <trkpt lat="45.663993" lon="10.392237">
        <ele>375.495197</ele>
        <time>2021-01-22T14:17:49.510Z</time>
      </trkpt>
      <trkpt lat="45.664046" lon="10.392224">
        <ele>375.578562</ele>
        <time>2021-01-22T14:17:50.584Z</time>
      </trkpt>
      <trkpt lat="45.664477" lon="10.392038">
        <ele>376.560138</ele>
        <time>2021-01-22T14:17:59.449Z</time>
      </trkpt>
      <trkpt lat="45.664509" lon="10.392039">
        <ele>376.629928</ele>
        <time>2021-01-22T14:18:00.082Z</time>
      </trkpt>
      <trkpt lat="45.664592" lon="10.392043">
        <ele>376.811006</ele>
        <time>2021-01-22T14:18:02.193Z</time>
      </trkpt>
      <trkpt lat="45.664843" lon="10.392172">
        <ele>377.392525</ele>
        <time>2021-01-22T14:18:08.658Z</time>
      </trkpt>
      <trkpt lat="45.664969" lon="10.392316">
        <ele>377.744131</ele>
        <time>2021-01-22T14:18:12.524Z</time>
      </trkpt>
      <trkpt lat="45.665028" lon="10.392406">
        <ele>377.932167</ele>
        <time>2021-01-22T14:18:14.883Z</time>
      </trkpt>
      <trkpt lat="45.665160" lon="10.392596">
        <ele>378.340408</ele>
        <time>2021-01-22T14:18:20.184Z</time>
      </trkpt>
      <trkpt lat="45.665445" lon="10.393037">
        <ele>379.255688</ele>
        <time>2021-01-22T14:18:30.491Z</time>
      </trkpt>
      <trkpt lat="45.665681" lon="10.393173">
        <ele>379.711676</ele>
        <time>2021-01-22T14:18:37.154Z</time>
      </trkpt>
      <trkpt lat="45.665890" lon="10.393173">
        <ele>380.028378</ele>
        <time>2021-01-22T14:18:42.085Z</time>
      </trkpt>
      <trkpt lat="45.665987" lon="10.393209">
        <ele>380.180227</ele>
        <time>2021-01-22T14:18:44.933Z</time>
      </trkpt>
      <trkpt lat="45.666137" lon="10.393308">
        <ele>380.430537</ele>
        <time>2021-01-22T14:18:48.303Z</time>
      </trkpt>
      <trkpt lat="45.666408" lon="10.393445">
        <ele>380.866062</ele>
        <time>2021-01-22T14:18:55.246Z</time>
      </trkpt>
      <trkpt lat="45.666426" lon="10.393490">
        <ele>380.920969</ele>
        <time>2021-01-22T14:18:55.668Z</time>
      </trkpt>
      <trkpt lat="45.667248" lon="10.394946">
        <ele>382.730267</ele>
        <time>2021-01-22T14:19:19.080Z</time>
      </trkpt>
      <trkpt lat="45.667381" lon="10.395101">
        <ele>382.925173</ele>
        <time>2021-01-22T14:19:21.495Z</time>
      </trkpt>
      <trkpt lat="45.667553" lon="10.395309">
        <ele>383.181060</ele>
        <time>2021-01-22T14:19:25.091Z</time>
      </trkpt>
      <trkpt lat="45.667724" lon="10.395531">
        <ele>383.443416</ele>
        <time>2021-01-22T14:19:29.106Z</time>
      </trkpt>
      <trkpt lat="45.667809" lon="10.395741">
        <ele>383.636121</ele>
        <time>2021-01-22T14:19:32.211Z</time>
      </trkpt>
      <trkpt lat="45.667883" lon="10.396769">
        <ele>384.330141</ele>
        <time>2021-01-22T14:19:49.942Z</time>
      </trkpt>
      <trkpt lat="45.668031" lon="10.397343">
        <ele>384.509590</ele>
        <time>2021-01-22T14:19:59.815Z</time>
      </trkpt>
      <trkpt lat="45.668254" lon="10.397637">
        <ele>384.636853</ele>
        <time>2021-01-22T14:20:06.526Z</time>
      </trkpt>
      <trkpt lat="45.668513" lon="10.397774">
        <ele>384.752747</ele>
        <time>2021-01-22T14:20:12.033Z</time>
      </trkpt>
      <trkpt lat="45.668866" lon="10.397872">
        <ele>384.903669</ele>
        <time>2021-01-22T14:20:17.395Z</time>
      </trkpt>
      <trkpt lat="45.669131" lon="10.397913">
        <ele>384.938283</ele>
        <time>2021-01-22T14:20:20.492Z</time>
      </trkpt>
      <trkpt lat="45.670237" lon="10.397884">
        <ele>377.664886</ele>
        <time>2021-01-22T14:20:30.756Z</time>
      </trkpt>
      <trkpt lat="45.670513" lon="10.397995">
        <ele>375.779826</ele>
        <time>2021-01-22T14:20:33.238Z</time>
      </trkpt>
      <trkpt lat="45.670721" lon="10.398165">
        <ele>374.204852</ele>
        <time>2021-01-22T14:20:35.312Z</time>
      </trkpt>
      <trkpt lat="45.670869" lon="10.398327">
        <ele>372.875881</ele>
        <time>2021-01-22T14:20:36.911Z</time>
      </trkpt>
      <trkpt lat="45.671017" lon="10.398477">
        <ele>371.078836</ele>
        <time>2021-01-22T14:20:38.484Z</time>
      </trkpt>
      <trkpt lat="45.671243" lon="10.398558">
        <ele>368.770272</ele>
        <time>2021-01-22T14:20:40.474Z</time>
      </trkpt>
      <trkpt lat="45.671520" lon="10.398293">
        <ele>365.468694</ele>
        <time>2021-01-22T14:20:43.335Z</time>
      </trkpt>
      <trkpt lat="45.671621" lon="10.398285">
        <ele>364.466368</ele>
        <time>2021-01-22T14:20:44.209Z</time>
      </trkpt>
      <trkpt lat="45.671705" lon="10.398365">
        <ele>363.466557</ele>
        <time>2021-01-22T14:20:45.069Z</time>
      </trkpt>
      <trkpt lat="45.671906" lon="10.398782">
        <ele>359.958951</ele>
        <time>2021-01-22T14:20:48.099Z</time>
      </trkpt>
      <trkpt lat="45.672026" lon="10.398907">
        <ele>358.488253</ele>
        <time>2021-01-22T14:20:49.358Z</time>
      </trkpt>
      <trkpt lat="45.672588" lon="10.399003">
        <ele>353.609409</ele>
        <time>2021-01-22T14:20:54.319Z</time>
      </trkpt>
      <trkpt lat="45.672662" lon="10.399184">
        <ele>352.584167</ele>
        <time>2021-01-22T14:20:55.622Z</time>
      </trkpt>
      <trkpt lat="45.672819" lon="10.399951">
        <ele>348.676756</ele>
        <time>2021-01-22T14:21:00.611Z</time>
      </trkpt>
      <trkpt lat="45.672975" lon="10.400273">
        <ele>346.761148</ele>
        <time>2021-01-22T14:21:03.072Z</time>
      </trkpt>
      <trkpt lat="45.673979" lon="10.401126">
        <ele>340.415361</ele>
        <time>2021-01-22T14:21:14.046Z</time>
      </trkpt>
      <trkpt lat="45.674227" lon="10.401161">
        <ele>339.431371</ele>
        <time>2021-01-22T14:21:16.530Z</time>
      </trkpt>
      <trkpt lat="45.674323" lon="10.401080">
        <ele>338.991338</ele>
        <time>2021-01-22T14:21:17.673Z</time>
      </trkpt>
      <trkpt lat="45.674496" lon="10.400714">
        <ele>337.772199</ele>
        <time>2021-01-22T14:21:20.818Z</time>
      </trkpt>
      <trkpt lat="45.674622" lon="10.400636">
        <ele>337.230133</ele>
        <time>2021-01-22T14:21:22.215Z</time>
      </trkpt>
      <trkpt lat="45.674736" lon="10.400679">
        <ele>336.764628</ele>
        <time>2021-01-22T14:21:23.400Z</time>
      </trkpt>
      <trkpt lat="45.675095" lon="10.401004">
        <ele>335.176921</ele>
        <time>2021-01-22T14:21:27.666Z</time>
      </trkpt>
      <trkpt lat="45.675503" lon="10.401233">
        <ele>333.710117</ele>
        <time>2021-01-22T14:21:32.065Z</time>
      </trkpt>
      <trkpt lat="45.676432" lon="10.401392">
        <ele>330.578668</ele>
        <time>2021-01-22T14:21:41.505Z</time>
      </trkpt>
      <trkpt lat="45.676521" lon="10.401549">
        <ele>330.105880</ele>
        <time>2021-01-22T14:21:42.919Z</time>
      </trkpt>
      <trkpt lat="45.676437" lon="10.401821">
        <ele>329.413478</ele>
        <time>2021-01-22T14:21:44.999Z</time>
      </trkpt>
      <trkpt lat="45.676282" lon="10.401867">
        <ele>328.890238</ele>
        <time>2021-01-22T14:21:46.599Z</time>
      </trkpt>
      <trkpt lat="45.675526" lon="10.401819">
        <ele>326.388878</ele>
        <time>2021-01-22T14:21:54.182Z</time>
      </trkpt>
      <trkpt lat="45.675017" lon="10.401806">
        <ele>324.706148</ele>
        <time>2021-01-22T14:21:59.351Z</time>
      </trkpt>
      <trkpt lat="45.674901" lon="10.401803">
        <ele>324.322656</ele>
        <time>2021-01-22T14:22:00.566Z</time>
      </trkpt>
      <trkpt lat="45.674444" lon="10.401818">
        <ele>322.541286</ele>
        <time>2021-01-22T14:22:05.186Z</time>
      </trkpt>
      <trkpt lat="45.674009" lon="10.401850">
        <ele>320.668275</ele>
        <time>2021-01-22T14:22:09.510Z</time>
      </trkpt>
      <trkpt lat="45.673966" lon="10.401925">
        <ele>320.376776</ele>
        <time>2021-01-22T14:22:10.176Z</time>
      </trkpt>
      <trkpt lat="45.673981" lon="10.402000">
        <ele>320.142378</ele>
        <time>2021-01-22T14:22:10.724Z</time>
      </trkpt>
      <trkpt lat="45.674056" lon="10.402086">
        <ele>319.729121</ele>
        <time>2021-01-22T14:22:11.681Z</time>
      </trkpt>
      <trkpt lat="45.674360" lon="10.402153">
        <ele>318.406482</ele>
        <time>2021-01-22T14:22:14.661Z</time>
      </trkpt>
      <trkpt lat="45.674537" lon="10.402302">
        <ele>317.523462</ele>
        <time>2021-01-22T14:22:16.612Z</time>
      </trkpt>
      <trkpt lat="45.675307" lon="10.403535">
        <ele>310.516120</ele>
        <time>2021-01-22T14:22:27.247Z</time>
      </trkpt>
      <trkpt lat="45.675650" lon="10.404077">
        <ele>307.009714</ele>
        <time>2021-01-22T14:22:31.819Z</time>
      </trkpt>
      <trkpt lat="45.676176" lon="10.404912">
        <ele>301.452944</ele>
        <time>2021-01-22T14:22:38.763Z</time>
      </trkpt>
      <trkpt lat="45.676226" lon="10.404993">
        <ele>300.891970</ele>
        <time>2021-01-22T14:22:39.425Z</time>
      </trkpt>
      <trkpt lat="45.676288" lon="10.405095">
        <ele>300.190274</ele>
        <time>2021-01-22T14:22:40.251Z</time>
      </trkpt>
      <trkpt lat="45.676742" lon="10.405829">
        <ele>295.102398</ele>
        <time>2021-01-22T14:22:46.319Z</time>
      </trkpt>
      <trkpt lat="45.676790" lon="10.405907">
        <ele>294.562932</ele>
        <time>2021-01-22T14:22:46.973Z</time>
      </trkpt>
      <trkpt lat="45.677257" lon="10.406635">
        <ele>289.891426</ele>
        <time>2021-01-22T14:22:53.200Z</time>
      </trkpt>
      <trkpt lat="45.677443" lon="10.407073">
        <ele>288.684314</ele>
        <time>2021-01-22T14:22:56.546Z</time>
      </trkpt>
      <trkpt lat="45.677550" lon="10.407566">
        <ele>287.468528</ele>
        <time>2021-01-22T14:23:00.054Z</time>
      </trkpt>
      <trkpt lat="45.677605" lon="10.407982">
        <ele>286.471427</ele>
        <time>2021-01-22T14:23:03.057Z</time>
      </trkpt>
      <trkpt lat="45.678460" lon="10.407811">
        <ele>284.483292</ele>
        <time>2021-01-22T14:23:17.486Z</time>
      </trkpt>
      <trkpt lat="45.678647" lon="10.407921">
        <ele>284.771785</ele>
        <time>2021-01-22T14:23:21.838Z</time>
      </trkpt>
      <trkpt lat="45.679002" lon="10.408200">
        <ele>285.349688</ele>
        <time>2021-01-22T14:23:32.248Z</time>
      </trkpt>
      <trkpt lat="45.679193" lon="10.408139">
        <ele>285.628933</ele>
        <time>2021-01-22T14:23:38.140Z</time>
      </trkpt>
      <trkpt lat="45.679330" lon="10.408705">
        <ele>286.226115</ele>
        <time>2021-01-22T14:23:50.908Z</time>
      </trkpt>
      <trkpt lat="45.679341" lon="10.409299">
        <ele>286.822343</ele>
        <time>2021-01-22T14:24:04.347Z</time>
      </trkpt>
      <trkpt lat="45.679345" lon="10.409460">
        <ele>286.997301</ele>
        <time>2021-01-22T14:24:07.991Z</time>
      </trkpt>
      <trkpt lat="45.679870" lon="10.409394">
        <ele>287.816495</ele>
        <time>2021-01-22T14:24:19.420Z</time>
      </trkpt>
      <trkpt lat="45.680249" lon="10.409266">
        <ele>288.421784</ele>
        <time>2021-01-22T14:24:27.544Z</time>
      </trkpt>
      <trkpt lat="45.680345" lon="10.409185">
        <ele>288.595003</ele>
        <time>2021-01-22T14:24:30.570Z</time>
      </trkpt>
      <trkpt lat="45.680497" lon="10.409056">
        <ele>288.869681</ele>
        <time>2021-01-22T14:24:33.936Z</time>
      </trkpt>
      <trkpt lat="45.680582" lon="10.408934">
        <ele>289.056790</ele>
        <time>2021-01-22T14:24:36.395Z</time>
      </trkpt>
      <trkpt lat="45.680834" lon="10.408651">
        <ele>289.554672</ele>
        <time>2021-01-22T14:24:41.848Z</time>
      </trkpt>
      <trkpt lat="45.681233" lon="10.408105">
        <ele>289.714754</ele>
        <time>2021-01-22T14:24:50.510Z</time>
      </trkpt>
      <trkpt lat="45.681571" lon="10.407643">
        <ele>289.838508</ele>
        <time>2021-01-22T14:24:56.909Z</time>
      </trkpt>
      <trkpt lat="45.682105" lon="10.406870">
        <ele>290.039613</ele>
        <time>2021-01-22T14:25:07.924Z</time>
      </trkpt>
      <trkpt lat="45.682189" lon="10.406701">
        <ele>290.305088</ele>
        <time>2021-01-22T14:25:10.903Z</time>
      </trkpt>
      <trkpt lat="45.682272" lon="10.406482">
        <ele>290.696966</ele>
        <time>2021-01-22T14:25:14.132Z</time>
      </trkpt>
      <trkpt lat="45.682663" lon="10.404888">
        <ele>293.354146</ele>
        <time>2021-01-22T14:25:43.046Z</time>
      </trkpt>
      <trkpt lat="45.683399" lon="10.403591">
        <ele>296.802456</ele>
        <time>2021-01-22T14:26:17.113Z</time>
      </trkpt>
      <trkpt lat="45.685413" lon="10.402833">
        <ele>301.345775</ele>
        <time>2021-01-22T14:27:13.054Z</time>
      </trkpt>
      <trkpt lat="45.687591" lon="10.401032">
        <ele>299.202199</ele>
        <time>2021-01-22T14:27:42.046Z</time>
      </trkpt>
      <trkpt lat="45.688361" lon="10.400638">
        <ele>297.855643</ele>
        <time>2021-01-22T14:27:50.445Z</time>
      </trkpt>
      <trkpt lat="45.688480" lon="10.400417">
        <ele>297.534658</ele>
        <time>2021-01-22T14:27:52.591Z</time>
      </trkpt>
      <trkpt lat="45.688474" lon="10.400355">
        <ele>297.462655</ele>
        <time>2021-01-22T14:27:53.008Z</time>
      </trkpt>
      <trkpt lat="45.688421" lon="10.400048">
        <ele>297.098876</ele>
        <time>2021-01-22T14:27:55.541Z</time>
      </trkpt>
      <trkpt lat="45.688423" lon="10.399932">
        <ele>296.965395</ele>
        <time>2021-01-22T14:27:56.467Z</time>
      </trkpt>
      <trkpt lat="45.688476" lon="10.399681">
        <ele>296.663757</ele>
        <time>2021-01-22T14:27:58.537Z</time>
      </trkpt>
      <trkpt lat="45.688608" lon="10.399509">
        <ele>296.369823</ele>
        <time>2021-01-22T14:28:00.699Z</time>
      </trkpt>
      <trkpt lat="45.689927" lon="10.398522">
        <ele>299.170193</ele>
        <time>2021-01-22T14:28:33.040Z</time>
      </trkpt>
      <trkpt lat="45.690095" lon="10.398215">
        <ele>299.708948</ele>
        <time>2021-01-22T14:28:42.251Z</time>
      </trkpt>
      <trkpt lat="45.690153" lon="10.397959">
        <ele>300.230298</ele>
        <time>2021-01-22T14:28:49.170Z</time>
      </trkpt>
      <trkpt lat="45.690249" lon="10.397541">
        <ele>301.253631</ele>
        <time>2021-01-22T14:28:58.056Z</time>
      </trkpt>
      <trkpt lat="45.690380" lon="10.397167">
        <ele>302.226662</ele>
        <time>2021-01-22T14:29:06.346Z</time>
      </trkpt>
      <trkpt lat="45.690625" lon="10.396733">
        <ele>303.524404</ele>
        <time>2021-01-22T14:29:17.191Z</time>
      </trkpt>
      <trkpt lat="45.690700" lon="10.396641">
        <ele>303.853237</ele>
        <time>2021-01-22T14:29:20.911Z</time>
      </trkpt>
      <trkpt lat="45.690700" lon="10.396641">
        <ele>303.853237</ele>
        <time>2021-01-22T14:29:20.929Z</time>
      </trkpt>
      <trkpt lat="45.691190" lon="10.396009">
        <ele>305.921755</ele>
        <time>2021-01-22T14:29:39.848Z</time>
      </trkpt>
      <trkpt lat="45.691506" lon="10.395632">
        <ele>306.414114</ele>
        <time>2021-01-22T14:29:49.806Z</time>
      </trkpt>
      <trkpt lat="45.691775" lon="10.395115">
        <ele>306.953109</ele>
        <time>2021-01-22T14:29:56.922Z</time>
      </trkpt>
      <trkpt lat="45.692057" lon="10.393794">
        <ele>307.915285</ele>
        <time>2021-01-22T14:30:15.042Z</time>
      </trkpt>
      <trkpt lat="45.692577" lon="10.391907">
        <ele>306.493996</ele>
        <time>2021-01-22T14:30:33.412Z</time>
      </trkpt>
      <trkpt lat="45.692799" lon="10.391538">
        <ele>306.071464</ele>
        <time>2021-01-22T14:30:36.824Z</time>
      </trkpt>
      <trkpt lat="45.693270" lon="10.391252">
        <ele>304.655557</ele>
        <time>2021-01-22T14:30:42.110Z</time>
      </trkpt>
      <trkpt lat="45.693386" lon="10.391220">
        <ele>304.328618</ele>
        <time>2021-01-22T14:30:43.152Z</time>
      </trkpt>
      <trkpt lat="45.693848" lon="10.391030">
        <ele>302.998313</ele>
        <time>2021-01-22T14:30:48.044Z</time>
      </trkpt>
      <trkpt lat="45.695558" lon="10.389946">
        <ele>299.915229</ele>
        <time>2021-01-22T14:31:08.772Z</time>
      </trkpt>
      <trkpt lat="45.696846" lon="10.388750">
        <ele>299.795197</ele>
        <time>2021-01-22T14:31:35.118Z</time>
      </trkpt>
      <trkpt lat="45.697487" lon="10.388595">
        <ele>300.123320</ele>
        <time>2021-01-22T14:31:46.133Z</time>
      </trkpt>
      <trkpt lat="45.698193" lon="10.388449">
        <ele>300.523875</ele>
        <time>2021-01-22T14:31:58.326Z</time>
      </trkpt>
      <trkpt lat="45.698385" lon="10.388410">
        <ele>300.636597</ele>
        <time>2021-01-22T14:32:01.622Z</time>
      </trkpt>
      <trkpt lat="45.698550" lon="10.388399">
        <ele>300.732612</ele>
        <time>2021-01-22T14:32:04.275Z</time>
      </trkpt>
      <trkpt lat="45.698675" lon="10.388405">
        <ele>300.805312</ele>
        <time>2021-01-22T14:32:06.367Z</time>
      </trkpt>
      <trkpt lat="45.698708" lon="10.388444">
        <ele>300.830184</ele>
        <time>2021-01-22T14:32:07.109Z</time>
      </trkpt>
      <trkpt lat="45.698794" lon="10.388467">
        <ele>300.881039</ele>
        <time>2021-01-22T14:32:08.536Z</time>
      </trkpt>
      <trkpt lat="45.698874" lon="10.388405">
        <ele>300.933916</ele>
        <time>2021-01-22T14:32:09.982Z</time>
      </trkpt>
      <trkpt lat="45.698899" lon="10.388349">
        <ele>300.960898</ele>
        <time>2021-01-22T14:32:10.775Z</time>
      </trkpt>
      <trkpt lat="45.699045" lon="10.388278">
        <ele>301.050526</ele>
        <time>2021-01-22T14:32:13.339Z</time>
      </trkpt>
      <trkpt lat="45.699145" lon="10.388232">
        <ele>301.111580</ele>
        <time>2021-01-22T14:32:15.041Z</time>
      </trkpt>
      <trkpt lat="45.700380" lon="10.387944">
        <ele>302.830238</ele>
        <time>2021-01-22T14:32:38.012Z</time>
      </trkpt>
      <trkpt lat="45.700942" lon="10.387813">
        <ele>303.729658</ele>
        <time>2021-01-22T14:32:49.651Z</time>
      </trkpt>
      <trkpt lat="45.701159" lon="10.387769">
        <ele>304.075850</ele>
        <time>2021-01-22T14:32:55.931Z</time>
      </trkpt>
      <trkpt lat="45.701365" lon="10.387682">
        <ele>304.993850</ele>
        <time>2021-01-22T14:33:01.754Z</time>
      </trkpt>
      <trkpt lat="45.701509" lon="10.387594">
        <ele>305.699526</ele>
        <time>2021-01-22T14:33:07.561Z</time>
      </trkpt>
      <trkpt lat="45.701693" lon="10.387467">
        <ele>306.620174</ele>
        <time>2021-01-22T14:33:13.783Z</time>
      </trkpt>
      <trkpt lat="45.701856" lon="10.387311">
        <ele>307.503847</ele>
        <time>2021-01-22T14:33:21.341Z</time>
      </trkpt>
      <trkpt lat="45.701988" lon="10.387201">
        <ele>308.192219</ele>
        <time>2021-01-22T14:33:25.978Z</time>
      </trkpt>
      <trkpt lat="45.702087" lon="10.387124">
        <ele>308.700011</ele>
        <time>2021-01-22T14:33:30.805Z</time>
      </trkpt>
      <trkpt lat="45.702126" lon="10.387120">
        <ele>308.876242</ele>
        <time>2021-01-22T14:33:32.239Z</time>
      </trkpt>
      <trkpt lat="45.702162" lon="10.387097">
        <ele>309.053919</ele>
        <time>2021-01-22T14:33:33.399Z</time>
      </trkpt>
      <trkpt lat="45.702186" lon="10.387067">
        <ele>309.197512</ele>
        <time>2021-01-22T14:33:34.654Z</time>
      </trkpt>
      <trkpt lat="45.702213" lon="10.386937">
        <ele>309.624434</ele>
        <time>2021-01-22T14:33:37.191Z</time>
      </trkpt>
      <trkpt lat="45.702204" lon="10.386893">
        <ele>309.768753</ele>
        <time>2021-01-22T14:33:38.472Z</time>
      </trkpt>
      <trkpt lat="45.702188" lon="10.386856">
        <ele>309.905739</ele>
        <time>2021-01-22T14:33:39.577Z</time>
      </trkpt>
      <trkpt lat="45.702167" lon="10.386800">
        <ele>310.105819</ele>
        <time>2021-01-22T14:33:42.060Z</time>
      </trkpt>
      <trkpt lat="45.702147" lon="10.386741">
        <ele>310.312258</ele>
        <time>2021-01-22T14:33:43.629Z</time>
      </trkpt>
      <trkpt lat="45.702067" lon="10.386440">
        <ele>311.326028</ele>
        <time>2021-01-22T14:33:50.725Z</time>
      </trkpt>
      <trkpt lat="45.702018" lon="10.386208">
        <ele>312.088976</ele>
        <time>2021-01-22T14:33:57.562Z</time>
      </trkpt>
      <trkpt lat="45.701900" lon="10.385727">
        <ele>313.041747</ele>
        <time>2021-01-22T14:34:09.141Z</time>
      </trkpt>
      <trkpt lat="45.701638" lon="10.384689">
        <ele>314.989654</ele>
        <time>2021-01-22T14:34:30.831Z</time>
      </trkpt>
      <trkpt lat="45.701603" lon="10.384270">
        <ele>315.734407</ele>
        <time>2021-01-22T14:34:37.411Z</time>
      </trkpt>
      <trkpt lat="45.701696" lon="10.383962">
        <ele>316.326617</ele>
        <time>2021-01-22T14:34:41.478Z</time>
      </trkpt>
      <trkpt lat="45.702268" lon="10.383347">
        <ele>316.274566</ele>
        <time>2021-01-22T14:34:50.611Z</time>
      </trkpt>
      <trkpt lat="45.702396" lon="10.383115">
        <ele>316.092850</ele>
        <time>2021-01-22T14:34:52.899Z</time>
      </trkpt>
      <trkpt lat="45.702524" lon="10.382840">
        <ele>315.889734</ele>
        <time>2021-01-22T14:34:55.786Z</time>
      </trkpt>
      <trkpt lat="45.702930" lon="10.381730">
        <ele>315.198284</ele>
        <time>2021-01-22T14:35:06.062Z</time>
      </trkpt>
      <trkpt lat="45.703042" lon="10.381544">
        <ele>315.273907</ele>
        <time>2021-01-22T14:35:08.334Z</time>
      </trkpt>
      <trkpt lat="45.703138" lon="10.381379">
        <ele>315.340035</ele>
        <time>2021-01-22T14:35:10.058Z</time>
      </trkpt>
      <trkpt lat="45.703255" lon="10.381037">
        <ele>315.457300</ele>
        <time>2021-01-22T14:35:14.399Z</time>
      </trkpt>
      <trkpt lat="45.703254" lon="10.380473">
        <ele>315.630967</ele>
        <time>2021-01-22T14:35:20.872Z</time>
      </trkpt>
      <trkpt lat="45.703179" lon="10.379994">
        <ele>315.782122</ele>
        <time>2021-01-22T14:35:27.096Z</time>
      </trkpt>
      <trkpt lat="45.703139" lon="10.379738">
        <ele>315.862898</ele>
        <time>2021-01-22T14:35:30.738Z</time>
      </trkpt>
      <trkpt lat="45.702891" lon="10.378732">
        <ele>317.163181</ele>
        <time>2021-01-22T14:35:47.493Z</time>
      </trkpt>
      <trkpt lat="45.701165" lon="10.375950">
        <ele>322.352791</ele>
        <time>2021-01-22T14:36:53.318Z</time>
      </trkpt>
      <trkpt lat="45.701044" lon="10.375723">
        <ele>322.685259</ele>
        <time>2021-01-22T14:36:56.328Z</time>
      </trkpt>
      <trkpt lat="45.700894" lon="10.375164">
        <ele>323.009249</ele>
        <time>2021-01-22T14:37:01.833Z</time>
      </trkpt>
      <trkpt lat="45.700850" lon="10.374889">
        <ele>322.782994</ele>
        <time>2021-01-22T14:37:04.302Z</time>
      </trkpt>
      <trkpt lat="45.700848" lon="10.374641">
        <ele>322.584094</ele>
        <time>2021-01-22T14:37:06.312Z</time>
      </trkpt>
      <trkpt lat="45.701048" lon="10.373293">
        <ele>321.478920</ele>
        <time>2021-01-22T14:37:17.187Z</time>
      </trkpt>
      <trkpt lat="45.701075" lon="10.372780">
        <ele>321.102176</ele>
        <time>2021-01-22T14:37:21.146Z</time>
      </trkpt>
      <trkpt lat="45.700732" lon="10.370974">
        <ele>321.407358</ele>
        <time>2021-01-22T14:37:41.872Z</time>
      </trkpt>
      <trkpt lat="45.700816" lon="10.370689">
        <ele>321.457799</ele>
        <time>2021-01-22T14:37:45.951Z</time>
      </trkpt>
      <trkpt lat="45.701200" lon="10.369946">
        <ele>322.258330</ele>
        <time>2021-01-22T14:37:58.764Z</time>
      </trkpt>
      <trkpt lat="45.701372" lon="10.369062">
        <ele>323.459641</ele>
        <time>2021-01-22T14:38:12.581Z</time>
      </trkpt>
      <trkpt lat="45.701348" lon="10.368643">
        <ele>324.009992</ele>
        <time>2021-01-22T14:38:19.404Z</time>
      </trkpt>
      <trkpt lat="45.701012" lon="10.367709">
        <ele>325.690033</ele>
        <time>2021-01-22T14:38:37.730Z</time>
      </trkpt>
      <trkpt lat="45.700986" lon="10.367165">
        <ele>326.840656</ele>
        <time>2021-01-22T14:38:48.025Z</time>
      </trkpt>
      <trkpt lat="45.701023" lon="10.366807">
        <ele>327.604327</ele>
        <time>2021-01-22T14:38:55.044Z</time>
      </trkpt>
      <trkpt lat="45.701470" lon="10.365194">
        <ele>330.886884</ele>
        <time>2021-01-22T14:39:29.301Z</time>
      </trkpt>
      <trkpt lat="45.701456" lon="10.363737">
        <ele>332.726486</ele>
        <time>2021-01-22T14:39:51.709Z</time>
      </trkpt>
      <trkpt lat="45.701527" lon="10.363445">
        <ele>333.116832</ele>
        <time>2021-01-22T14:39:55.597Z</time>
      </trkpt>
      <trkpt lat="45.701608" lon="10.363292">
        <ele>333.359215</ele>
        <time>2021-01-22T14:39:58.087Z</time>
      </trkpt>
      <trkpt lat="45.701742" lon="10.363099">
        <ele>333.609744</ele>
        <time>2021-01-22T14:40:01.417Z</time>
      </trkpt>
      <trkpt lat="45.701975" lon="10.362733">
        <ele>333.785596</ele>
        <time>2021-01-22T14:40:07.313Z</time>
      </trkpt>
      <trkpt lat="45.702207" lon="10.362079">
        <ele>334.046061</ele>
        <time>2021-01-22T14:40:15.656Z</time>
      </trkpt>
      <trkpt lat="45.702338" lon="10.361511">
        <ele>334.258461</ele>
        <time>2021-01-22T14:40:21.916Z</time>
      </trkpt>
      <trkpt lat="45.702493" lon="10.361688">
        <ele>334.359261</ele>
        <time>2021-01-22T14:40:26.057Z</time>
      </trkpt>
      <trkpt lat="45.702685" lon="10.362232">
        <ele>334.807404</ele>
        <time>2021-01-22T14:40:35.832Z</time>
      </trkpt>
      <trkpt lat="45.702743" lon="10.362222">
        <ele>334.915431</ele>
        <time>2021-01-22T14:40:37.230Z</time>
      </trkpt>
      <trkpt lat="45.702767" lon="10.362109">
        <ele>335.067962</ele>
        <time>2021-01-22T14:40:39.296Z</time>
      </trkpt>
      <trkpt lat="45.702653" lon="10.361677">
        <ele>335.664360</ele>
        <time>2021-01-22T14:40:47.482Z</time>
      </trkpt>
      <trkpt lat="45.702645" lon="10.361083">
        <ele>336.431616</ele>
        <time>2021-01-22T14:40:58.715Z</time>
      </trkpt>
      <trkpt lat="45.702676" lon="10.360838">
        <ele>336.753168</ele>
        <time>2021-01-22T14:41:03.617Z</time>
      </trkpt>
      <trkpt lat="45.702763" lon="10.360815">
        <ele>336.916766</ele>
        <time>2021-01-22T14:41:06.079Z</time>
      </trkpt>
      <trkpt lat="45.702824" lon="10.360990">
        <ele>337.169353</ele>
        <time>2021-01-22T14:41:09.976Z</time>
      </trkpt>
      <trkpt lat="45.702856" lon="10.361365">
        <ele>337.657241</ele>
        <time>2021-01-22T14:41:17.969Z</time>
      </trkpt>
      <trkpt lat="45.703033" lon="10.362019">
        <ele>340.533231</ele>
        <time>2021-01-22T14:41:34.725Z</time>
      </trkpt>
      <trkpt lat="45.703131" lon="10.362138">
        <ele>341.395688</ele>
        <time>2021-01-22T14:41:39.722Z</time>
      </trkpt>
      <trkpt lat="45.703267" lon="10.362120">
        <ele>342.312416</ele>
        <time>2021-01-22T14:41:45.514Z</time>
      </trkpt>
      <trkpt lat="45.703272" lon="10.362020">
        <ele>342.782367</ele>
        <time>2021-01-22T14:41:48.338Z</time>
      </trkpt>
      <trkpt lat="45.703122" lon="10.361845">
        <ele>344.081048</ele>
        <time>2021-01-22T14:41:57.224Z</time>
      </trkpt>
      <trkpt lat="45.703119" lon="10.361728">
        <ele>344.629858</ele>
        <time>2021-01-22T14:42:01.119Z</time>
      </trkpt>
      <trkpt lat="45.703357" lon="10.361707">
        <ele>346.230352</ele>
        <time>2021-01-22T14:42:13.022Z</time>
      </trkpt>
      <trkpt lat="45.703367" lon="10.361629">
        <ele>346.602088</ele>
        <time>2021-01-22T14:42:16.238Z</time>
      </trkpt>
      <trkpt lat="45.703166" lon="10.361440">
        <ele>348.216092</ele>
        <time>2021-01-22T14:42:29.246Z</time>
      </trkpt>
      <trkpt lat="45.703119" lon="10.361317">
        <ele>348.873318</ele>
        <time>2021-01-22T14:42:35.394Z</time>
      </trkpt>
      <trkpt lat="45.703119" lon="10.360917">
        <ele>351.664991</ele>
        <time>2021-01-22T14:42:52.450Z</time>
      </trkpt>
      <trkpt lat="45.703194" lon="10.360894">
        <ele>352.727315</ele>
        <time>2021-01-22T14:42:57.877Z</time>
      </trkpt>
      <trkpt lat="45.703265" lon="10.361164">
        <ele>355.517934</ele>
        <time>2021-01-22T14:43:11.365Z</time>
      </trkpt>
      <trkpt lat="45.703327" lon="10.361233">
        <ele>356.605514</ele>
        <time>2021-01-22T14:43:16.844Z</time>
      </trkpt>
      <trkpt lat="45.703375" lon="10.361194">
        <ele>357.369896</ele>
        <time>2021-01-22T14:43:21.092Z</time>
      </trkpt>
      <trkpt lat="45.703376" lon="10.360871">
        <ele>360.494187</ele>
        <time>2021-01-22T14:43:37.742Z</time>
      </trkpt>
      <trkpt lat="45.703495" lon="10.360670">
        <ele>363.042989</ele>
        <time>2021-01-22T14:43:52.390Z</time>
      </trkpt>
      <trkpt lat="45.703935" lon="10.360400">
        <ele>369.673111</ele>
        <time>2021-01-22T14:44:31.432Z</time>
      </trkpt>
      <trkpt lat="45.704403" lon="10.360235">
        <ele>376.572135</ele>
        <time>2021-01-22T14:45:12.325Z</time>
      </trkpt>
      <trkpt lat="45.704592" lon="10.360031">
        <ele>380.322763</ele>
        <time>2021-01-22T14:45:32.754Z</time>
      </trkpt>
      <trkpt lat="45.704569" lon="10.359101">
        <ele>390.621312</ele>
        <time>2021-01-22T14:46:28.689Z</time>
      </trkpt>
      <trkpt lat="45.704611" lon="10.358968">
        <ele>392.236679</ele>
        <time>2021-01-22T14:46:37.285Z</time>
      </trkpt>
      <trkpt lat="45.704676" lon="10.359031">
        <ele>393.480499</ele>
        <time>2021-01-22T14:46:43.890Z</time>
      </trkpt>
      <trkpt lat="45.704697" lon="10.359451">
        <ele>398.140432</ele>
        <time>2021-01-22T14:47:08.044Z</time>
      </trkpt>
      <trkpt lat="45.704828" lon="10.359718">
        <ele>401.751590</ele>
        <time>2021-01-22T14:47:26.491Z</time>
      </trkpt>
      <trkpt lat="45.704916" lon="10.359746">
        <ele>403.180124</ele>
        <time>2021-01-22T14:47:33.752Z</time>
      </trkpt>
      <trkpt lat="45.704960" lon="10.359683">
        <ele>404.151266</ele>
        <time>2021-01-22T14:47:38.743Z</time>
      </trkpt>
      <trkpt lat="45.704869" lon="10.359302">
        <ele>408.530766</ele>
        <time>2021-01-22T14:48:01.487Z</time>
      </trkpt>
      <trkpt lat="45.704946" lon="10.359011">
        <ele>411.915322</ele>
        <time>2021-01-22T14:48:18.939Z</time>
      </trkpt>
      <trkpt lat="45.705019" lon="10.359023">
        <ele>413.059698</ele>
        <time>2021-01-22T14:48:25.161Z</time>
      </trkpt>
      <trkpt lat="45.705151" lon="10.359315">
        <ele>416.842852</ele>
        <time>2021-01-22T14:48:44.988Z</time>
      </trkpt>
      <trkpt lat="45.705268" lon="10.359247">
        <ele>418.809392</ele>
        <time>2021-01-22T14:48:55.662Z</time>
      </trkpt>
      <trkpt lat="45.705201" lon="10.358882">
        <ele>422.914042</ele>
        <time>2021-01-22T14:49:17.451Z</time>
      </trkpt>
      <trkpt lat="45.705266" lon="10.358198">
        <ele>430.421902</ele>
        <time>2021-01-22T14:49:58.149Z</time>
      </trkpt>
      <trkpt lat="45.705130" lon="10.357739">
        <ele>436.360725</ele>
        <time>2021-01-22T14:50:27.279Z</time>
      </trkpt>
      <trkpt lat="45.704759" lon="10.357432">
        <ele>443.793840</ele>
        <time>2021-01-22T14:51:03.529Z</time>
      </trkpt>
      <trkpt lat="45.704716" lon="10.357290">
        <ele>445.668855</ele>
        <time>2021-01-22T14:51:12.820Z</time>
      </trkpt>
      <trkpt lat="45.704828" lon="10.357108">
        <ele>448.607572</ele>
        <time>2021-01-22T14:51:28.497Z</time>
      </trkpt>
      <trkpt lat="45.705275" lon="10.357008">
        <ele>456.455796</ele>
        <time>2021-01-22T14:52:11.561Z</time>
      </trkpt>
      <trkpt lat="45.705977" lon="10.356546">
        <ele>469.603116</ele>
        <time>2021-01-22T14:53:25.602Z</time>
      </trkpt>
      <trkpt lat="45.705984" lon="10.356388">
        <ele>471.454432</ele>
        <time>2021-01-22T14:53:35.528Z</time>
      </trkpt>
      <trkpt lat="45.705890" lon="10.356063">
        <ele>475.567943</ele>
        <time>2021-01-22T14:53:57.353Z</time>
      </trkpt>
      <trkpt lat="45.706386" lon="10.355397">
        <ele>486.953626</ele>
        <time>2021-01-22T14:54:55.651Z</time>
      </trkpt>
      <trkpt lat="45.706516" lon="10.355089">
        <ele>491.161991</ele>
        <time>2021-01-22T14:55:16.440Z</time>
      </trkpt>
      <trkpt lat="45.707153" lon="10.355118">
        <ele>499.434477</ele>
        <time>2021-01-22T14:56:06.296Z</time>
      </trkpt>
      <trkpt lat="45.707375" lon="10.355037">
        <ele>502.270272</ele>
        <time>2021-01-22T14:56:22.387Z</time>
      </trkpt>
      <trkpt lat="45.707494" lon="10.354900">
        <ele>504.160307</ele>
        <time>2021-01-22T14:56:32.414Z</time>
      </trkpt>
      <trkpt lat="45.707529" lon="10.354537">
        <ele>507.327876</ele>
        <time>2021-01-22T14:56:48.426Z</time>
      </trkpt>
      <trkpt lat="45.707271" lon="10.354097">
        <ele>512.294270</ele>
        <time>2021-01-22T14:57:12.826Z</time>
      </trkpt>
      <trkpt lat="45.707153" lon="10.353733">
        <ele>515.856598</ele>
        <time>2021-01-22T14:57:30.758Z</time>
      </trkpt>
      <trkpt lat="45.707218" lon="10.353467">
        <ele>518.555155</ele>
        <time>2021-01-22T14:57:44.027Z</time>
      </trkpt>
      <trkpt lat="45.707365" lon="10.353271">
        <ele>521.309336</ele>
        <time>2021-01-22T14:57:57.989Z</time>
      </trkpt>
      <trkpt lat="45.707379" lon="10.353130">
        <ele>522.673074</ele>
        <time>2021-01-22T14:58:04.977Z</time>
      </trkpt>
      <trkpt lat="45.707294" lon="10.352638">
        <ele>527.526305</ele>
        <time>2021-01-22T14:58:30.771Z</time>
      </trkpt>
      <trkpt lat="45.707710" lon="10.352096">
        <ele>535.238293</ele>
        <time>2021-01-22T14:59:15.370Z</time>
      </trkpt>
      <trkpt lat="45.707879" lon="10.351718">
        <ele>539.536123</ele>
        <time>2021-01-22T14:59:41.590Z</time>
      </trkpt>
      <trkpt lat="45.708121" lon="10.351336">
        <ele>544.957365</ele>
        <time>2021-01-22T15:00:12.749Z</time>
      </trkpt>
      <trkpt lat="45.708407" lon="10.351035">
        <ele>550.302092</ele>
        <time>2021-01-22T15:00:44.023Z</time>
      </trkpt>
      <trkpt lat="45.708657" lon="10.350947">
        <ele>554.178768</ele>
        <time>2021-01-22T15:01:06.558Z</time>
      </trkpt>
      <trkpt lat="45.708747" lon="10.350857">
        <ele>555.831760</ele>
        <time>2021-01-22T15:01:15.846Z</time>
      </trkpt>
      <trkpt lat="45.708861" lon="10.350522">
        <ele>559.750442</ele>
        <time>2021-01-22T15:01:37.094Z</time>
      </trkpt>
      <trkpt lat="45.709136" lon="10.350212">
        <ele>565.020600</ele>
        <time>2021-01-22T15:02:03.592Z</time>
      </trkpt>
      <trkpt lat="45.709364" lon="10.350195">
        <ele>567.475346</ele>
        <time>2021-01-22T15:02:19.622Z</time>
      </trkpt>
      <trkpt lat="45.709717" lon="10.350397">
        <ele>570.096043</ele>
        <time>2021-01-22T15:02:43.395Z</time>
      </trkpt>
      <trkpt lat="45.709957" lon="10.350309">
        <ele>571.803987</ele>
        <time>2021-01-22T15:02:56.704Z</time>
      </trkpt>
      <trkpt lat="45.710169" lon="10.350199">
        <ele>573.358500</ele>
        <time>2021-01-22T15:03:06.925Z</time>
      </trkpt>
      <trkpt lat="45.710559" lon="10.349723">
        <ele>576.891179</ele>
        <time>2021-01-22T15:03:25.334Z</time>
      </trkpt>
      <trkpt lat="45.710768" lon="10.349544">
        <ele>578.570048</ele>
        <time>2021-01-22T15:03:31.710Z</time>
      </trkpt>
      <trkpt lat="45.711247" lon="10.349279">
        <ele>581.166398</ele>
        <time>2021-01-22T15:03:47.977Z</time>
      </trkpt>
      <trkpt lat="45.711390" lon="10.349118">
        <ele>582.034313</ele>
        <time>2021-01-22T15:03:55.125Z</time>
      </trkpt>
      <trkpt lat="45.711468" lon="10.348938">
        <ele>582.740119</ele>
        <time>2021-01-22T15:03:58.989Z</time>
      </trkpt>
      <trkpt lat="45.711612" lon="10.348352">
        <ele>584.809875</ele>
        <time>2021-01-22T15:04:16.647Z</time>
      </trkpt>
      <trkpt lat="45.711679" lon="10.347964">
        <ele>586.141521</ele>
        <time>2021-01-22T15:04:27.541Z</time>
      </trkpt>
      <trkpt lat="45.711824" lon="10.347838">
        <ele>586.950770</ele>
        <time>2021-01-22T15:04:36.994Z</time>
      </trkpt>
      <trkpt lat="45.711966" lon="10.347510">
        <ele>588.823649</ele>
        <time>2021-01-22T15:04:49.090Z</time>
      </trkpt>
      <trkpt lat="45.712215" lon="10.347330">
        <ele>591.436374</ele>
        <time>2021-01-22T15:05:02.608Z</time>
      </trkpt>
      <trkpt lat="45.712482" lon="10.347335">
        <ele>593.937623</ele>
        <time>2021-01-22T15:05:20.125Z</time>
      </trkpt>
      <trkpt lat="45.712692" lon="10.347413">
        <ele>595.969810</ele>
        <time>2021-01-22T15:05:35.178Z</time>
      </trkpt>
      <trkpt lat="45.712957" lon="10.347342">
        <ele>598.495176</ele>
        <time>2021-01-22T15:05:49.360Z</time>
      </trkpt>
      <trkpt lat="45.713280" lon="10.346901">
        <ele>602.675383</ele>
        <time>2021-01-22T15:06:19.679Z</time>
      </trkpt>
      <trkpt lat="45.713472" lon="10.346783">
        <ele>604.644790</ele>
        <time>2021-01-22T15:06:30.220Z</time>
      </trkpt>
      <trkpt lat="45.713525" lon="10.346650">
        <ele>605.724758</ele>
        <time>2021-01-22T15:06:35.893Z</time>
      </trkpt>
      <trkpt lat="45.713491" lon="10.346581">
        <ele>606.320341</ele>
        <time>2021-01-22T15:06:41.840Z</time>
      </trkpt>
      <trkpt lat="45.713429" lon="10.346628">
        <ele>607.028862</ele>
        <time>2021-01-22T15:06:44.412Z</time>
      </trkpt>
      <trkpt lat="45.713080" lon="10.346705">
        <ele>610.595386</ele>
        <time>2021-01-22T15:07:04.518Z</time>
      </trkpt>
      <trkpt lat="45.712983" lon="10.346601">
        <ele>611.819227</ele>
        <time>2021-01-22T15:07:10.513Z</time>
      </trkpt>
      <trkpt lat="45.712882" lon="10.346374">
        <ele>613.717521</ele>
        <time>2021-01-22T15:07:22.962Z</time>
      </trkpt>
      <trkpt lat="45.712837" lon="10.345071">
        <ele>622.979640</ele>
        <time>2021-01-22T15:08:17.820Z</time>
      </trkpt>
      <trkpt lat="45.712858" lon="10.344142">
        <ele>630.994577</ele>
        <time>2021-01-22T15:09:03.323Z</time>
      </trkpt>
      <trkpt lat="45.713084" lon="10.343426">
        <ele>637.770127</ele>
        <time>2021-01-22T15:09:40.056Z</time>
      </trkpt>
      <trkpt lat="45.713140" lon="10.343277">
        <ele>639.229240</ele>
        <time>2021-01-22T15:09:51.607Z</time>
      </trkpt>
      <trkpt lat="45.713096" lon="10.343007">
        <ele>641.619998</ele>
        <time>2021-01-22T15:10:04.246Z</time>
      </trkpt>
      <trkpt lat="45.713004" lon="10.342650">
        <ele>644.890022</ele>
        <time>2021-01-22T15:10:25.675Z</time>
      </trkpt>
      <trkpt lat="45.712922" lon="10.341888">
        <ele>649.955250</ele>
        <time>2021-01-22T15:11:03.539Z</time>
      </trkpt>
      <trkpt lat="45.712708" lon="10.341653">
        <ele>652.492511</ele>
        <time>2021-01-22T15:11:20.443Z</time>
      </trkpt>
      <trkpt lat="45.712322" lon="10.341245">
        <ele>657.006359</ele>
        <time>2021-01-22T15:11:48.521Z</time>
      </trkpt>
      <trkpt lat="45.712460" lon="10.341240">
        <ele>658.305187</ele>
        <time>2021-01-22T15:11:53.687Z</time>
      </trkpt>
      <trkpt lat="45.712736" lon="10.341507">
        <ele>661.438949</ele>
        <time>2021-01-22T15:12:07.432Z</time>
      </trkpt>
      <trkpt lat="45.712919" lon="10.341505">
        <ele>662.229905</ele>
        <time>2021-01-22T15:12:14.281Z</time>
      </trkpt>
      <trkpt lat="45.713043" lon="10.341505">
        <ele>662.611853</ele>
        <time>2021-01-22T15:12:20.594Z</time>
      </trkpt>
      <trkpt lat="45.713059" lon="10.341614">
        <ele>662.851411</ele>
        <time>2021-01-22T15:12:22.766Z</time>
      </trkpt>
      <trkpt lat="45.713158" lon="10.341952">
        <ele>663.639739</ele>
        <time>2021-01-22T15:12:33.769Z</time>
      </trkpt>
      <trkpt lat="45.713593" lon="10.343102">
        <ele>666.452726</ele>
        <time>2021-01-22T15:13:00.845Z</time>
      </trkpt>
      <trkpt lat="45.713712" lon="10.343480">
        <ele>667.321288</ele>
        <time>2021-01-22T15:13:07.879Z</time>
      </trkpt>
      <trkpt lat="45.713801" lon="10.343731">
        <ele>667.414892</ele>
        <time>2021-01-22T15:13:11.940Z</time>
      </trkpt>
      <trkpt lat="45.713904" lon="10.343889">
        <ele>667.486765</ele>
        <time>2021-01-22T15:13:15.448Z</time>
      </trkpt>
      <trkpt lat="45.713971" lon="10.343944">
        <ele>667.523540</ele>
        <time>2021-01-22T15:13:17.556Z</time>
      </trkpt>
      <trkpt lat="45.714096" lon="10.344047">
        <ele>667.592215</ele>
        <time>2021-01-22T15:13:20.155Z</time>
      </trkpt>
      <trkpt lat="45.714175" lon="10.344308">
        <ele>667.686801</ele>
        <time>2021-01-22T15:13:25.015Z</time>
      </trkpt>
      <trkpt lat="45.714178" lon="10.344444">
        <ele>667.732044</ele>
        <time>2021-01-22T15:13:26.610Z</time>
      </trkpt>
      <trkpt lat="45.714292" lon="10.344569">
        <ele>667.800415</ele>
        <time>2021-01-22T15:13:29.830Z</time>
      </trkpt>
      <trkpt lat="45.714458" lon="10.344567">
        <ele>667.879467</ele>
        <time>2021-01-22T15:13:33.908Z</time>
      </trkpt>
      <trkpt lat="45.714676" lon="10.344758">
        <ele>668.001165</ele>
        <time>2021-01-22T15:13:39.343Z</time>
      </trkpt>
      <trkpt lat="45.714901" lon="10.344910">
        <ele>668.119632</ele>
        <time>2021-01-22T15:13:44.232Z</time>
      </trkpt>
      <trkpt lat="45.715031" lon="10.344895">
        <ele>668.183371</ele>
        <time>2021-01-22T15:13:47.099Z</time>
      </trkpt>
      <trkpt lat="45.715312" lon="10.344974">
        <ele>668.346947</ele>
        <time>2021-01-22T15:13:52.670Z</time>
      </trkpt>
      <trkpt lat="45.715515" lon="10.345307">
        <ele>668.523258</ele>
        <time>2021-01-22T15:13:59.270Z</time>
      </trkpt>
      <trkpt lat="45.716612" lon="10.346147">
        <ele>669.200613</ele>
        <time>2021-01-22T15:14:28.209Z</time>
      </trkpt>
      <trkpt lat="45.716995" lon="10.346368">
        <ele>669.197974</ele>
        <time>2021-01-22T15:14:38.449Z</time>
      </trkpt>
      <trkpt lat="45.717342" lon="10.346365">
        <ele>669.195756</ele>
        <time>2021-01-22T15:14:46.568Z</time>
      </trkpt>
      <trkpt lat="45.717645" lon="10.346133">
        <ele>669.193560</ele>
        <time>2021-01-22T15:14:53.977Z</time>
      </trkpt>
      <trkpt lat="45.718111" lon="10.346204">
        <ele>669.190565</ele>
        <time>2021-01-22T15:15:02.426Z</time>
      </trkpt>
      <trkpt lat="45.718471" lon="10.346355">
        <ele>668.859415</ele>
        <time>2021-01-22T15:15:08.497Z</time>
      </trkpt>
      <trkpt lat="45.718758" lon="10.346683">
        <ele>668.271404</ele>
        <time>2021-01-22T15:15:14.181Z</time>
      </trkpt>
      <trkpt lat="45.719023" lon="10.346700">
        <ele>667.846587</ele>
        <time>2021-01-22T15:15:18.247Z</time>
      </trkpt>
      <trkpt lat="45.719191" lon="10.346829">
        <ele>667.541314</ele>
        <time>2021-01-22T15:15:21.141Z</time>
      </trkpt>
      <trkpt lat="45.719526" lon="10.347294">
        <ele>666.794222</ele>
        <time>2021-01-22T15:15:28.672Z</time>
      </trkpt>
      <trkpt lat="45.719732" lon="10.347301">
        <ele>666.464224</ele>
        <time>2021-01-22T15:15:32.110Z</time>
      </trkpt>
      <trkpt lat="45.719939" lon="10.347215">
        <ele>666.558368</ele>
        <time>2021-01-22T15:15:36.004Z</time>
      </trkpt>
      <trkpt lat="45.720067" lon="10.347941">
        <ele>667.657568</ele>
        <time>2021-01-22T15:15:46.244Z</time>
      </trkpt>
      <trkpt lat="45.720075" lon="10.349259">
        <ele>669.592417</ele>
        <time>2021-01-22T15:16:13.985Z</time>
      </trkpt>
      <trkpt lat="45.720215" lon="10.349510">
        <ele>670.064023</ele>
        <time>2021-01-22T15:16:23.188Z</time>
      </trkpt>
      <trkpt lat="45.720870" lon="10.349494">
        <ele>674.971883</ele>
        <time>2021-01-22T15:16:54.598Z</time>
      </trkpt>
      <trkpt lat="45.721324" lon="10.349046">
        <ele>679.161167</ele>
        <time>2021-01-22T15:17:23.791Z</time>
      </trkpt>
      <trkpt lat="45.721793" lon="10.348380">
        <ele>684.250589</ele>
        <time>2021-01-22T15:18:01.099Z</time>
      </trkpt>
      <trkpt lat="45.722194" lon="10.348108">
        <ele>688.190693</ele>
        <time>2021-01-22T15:18:25.924Z</time>
      </trkpt>
      <trkpt lat="45.722709" lon="10.347510">
        <ele>694.077999</ele>
        <time>2021-01-22T15:19:02.561Z</time>
      </trkpt>
      <trkpt lat="45.722951" lon="10.347548">
        <ele>696.239908</ele>
        <time>2021-01-22T15:19:15.584Z</time>
      </trkpt>
      <trkpt lat="45.723095" lon="10.347714">
        <ele>697.881356</ele>
        <time>2021-01-22T15:19:25.910Z</time>
      </trkpt>
      <trkpt lat="45.723193" lon="10.348123">
        <ele>700.486666</ele>
        <time>2021-01-22T15:19:43.037Z</time>
      </trkpt>
      <trkpt lat="45.723322" lon="10.348237">
        <ele>701.710447</ele>
        <time>2021-01-22T15:19:51.676Z</time>
      </trkpt>
      <trkpt lat="45.723488" lon="10.348214">
        <ele>703.056947</ele>
        <time>2021-01-22T15:20:01.717Z</time>
      </trkpt>
      <trkpt lat="45.723746" lon="10.347805">
        <ele>706.163952</ele>
        <time>2021-01-22T15:20:23.926Z</time>
      </trkpt>
      <trkpt lat="45.723995" lon="10.347578">
        <ele>708.546938</ele>
        <time>2021-01-22T15:20:39.787Z</time>
      </trkpt>
      <trkpt lat="45.724586" lon="10.347578">
        <ele>713.318533</ele>
        <time>2021-01-22T15:21:08.894Z</time>
      </trkpt>
      <trkpt lat="45.724594" lon="10.347162">
        <ele>714.753734</ele>
        <time>2021-01-22T15:21:22.401Z</time>
      </trkpt>
      <trkpt lat="45.724721" lon="10.346523">
        <ele>716.083107</ele>
        <time>2021-01-22T15:21:41.297Z</time>
      </trkpt>
      <trkpt lat="45.724754" lon="10.345596">
        <ele>717.940336</ele>
        <time>2021-01-22T15:22:02.155Z</time>
      </trkpt>
      <trkpt lat="45.724798" lon="10.345481">
        <ele>718.202730</ele>
        <time>2021-01-22T15:22:04.341Z</time>
      </trkpt>
      <trkpt lat="45.725597" lon="10.345487">
        <ele>719.020186</ele>
        <time>2021-01-22T15:22:17.807Z</time>
      </trkpt>
      <trkpt lat="45.725858" lon="10.345409">
        <ele>718.747135</ele>
        <time>2021-01-22T15:22:22.218Z</time>
      </trkpt>
      <trkpt lat="45.726571" lon="10.345059">
        <ele>717.975250</ele>
        <time>2021-01-22T15:22:35.976Z</time>
      </trkpt>
      <trkpt lat="45.726639" lon="10.344920">
        <ele>717.853903</ele>
        <time>2021-01-22T15:22:38.059Z</time>
      </trkpt>
      <trkpt lat="45.726623" lon="10.344600">
        <ele>717.624542</ele>
        <time>2021-01-22T15:22:42.256Z</time>
      </trkpt>
      <trkpt lat="45.726534" lon="10.344383">
        <ele>716.987481</ele>
        <time>2021-01-22T15:22:45.110Z</time>
      </trkpt>
      <trkpt lat="45.726183" lon="10.343937">
        <ele>714.694911</ele>
        <time>2021-01-22T15:22:52.191Z</time>
      </trkpt>
      <trkpt lat="45.726292" lon="10.343853">
        <ele>714.090129</ele>
        <time>2021-01-22T15:22:53.821Z</time>
      </trkpt>
      <trkpt lat="45.726416" lon="10.343636">
        <ele>713.133576</ele>
        <time>2021-01-22T15:22:56.540Z</time>
      </trkpt>
      <trkpt lat="45.726713" lon="10.342979">
        <ele>710.463696</ele>
        <time>2021-01-22T15:23:03.712Z</time>
      </trkpt>
      <trkpt lat="45.726623" lon="10.342176">
        <ele>706.963089</ele>
        <time>2021-01-22T15:23:10.976Z</time>
      </trkpt>
      <trkpt lat="45.726673" lon="10.342117">
        <ele>706.435133</ele>
        <time>2021-01-22T15:23:11.760Z</time>
      </trkpt>
      <trkpt lat="45.726779" lon="10.342142">
        <ele>705.559593</ele>
        <time>2021-01-22T15:23:13.067Z</time>
      </trkpt>
      <trkpt lat="45.727693" lon="10.342787">
        <ele>697.255587</ele>
        <time>2021-01-22T15:23:25.564Z</time>
      </trkpt>
      <trkpt lat="45.727969" lon="10.342886">
        <ele>694.936720</ele>
        <time>2021-01-22T15:23:29.166Z</time>
      </trkpt>
      <trkpt lat="45.728324" lon="10.342713">
        <ele>693.545499</ele>
        <time>2021-01-22T15:23:34.170Z</time>
      </trkpt>
      <trkpt lat="45.728472" lon="10.342563">
        <ele>693.167363</ele>
        <time>2021-01-22T15:23:36.797Z</time>
      </trkpt>
      <trkpt lat="45.728459" lon="10.341968">
        <ele>692.300634</ele>
        <time>2021-01-22T15:23:43.249Z</time>
      </trkpt>
      <trkpt lat="45.728586" lon="10.341723">
        <ele>691.856324</ele>
        <time>2021-01-22T15:23:46.729Z</time>
      </trkpt>
      <trkpt lat="45.728710" lon="10.341280">
        <ele>691.161408</ele>
        <time>2021-01-22T15:23:53.082Z</time>
      </trkpt>
      <trkpt lat="45.728907" lon="10.340930">
        <ele>690.506800</ele>
        <time>2021-01-22T15:23:59.477Z</time>
      </trkpt>
      <trkpt lat="45.729175" lon="10.340900">
        <ele>691.116937</ele>
        <time>2021-01-22T15:24:05.710Z</time>
      </trkpt>
      <trkpt lat="45.729705" lon="10.340674">
        <ele>693.175072</ele>
        <time>2021-01-22T15:24:22.706Z</time>
      </trkpt>
      <trkpt lat="45.730137" lon="10.340084">
        <ele>695.396514</ele>
        <time>2021-01-22T15:24:47.738Z</time>
      </trkpt>
      <trkpt lat="45.730404" lon="10.340043">
        <ele>696.395952</ele>
        <time>2021-01-22T15:24:58.553Z</time>
      </trkpt>
      <trkpt lat="45.730675" lon="10.339916">
        <ele>697.718376</ele>
        <time>2021-01-22T15:25:09.797Z</time>
      </trkpt>
      <trkpt lat="45.730943" lon="10.339681">
        <ele>699.658797</ele>
        <time>2021-01-22T15:25:23.028Z</time>
      </trkpt>
      <trkpt lat="45.731077" lon="10.339389">
        <ele>701.165148</ele>
        <time>2021-01-22T15:25:34.241Z</time>
      </trkpt>
      <trkpt lat="45.731171" lon="10.339097">
        <ele>702.551254</ele>
        <time>2021-01-22T15:25:44.393Z</time>
      </trkpt>
      <trkpt lat="45.731119" lon="10.338812">
        <ele>703.821052</ele>
        <time>2021-01-22T15:25:54.817Z</time>
      </trkpt>
      <trkpt lat="45.730941" lon="10.338665">
        <ele>705.089840</ele>
        <time>2021-01-22T15:26:05.102Z</time>
      </trkpt>
      <trkpt lat="45.730626" lon="10.338561">
        <ele>707.086088</ele>
        <time>2021-01-22T15:26:21.709Z</time>
      </trkpt>
      <trkpt lat="45.730465" lon="10.338417">
        <ele>708.188784</ele>
        <time>2021-01-22T15:26:31.164Z</time>
      </trkpt>
      <trkpt lat="45.730380" lon="10.338224">
        <ele>708.412590</ele>
        <time>2021-01-22T15:26:38.160Z</time>
      </trkpt>
      <trkpt lat="45.730385" lon="10.338088">
        <ele>708.546153</ele>
        <time>2021-01-22T15:26:42.148Z</time>
      </trkpt>
      <trkpt lat="45.731052" lon="10.337083">
        <ele>709.906172</ele>
        <time>2021-01-22T15:27:08.247Z</time>
      </trkpt>
      <trkpt lat="45.731018" lon="10.336731">
        <ele>710.254673</ele>
        <time>2021-01-22T15:27:12.725Z</time>
      </trkpt>
      <trkpt lat="45.730943" lon="10.336624">
        <ele>710.403385</ele>
        <time>2021-01-22T15:27:14.521Z</time>
      </trkpt>
      <trkpt lat="45.730142" lon="10.336158">
        <ele>706.435190</ele>
        <time>2021-01-22T15:27:26.902Z</time>
      </trkpt>
      <trkpt lat="45.729783" lon="10.336106">
        <ele>704.094328</ele>
        <time>2021-01-22T15:27:31.562Z</time>
      </trkpt>
      <trkpt lat="45.729617" lon="10.335979">
        <ele>702.873464</ele>
        <time>2021-01-22T15:27:33.909Z</time>
      </trkpt>
      <trkpt lat="45.729510" lon="10.335724">
        <ele>701.526113</ele>
        <time>2021-01-22T15:27:36.469Z</time>
      </trkpt>
      <trkpt lat="45.729532" lon="10.335399">
        <ele>700.047437</ele>
        <time>2021-01-22T15:27:39.254Z</time>
      </trkpt>
      <trkpt lat="45.729641" lon="10.335198">
        <ele>698.838099</ele>
        <time>2021-01-22T15:27:41.433Z</time>
      </trkpt>
      <trkpt lat="45.730155" lon="10.334601">
        <ele>692.701343</ele>
        <time>2021-01-22T15:27:49.556Z</time>
      </trkpt>
      <trkpt lat="45.730427" lon="10.334087">
        <ele>688.525792</ele>
        <time>2021-01-22T15:27:55.043Z</time>
      </trkpt>
      <trkpt lat="45.730236" lon="10.333638">
        <ele>685.121913</ele>
        <time>2021-01-22T15:27:59.564Z</time>
      </trkpt>
      <trkpt lat="45.730271" lon="10.333338">
        <ele>683.152878</ele>
        <time>2021-01-22T15:28:02.198Z</time>
      </trkpt>
      <trkpt lat="45.730229" lon="10.333199">
        <ele>682.279628</ele>
        <time>2021-01-22T15:28:03.519Z</time>
      </trkpt>
      <trkpt lat="45.729954" lon="10.332906">
        <ele>681.064101</ele>
        <time>2021-01-22T15:28:07.896Z</time>
      </trkpt>
      <trkpt lat="45.729921" lon="10.332698">
        <ele>680.536009</ele>
        <time>2021-01-22T15:28:10.013Z</time>
      </trkpt>
      <trkpt lat="45.729940" lon="10.332574">
        <ele>680.221706</ele>
        <time>2021-01-22T15:28:11.137Z</time>
      </trkpt>
      <trkpt lat="45.729961" lon="10.332435">
        <ele>679.869607</ele>
        <time>2021-01-22T15:28:12.421Z</time>
      </trkpt>
      <trkpt lat="45.730065" lon="10.332234">
        <ele>679.250180</ele>
        <time>2021-01-22T15:28:15.214Z</time>
      </trkpt>
      <trkpt lat="45.730400" lon="10.331964">
        <ele>677.886898</ele>
        <time>2021-01-22T15:28:21.069Z</time>
      </trkpt>
      <trkpt lat="45.730447" lon="10.331766">
        <ele>677.369133</ele>
        <time>2021-01-22T15:28:23.260Z</time>
      </trkpt>
      <trkpt lat="45.730370" lon="10.331040">
        <ele>675.985063</ele>
        <time>2021-01-22T15:28:34.758Z</time>
      </trkpt>
      <trkpt lat="45.730475" lon="10.330140">
        <ele>676.084523</ele>
        <time>2021-01-22T15:28:49.419Z</time>
      </trkpt>
      <trkpt lat="45.730385" lon="10.329730">
        <ele>676.131371</ele>
        <time>2021-01-22T15:28:55.884Z</time>
      </trkpt>
      <trkpt lat="45.730402" lon="10.329660">
        <ele>676.139449</ele>
        <time>2021-01-22T15:28:57.880Z</time>
      </trkpt>
      <trkpt lat="45.730445" lon="10.329484">
        <ele>676.159774</ele>
        <time>2021-01-22T15:29:00.274Z</time>
      </trkpt>
      <trkpt lat="45.730501" lon="10.329334">
        <ele>676.178316</ele>
        <time>2021-01-22T15:29:02.614Z</time>
      </trkpt>
      <trkpt lat="45.730606" lon="10.329051">
        <ele>676.213249</ele>
        <time>2021-01-22T15:29:07.475Z</time>
      </trkpt>
      <trkpt lat="45.730621" lon="10.328672">
        <ele>676.191390</ele>
        <time>2021-01-22T15:29:12.908Z</time>
      </trkpt>
      <trkpt lat="45.730916" lon="10.328074">
        <ele>675.550332</ele>
        <time>2021-01-22T15:29:21.525Z</time>
      </trkpt>
      <trkpt lat="45.731105" lon="10.327817">
        <ele>675.223518</ele>
        <time>2021-01-22T15:29:25.853Z</time>
      </trkpt>
      <trkpt lat="45.731400" lon="10.327075">
        <ele>674.475966</ele>
        <time>2021-01-22T15:29:35.040Z</time>
      </trkpt>
      <trkpt lat="45.731665" lon="10.326644">
        <ele>674.015324</ele>
        <time>2021-01-22T15:29:41.681Z</time>
      </trkpt>
      <trkpt lat="45.731870" lon="10.326167">
        <ele>674.632438</ele>
        <time>2021-01-22T15:29:48.980Z</time>
      </trkpt>
      <trkpt lat="45.731750" lon="10.324992">
        <ele>675.940679</ele>
        <time>2021-01-22T15:30:10.590Z</time>
      </trkpt>
      <trkpt lat="45.731832" lon="10.324562">
        <ele>676.431757</ele>
        <time>2021-01-22T15:30:20.683Z</time>
      </trkpt>
      <trkpt lat="45.732126" lon="10.324037">
        <ele>677.933071</ele>
        <time>2021-01-22T15:30:37.910Z</time>
      </trkpt>
      <trkpt lat="45.732669" lon="10.323539">
        <ele>681.206912</ele>
        <time>2021-01-22T15:31:03.035Z</time>
      </trkpt>
      <trkpt lat="45.732733" lon="10.323436">
        <ele>681.695673</ele>
        <time>2021-01-22T15:31:06.871Z</time>
      </trkpt>
      <trkpt lat="45.732863" lon="10.322767">
        <ele>684.157012</ele>
        <time>2021-01-22T15:31:27.083Z</time>
      </trkpt>
      <trkpt lat="45.733012" lon="10.322493">
        <ele>685.388095</ele>
        <time>2021-01-22T15:31:37.976Z</time>
      </trkpt>
      <trkpt lat="45.733550" lon="10.321822">
        <ele>690.186748</ele>
        <time>2021-01-22T15:32:11.925Z</time>
      </trkpt>
      <trkpt lat="45.733777" lon="10.321308">
        <ele>693.175201</ele>
        <time>2021-01-22T15:32:32.274Z</time>
      </trkpt>
      <trkpt lat="45.734186" lon="10.320589">
        <ele>697.732370</ele>
        <time>2021-01-22T15:33:04.228Z</time>
      </trkpt>
      <trkpt lat="45.734345" lon="10.320309">
        <ele>699.657864</ele>
        <time>2021-01-22T15:33:16.933Z</time>
      </trkpt>
      <trkpt lat="45.734610" lon="10.319211">
        <ele>706.350645</ele>
        <time>2021-01-22T15:33:59.899Z</time>
      </trkpt>
      <trkpt lat="45.734791" lon="10.318341">
        <ele>711.580391</ele>
        <time>2021-01-22T15:34:33.682Z</time>
      </trkpt>
      <trkpt lat="45.734799" lon="10.317765">
        <ele>715.234263</ele>
        <time>2021-01-22T15:34:55.866Z</time>
      </trkpt>
      <trkpt lat="45.734655" lon="10.317501">
        <ele>717.616716</ele>
        <time>2021-01-22T15:35:09.212Z</time>
      </trkpt>
      <trkpt lat="45.734647" lon="10.316365">
        <ele>725.694901</ele>
        <time>2021-01-22T15:35:57.120Z</time>
      </trkpt>
      <trkpt lat="45.734458" lon="10.314723">
        <ele>737.590678</ele>
        <time>2021-01-22T15:37:14.374Z</time>
      </trkpt>
      <trkpt lat="45.733973" lon="10.312505">
        <ele>751.898434</ele>
        <time>2021-01-22T15:38:52.321Z</time>
      </trkpt>
      <trkpt lat="45.733838" lon="10.311839">
        <ele>753.879690</ele>
        <time>2021-01-22T15:39:12.733Z</time>
      </trkpt>
      <trkpt lat="45.733981" lon="10.311907">
        <ele>754.496376</ele>
        <time>2021-01-22T15:39:16.537Z</time>
      </trkpt>
      <trkpt lat="45.734133" lon="10.312271">
        <ele>755.708150</ele>
        <time>2021-01-22T15:39:25.339Z</time>
      </trkpt>
      <trkpt lat="45.734219" lon="10.312747">
        <ele>757.112811</ele>
        <time>2021-01-22T15:39:33.258Z</time>
      </trkpt>
      <trkpt lat="45.734288" lon="10.312842">
        <ele>757.504491</ele>
        <time>2021-01-22T15:39:34.816Z</time>
      </trkpt>
      <trkpt lat="45.734519" lon="10.312914">
        <ele>757.530887</ele>
        <time>2021-01-22T15:39:39.559Z</time>
      </trkpt>
      <trkpt lat="45.734587" lon="10.313058">
        <ele>757.439134</ele>
        <time>2021-01-22T15:39:41.360Z</time>
      </trkpt>
      <trkpt lat="45.734619" lon="10.313401">
        <ele>757.256509</ele>
        <time>2021-01-22T15:39:45.373Z</time>
      </trkpt>
      <trkpt lat="45.734837" lon="10.313459">
        <ele>757.088863</ele>
        <time>2021-01-22T15:39:48.596Z</time>
      </trkpt>
      <trkpt lat="45.735086" lon="10.313679">
        <ele>756.867674</ele>
        <time>2021-01-22T15:39:53.437Z</time>
      </trkpt>
      <trkpt lat="45.735283" lon="10.314299">
        <ele>756.508170</ele>
        <time>2021-01-22T15:40:02.030Z</time>
      </trkpt>
      <trkpt lat="45.735232" lon="10.314978">
        <ele>757.034404</ele>
        <time>2021-01-22T15:40:12.132Z</time>
      </trkpt>
      <trkpt lat="45.735301" lon="10.315494">
        <ele>758.203796</ele>
        <time>2021-01-22T15:40:21.787Z</time>
      </trkpt>
      <trkpt lat="45.735442" lon="10.315722">
        <ele>758.881813</ele>
        <time>2021-01-22T15:40:28.518Z</time>
      </trkpt>
      <trkpt lat="45.735790" lon="10.315790">
        <ele>760.001830</ele>
        <time>2021-01-22T15:40:41.216Z</time>
      </trkpt>
      <trkpt lat="45.735960" lon="10.316069">
        <ele>760.826156</ele>
        <time>2021-01-22T15:40:51.423Z</time>
      </trkpt>
      <trkpt lat="45.735992" lon="10.316403">
        <ele>761.576530</ele>
        <time>2021-01-22T15:41:00.892Z</time>
      </trkpt>
      <trkpt lat="45.735928" lon="10.316886">
        <ele>763.623897</ele>
        <time>2021-01-22T15:41:15.499Z</time>
      </trkpt>
      <trkpt lat="45.736258" lon="10.317207">
        <ele>766.859651</ele>
        <time>2021-01-22T15:41:33.250Z</time>
      </trkpt>
      <trkpt lat="45.736352" lon="10.317562">
        <ele>769.009477</ele>
        <time>2021-01-22T15:41:45.349Z</time>
      </trkpt>
      <trkpt lat="45.736373" lon="10.317879">
        <ele>770.812422</ele>
        <time>2021-01-22T15:41:59.659Z</time>
      </trkpt>
      <trkpt lat="45.736275" lon="10.318341">
        <ele>773.546443</ele>
        <time>2021-01-22T15:42:20.044Z</time>
      </trkpt>
      <trkpt lat="45.736253" lon="10.318820">
        <ele>776.264449</ele>
        <time>2021-01-22T15:42:40.641Z</time>
      </trkpt>
      <trkpt lat="45.736593" lon="10.319191">
        <ele>779.713802</ele>
        <time>2021-01-22T15:43:06.515Z</time>
      </trkpt>
      <trkpt lat="45.736797" lon="10.319261">
        <ele>781.405773</ele>
        <time>2021-01-22T15:43:16.292Z</time>
      </trkpt>
      <trkpt lat="45.736817" lon="10.319242">
        <ele>781.599331</ele>
        <time>2021-01-22T15:43:19.052Z</time>
      </trkpt>
      <trkpt lat="45.736871" lon="10.319190">
        <ele>782.124124</ele>
        <time>2021-01-22T15:43:22.325Z</time>
      </trkpt>
      <trkpt lat="45.736927" lon="10.319065">
        <ele>782.960317</ele>
        <time>2021-01-22T15:43:28.359Z</time>
      </trkpt>
      <trkpt lat="45.737024" lon="10.318697">
        <ele>785.174828</ele>
        <time>2021-01-22T15:43:43.067Z</time>
      </trkpt>
      <trkpt lat="45.737274" lon="10.318409">
        <ele>787.762267</ele>
        <time>2021-01-22T15:43:59.555Z</time>
      </trkpt>
      <trkpt lat="45.737327" lon="10.318099">
        <ele>789.559032</ele>
        <time>2021-01-22T15:44:08.974Z</time>
      </trkpt>
      <trkpt lat="45.737418" lon="10.318015">
        <ele>790.432169</ele>
        <time>2021-01-22T15:44:15.436Z</time>
      </trkpt>
      <trkpt lat="45.737887" lon="10.317970">
        <ele>791.639131</ele>
        <time>2021-01-22T15:44:35.137Z</time>
      </trkpt>
      <trkpt lat="45.737947" lon="10.317546">
        <ele>792.025235</ele>
        <time>2021-01-22T15:44:42.892Z</time>
      </trkpt>
      <trkpt lat="45.738485" lon="10.317160">
        <ele>792.794613</ele>
        <time>2021-01-22T15:44:52.785Z</time>
      </trkpt>
      <trkpt lat="45.738689" lon="10.317100">
        <ele>793.060908</ele>
        <time>2021-01-22T15:44:57.752Z</time>
      </trkpt>
      <trkpt lat="45.738780" lon="10.317304">
        <ele>793.276978</ele>
        <time>2021-01-22T15:45:00.201Z</time>
      </trkpt>
      <trkpt lat="45.738598" lon="10.317781">
        <ele>794.150735</ele>
        <time>2021-01-22T15:45:07.553Z</time>
      </trkpt>
      <trkpt lat="45.738606" lon="10.318477">
        <ele>795.550774</ele>
        <time>2021-01-22T15:45:21.064Z</time>
      </trkpt>
      <trkpt lat="45.738644" lon="10.318795">
        <ele>796.199667</ele>
        <time>2021-01-22T15:45:25.315Z</time>
      </trkpt>
      <trkpt lat="45.738735" lon="10.318719">
        <ele>796.503205</ele>
        <time>2021-01-22T15:45:30.901Z</time>
      </trkpt>
      <trkpt lat="45.738825" lon="10.318295">
        <ele>797.394552</ele>
        <time>2021-01-22T15:45:40.733Z</time>
      </trkpt>
      <trkpt lat="45.739098" lon="10.317978">
        <ele>798.407186</ele>
        <time>2021-01-22T15:45:54.999Z</time>
      </trkpt>
      <trkpt lat="45.739363" lon="10.317818">
        <ele>800.388568</ele>
        <time>2021-01-22T15:46:07.480Z</time>
      </trkpt>
      <trkpt lat="45.739438" lon="10.317622">
        <ele>801.701163</ele>
        <time>2021-01-22T15:46:17.865Z</time>
      </trkpt>
      <trkpt lat="45.739696" lon="10.317274">
        <ele>804.682477</ele>
        <time>2021-01-22T15:46:38.833Z</time>
      </trkpt>
      <trkpt lat="45.740006" lon="10.317054">
        <ele>807.593169</ele>
        <time>2021-01-22T15:47:00.150Z</time>
      </trkpt>
      <trkpt lat="45.740188" lon="10.316797">
        <ele>809.743155</ele>
        <time>2021-01-22T15:47:14.951Z</time>
      </trkpt>
      <trkpt lat="45.740347" lon="10.316388">
        <ele>812.492312</ele>
        <time>2021-01-22T15:47:32.992Z</time>
      </trkpt>
      <trkpt lat="45.740914" lon="10.316161">
        <ele>815.351893</ele>
        <time>2021-01-22T15:48:02.390Z</time>
      </trkpt>
      <trkpt lat="45.741152" lon="10.316338">
        <ele>816.323243</ele>
        <time>2021-01-22T15:48:12.722Z</time>
      </trkpt>
      <trkpt lat="45.741565" lon="10.316464">
        <ele>817.852846</ele>
        <time>2021-01-22T15:48:26.980Z</time>
      </trkpt>
      <trkpt lat="45.741959" lon="10.316729">
        <ele>819.429500</ele>
        <time>2021-01-22T15:48:38.595Z</time>
      </trkpt>
      <trkpt lat="45.742019" lon="10.317122">
        <ele>820.225514</ele>
        <time>2021-01-22T15:48:44.782Z</time>
      </trkpt>
      <trkpt lat="45.741984" lon="10.317363">
        <ele>819.999461</ele>
        <time>2021-01-22T15:48:47.547Z</time>
      </trkpt>
      <trkpt lat="45.741934" lon="10.317668">
        <ele>819.711754</ele>
        <time>2021-01-22T15:48:51.139Z</time>
      </trkpt>
      <trkpt lat="45.742148" lon="10.318200">
        <ele>819.147872</ele>
        <time>2021-01-22T15:48:57.863Z</time>
      </trkpt>
      <trkpt lat="45.742091" lon="10.318422">
        <ele>818.930648</ele>
        <time>2021-01-22T15:49:00.525Z</time>
      </trkpt>
      <trkpt lat="45.742269" lon="10.318598">
        <ele>818.646079</ele>
        <time>2021-01-22T15:49:03.867Z</time>
      </trkpt>
      <trkpt lat="45.742428" lon="10.318575">
        <ele>818.435798</ele>
        <time>2021-01-22T15:49:06.459Z</time>
      </trkpt>
      <trkpt lat="45.743775" lon="10.317153">
        <ele>816.737792</ele>
        <time>2021-01-22T15:49:34.997Z</time>
      </trkpt>
      <trkpt lat="45.743896" lon="10.317137">
        <ele>816.625723</ele>
        <time>2021-01-22T15:49:37.182Z</time>
      </trkpt>
      <trkpt lat="45.743972" lon="10.317319">
        <ele>816.489215</ele>
        <time>2021-01-22T15:49:39.820Z</time>
      </trkpt>
      <trkpt lat="45.743920" lon="10.318087">
        <ele>816.710544</ele>
        <time>2021-01-22T15:49:49.531Z</time>
      </trkpt>
      <trkpt lat="45.743998" lon="10.319642">
        <ele>818.412753</ele>
        <time>2021-01-22T15:50:18.019Z</time>
      </trkpt>
      <trkpt lat="45.744055" lon="10.320104">
        <ele>818.925010</ele>
        <time>2021-01-22T15:50:27.442Z</time>
      </trkpt>
      <trkpt lat="45.744161" lon="10.320490">
        <ele>820.436478</ele>
        <time>2021-01-22T15:50:36.624Z</time>
      </trkpt>
      <trkpt lat="45.744210" lon="10.320473">
        <ele>820.789131</ele>
        <time>2021-01-22T15:50:38.772Z</time>
      </trkpt>
      <trkpt lat="45.744267" lon="10.320452">
        <ele>821.200808</ele>
        <time>2021-01-22T15:50:42.394Z</time>
      </trkpt>
      <trkpt lat="45.744275" lon="10.320271">
        <ele>822.086125</ele>
        <time>2021-01-22T15:50:46.945Z</time>
      </trkpt>
      <trkpt lat="45.744184" lon="10.319945">
        <ele>823.800070</ele>
        <time>2021-01-22T15:50:59.606Z</time>
      </trkpt>
      <trkpt lat="45.744229" lon="10.319544">
        <ele>825.782690</ele>
        <time>2021-01-22T15:51:13.533Z</time>
      </trkpt>
      <trkpt lat="45.744358" lon="10.319348">
        <ele>827.097843</ele>
        <time>2021-01-22T15:51:23.827Z</time>
      </trkpt>
      <trkpt lat="45.744525" lon="10.319211">
        <ele>828.443878</ele>
        <time>2021-01-22T15:51:34.656Z</time>
      </trkpt>
      <trkpt lat="45.744593" lon="10.318871">
        <ele>830.170384</ele>
        <time>2021-01-22T15:51:48.223Z</time>
      </trkpt>
      <trkpt lat="45.744607" lon="10.318485">
        <ele>832.121120</ele>
        <time>2021-01-22T15:52:04.128Z</time>
      </trkpt>
      <trkpt lat="45.744770" lon="10.318466">
        <ele>833.446636</ele>
        <time>2021-01-22T15:52:13.247Z</time>
      </trkpt>
      <trkpt lat="45.744781" lon="10.318925">
        <ele>836.044399</ele>
        <time>2021-01-22T15:52:29.854Z</time>
      </trkpt>
      <trkpt lat="45.745208" lon="10.319083">
        <ele>839.618854</ele>
        <time>2021-01-22T15:52:52.863Z</time>
      </trkpt>
      <trkpt lat="45.745229" lon="10.319193">
        <ele>840.263902</ele>
        <time>2021-01-22T15:52:56.905Z</time>
      </trkpt>
      <trkpt lat="45.745028" lon="10.320512">
        <ele>847.832698</ele>
        <time>2021-01-22T15:53:45.812Z</time>
      </trkpt>
      <trkpt lat="45.745186" lon="10.320614">
        <ele>849.180350</ele>
        <time>2021-01-22T15:53:54.103Z</time>
      </trkpt>
      <trkpt lat="45.745203" lon="10.321179">
        <ele>852.249435</ele>
        <time>2021-01-22T15:54:14.648Z</time>
      </trkpt>
      <trkpt lat="45.745275" lon="10.321473">
        <ele>853.940358</ele>
        <time>2021-01-22T15:54:26.216Z</time>
      </trkpt>
      <trkpt lat="45.745409" lon="10.321514">
        <ele>855.005925</ele>
        <time>2021-01-22T15:54:33.075Z</time>
      </trkpt>
      <trkpt lat="45.745595" lon="10.321471">
        <ele>856.471092</ele>
        <time>2021-01-22T15:54:43.120Z</time>
      </trkpt>
      <trkpt lat="45.745563" lon="10.320167">
        <ele>863.011252</ele>
        <time>2021-01-22T15:55:24.433Z</time>
      </trkpt>
      <trkpt lat="45.745769" lon="10.319018">
        <ele>868.404114</ele>
        <time>2021-01-22T15:56:00.908Z</time>
      </trkpt>
      <trkpt lat="45.745895" lon="10.317111">
        <ele>876.548200</ele>
        <time>2021-01-22T15:56:45.086Z</time>
      </trkpt>
      <trkpt lat="45.746215" lon="10.315860">
        <ele>881.945346</ele>
        <time>2021-01-22T15:57:21.100Z</time>
      </trkpt>
      <trkpt lat="45.746491" lon="10.314981">
        <ele>888.121756</ele>
        <time>2021-01-22T15:57:54.553Z</time>
      </trkpt>
      <trkpt lat="45.746706" lon="10.313832">
        <ele>896.093303</ele>
        <time>2021-01-22T15:58:41.066Z</time>
      </trkpt>
      <trkpt lat="45.747022" lon="10.313131">
        <ele>901.943152</ele>
        <time>2021-01-22T15:59:15.165Z</time>
      </trkpt>
      <trkpt lat="45.747144" lon="10.312620">
        <ele>906.019949</ele>
        <time>2021-01-22T15:59:37.243Z</time>
      </trkpt>
      <trkpt lat="45.747787" lon="10.311534">
        <ele>916.770729</ele>
        <time>2021-01-22T16:00:35.016Z</time>
      </trkpt>
      <trkpt lat="45.747781" lon="10.311425">
        <ele>917.596062</ele>
        <time>2021-01-22T16:00:38.802Z</time>
      </trkpt>
      <trkpt lat="45.747680" lon="10.311311">
        <ele>918.986791</ele>
        <time>2021-01-22T16:00:46.112Z</time>
      </trkpt>
      <trkpt lat="45.747658" lon="10.311310">
        <ele>919.222376</ele>
        <time>2021-01-22T16:00:48.250Z</time>
      </trkpt>
      <trkpt lat="45.747193" lon="10.311292">
        <ele>924.148359</ele>
        <time>2021-01-22T16:01:16.315Z</time>
      </trkpt>
      <trkpt lat="45.747070" lon="10.311135">
        <ele>925.892668</ele>
        <time>2021-01-22T16:01:24.249Z</time>
      </trkpt>
      <trkpt lat="45.746858" lon="10.310703">
        <ele>929.795400</ele>
        <time>2021-01-22T16:01:45.798Z</time>
      </trkpt>
      <trkpt lat="45.746732" lon="10.310478">
        <ele>931.927281</ele>
        <time>2021-01-22T16:01:59.486Z</time>
      </trkpt>
      <trkpt lat="45.746479" lon="10.310134">
        <ele>935.620553</ele>
        <time>2021-01-22T16:02:20.587Z</time>
      </trkpt>
      <trkpt lat="45.746188" lon="10.310061">
        <ele>938.318088</ele>
        <time>2021-01-22T16:02:36.182Z</time>
      </trkpt>
      <trkpt lat="45.746095" lon="10.310126">
        <ele>938.622344</ele>
        <time>2021-01-22T16:02:42.222Z</time>
      </trkpt>
      <trkpt lat="45.745922" lon="10.310475">
        <ele>939.500768</ele>
        <time>2021-01-22T16:02:55.475Z</time>
      </trkpt>
      <trkpt lat="45.745832" lon="10.310519">
        <ele>939.780387</ele>
        <time>2021-01-22T16:02:58.537Z</time>
      </trkpt>
      <trkpt lat="45.745804" lon="10.310442">
        <ele>939.958554</ele>
        <time>2021-01-22T16:03:00.511Z</time>
      </trkpt>
      <trkpt lat="45.746019" lon="10.310012">
        <ele>941.044010</ele>
        <time>2021-01-22T16:03:12.533Z</time>
      </trkpt>
      <trkpt lat="45.746178" lon="10.309717">
        <ele>941.808871</ele>
        <time>2021-01-22T16:03:16.284Z</time>
      </trkpt>
      <trkpt lat="45.746517" lon="10.309433">
        <ele>942.963533</ele>
        <time>2021-01-22T16:03:20.921Z</time>
      </trkpt>
      <trkpt lat="45.746594" lon="10.309369">
        <ele>943.225278</ele>
        <time>2021-01-22T16:03:22.027Z</time>
      </trkpt>
      <trkpt lat="45.746673" lon="10.309249">
        <ele>943.291841</ele>
        <time>2021-01-22T16:03:23.328Z</time>
      </trkpt>
      <trkpt lat="45.746723" lon="10.309134">
        <ele>942.952734</ele>
        <time>2021-01-22T16:03:24.171Z</time>
      </trkpt>
      <trkpt lat="45.746836" lon="10.308549">
        <ele>941.433579</ele>
        <time>2021-01-22T16:03:28.293Z</time>
      </trkpt>
      <trkpt lat="45.747192" lon="10.307602">
        <ele>938.741473</ele>
        <time>2021-01-22T16:03:35.302Z</time>
      </trkpt>
      <trkpt lat="45.747189" lon="10.306941">
        <ele>937.087142</ele>
        <time>2021-01-22T16:03:39.881Z</time>
      </trkpt>
      <trkpt lat="45.747264" lon="10.306532">
        <ele>937.593186</ele>
        <time>2021-01-22T16:03:44.052Z</time>
      </trkpt>
      <trkpt lat="45.747395" lon="10.305974">
        <ele>938.516466</ele>
        <time>2021-01-22T16:03:52.910Z</time>
      </trkpt>
      <trkpt lat="45.747679" lon="10.305091">
        <ele>940.041236</ele>
        <time>2021-01-22T16:04:15.372Z</time>
      </trkpt>
      <trkpt lat="45.749082" lon="10.304472">
        <ele>940.178297</ele>
        <time>2021-01-22T16:04:56.247Z</time>
      </trkpt>
      <trkpt lat="45.749447" lon="10.304452">
        <ele>939.874359</ele>
        <time>2021-01-22T16:04:59.967Z</time>
      </trkpt>
      <trkpt lat="45.749697" lon="10.304260">
        <ele>939.638345</ele>
        <time>2021-01-22T16:05:02.584Z</time>
      </trkpt>
      <trkpt lat="45.749666" lon="10.304042">
        <ele>939.192152</ele>
        <time>2021-01-22T16:05:03.967Z</time>
      </trkpt>
      <trkpt lat="45.749232" lon="10.303442">
        <ele>932.775270</ele>
        <time>2021-01-22T16:05:09.147Z</time>
      </trkpt>
      <trkpt lat="45.748960" lon="10.302815">
        <ele>927.293236</ele>
        <time>2021-01-22T16:05:13.472Z</time>
      </trkpt>
      <trkpt lat="45.748840" lon="10.301846">
        <ele>920.189902</ele>
        <time>2021-01-22T16:05:19.300Z</time>
      </trkpt>
      <trkpt lat="45.748831" lon="10.301477">
        <ele>918.810832</ele>
        <time>2021-01-22T16:05:21.556Z</time>
      </trkpt>
      <trkpt lat="45.748879" lon="10.301238">
        <ele>917.881921</ele>
        <time>2021-01-22T16:05:23.092Z</time>
      </trkpt>
      <trkpt lat="45.749101" lon="10.300713">
        <ele>915.589093</ele>
        <time>2021-01-22T16:05:27.011Z</time>
      </trkpt>
      <trkpt lat="45.749321" lon="10.300333">
        <ele>913.744893</ele>
        <time>2021-01-22T16:05:30.355Z</time>
      </trkpt>
      <trkpt lat="45.749422" lon="10.299737">
        <ele>911.454129</ele>
        <time>2021-01-22T16:05:35.033Z</time>
      </trkpt>
      <trkpt lat="45.749501" lon="10.299517">
        <ele>910.675894</ele>
        <time>2021-01-22T16:05:37.303Z</time>
      </trkpt>
      <trkpt lat="45.749715" lon="10.299326">
        <ele>910.149103</ele>
        <time>2021-01-22T16:05:40.916Z</time>
      </trkpt>
      <trkpt lat="45.750396" lon="10.299173">
        <ele>908.708752</ele>
        <time>2021-01-22T16:05:51.436Z</time>
      </trkpt>
      <trkpt lat="45.750812" lon="10.299011">
        <ele>907.807986</ele>
        <time>2021-01-22T16:05:56.475Z</time>
      </trkpt>
      <trkpt lat="45.751789" lon="10.298217">
        <ele>899.728129</ele>
        <time>2021-01-22T16:06:06.743Z</time>
      </trkpt>
      <trkpt lat="45.752217" lon="10.298217">
        <ele>895.525726</ele>
        <time>2021-01-22T16:06:10.397Z</time>
      </trkpt>
      <trkpt lat="45.752285" lon="10.298145">
        <ele>894.695599</ele>
        <time>2021-01-22T16:06:11.112Z</time>
      </trkpt>
      <trkpt lat="45.752256" lon="10.297921">
        <ele>893.134756</ele>
        <time>2021-01-22T16:06:12.450Z</time>
      </trkpt>
      <trkpt lat="45.751932" lon="10.297523">
        <ele>888.837286</ele>
        <time>2021-01-22T16:06:16.017Z</time>
      </trkpt>
      <trkpt lat="45.750791" lon="10.296958">
        <ele>873.843622</ele>
        <time>2021-01-22T16:06:26.050Z</time>
      </trkpt>
      <trkpt lat="45.750379" lon="10.296535">
        <ele>867.548786</ele>
        <time>2021-01-22T16:06:30.362Z</time>
      </trkpt>
      <trkpt lat="45.749942" lon="10.295602">
        <ele>867.894398</ele>
        <time>2021-01-22T16:06:38.300Z</time>
      </trkpt>
      <trkpt lat="45.749867" lon="10.295076">
        <ele>868.341149</ele>
        <time>2021-01-22T16:06:48.766Z</time>
      </trkpt>
      <trkpt lat="45.749850" lon="10.294620">
        <ele>868.721147</ele>
        <time>2021-01-22T16:06:59.659Z</time>
      </trkpt>
      <trkpt lat="45.749848" lon="10.294558">
        <ele>868.772795</ele>
        <time>2021-01-22T16:07:02.532Z</time>
      </trkpt>
      <trkpt lat="45.749850" lon="10.294172">
        <ele>869.094011</ele>
        <time>2021-01-22T16:07:13.953Z</time>
      </trkpt>
      <trkpt lat="45.749911" lon="10.293829">
        <ele>870.961791</ele>
        <time>2021-01-22T16:07:24.675Z</time>
      </trkpt>
      <trkpt lat="45.749923" lon="10.293807">
        <ele>871.142160</ele>
        <time>2021-01-22T16:07:26.768Z</time>
      </trkpt>
      <trkpt lat="45.750005" lon="10.293656">
        <ele>872.378079</ele>
        <time>2021-01-22T16:07:34.081Z</time>
      </trkpt>
      <trkpt lat="45.750163" lon="10.293565">
        <ele>873.954352</ele>
        <time>2021-01-22T16:07:44.602Z</time>
      </trkpt>
      <trkpt lat="45.750330" lon="10.293558">
        <ele>875.500902</ele>
        <time>2021-01-22T16:07:54.932Z</time>
      </trkpt>
      <trkpt lat="45.750872" lon="10.293789">
        <ele>880.735268</ele>
        <time>2021-01-22T16:08:28.226Z</time>
      </trkpt>
      <trkpt lat="45.751469" lon="10.293878">
        <ele>886.028267</ele>
        <time>2021-01-22T16:08:58.010Z</time>
      </trkpt>
      <trkpt lat="45.751482" lon="10.293890">
        <ele>886.093869</ele>
        <time>2021-01-22T16:08:59.743Z</time>
      </trkpt>
      <trkpt lat="45.751545" lon="10.293947">
        <ele>886.409954</ele>
        <time>2021-01-22T16:09:01.082Z</time>
      </trkpt>
      <trkpt lat="45.751683" lon="10.294089">
        <ele>887.130698</ele>
        <time>2021-01-22T16:09:05.747Z</time>
      </trkpt>
      <trkpt lat="45.751760" lon="10.294068">
        <ele>887.463233</ele>
        <time>2021-01-22T16:09:07.812Z</time>
      </trkpt>
      <trkpt lat="45.751995" lon="10.293569">
        <ele>889.245377</ele>
        <time>2021-01-22T16:09:23.104Z</time>
      </trkpt>
      <trkpt lat="45.752214" lon="10.293343">
        <ele>890.390291</ele>
        <time>2021-01-22T16:09:28.576Z</time>
      </trkpt>
      <trkpt lat="45.752758" lon="10.293050">
        <ele>892.855811</ele>
        <time>2021-01-22T16:09:45.774Z</time>
      </trkpt>
      <trkpt lat="45.753181" lon="10.292668">
        <ele>893.473614</ele>
        <time>2021-01-22T16:09:57.309Z</time>
      </trkpt>
      <trkpt lat="45.753777" lon="10.292754">
        <ele>893.535051</ele>
        <time>2021-01-22T16:10:09.919Z</time>
      </trkpt>
      <trkpt lat="45.753944" lon="10.292698">
        <ele>893.552642</ele>
        <time>2021-01-22T16:10:14.443Z</time>
      </trkpt>
      <trkpt lat="45.754520" lon="10.292316">
        <ele>893.617737</ele>
        <time>2021-01-22T16:10:21.007Z</time>
      </trkpt>
      <trkpt lat="45.754687" lon="10.292259">
        <ele>892.645594</ele>
        <time>2021-01-22T16:10:24.618Z</time>
      </trkpt>
      <trkpt lat="45.754948" lon="10.292271">
        <ele>890.844001</ele>
        <time>2021-01-22T16:10:26.969Z</time>
      </trkpt>
      <trkpt lat="45.755034" lon="10.292270">
        <ele>890.250658</ele>
        <time>2021-01-22T16:10:29.815Z</time>
      </trkpt>
      <trkpt lat="45.755106" lon="10.292212">
        <ele>889.680837</ele>
        <time>2021-01-22T16:10:30.493Z</time>
      </trkpt>
      <trkpt lat="45.755406" lon="10.290945">
        <ele>883.240284</ele>
        <time>2021-01-22T16:10:38.898Z</time>
      </trkpt>
      <trkpt lat="45.755644" lon="10.290206">
        <ele>879.232016</ele>
        <time>2021-01-22T16:10:43.746Z</time>
      </trkpt>
      <trkpt lat="45.755759" lon="10.290029">
        <ele>878.012155</ele>
        <time>2021-01-22T16:10:45.244Z</time>
      </trkpt>
      <trkpt lat="45.756338" lon="10.289523">
        <ele>873.109954</ele>
        <time>2021-01-22T16:10:51.349Z</time>
      </trkpt>
      <trkpt lat="45.756508" lon="10.289244">
        <ele>871.241709</ele>
        <time>2021-01-22T16:10:53.712Z</time>
      </trkpt>
      <trkpt lat="45.756576" lon="10.288992">
        <ele>869.878972</ele>
        <time>2021-01-22T16:10:55.470Z</time>
      </trkpt>
      <trkpt lat="45.756594" lon="10.288829">
        <ele>869.046628</ele>
        <time>2021-01-22T16:10:56.530Z</time>
      </trkpt>
      <trkpt lat="45.756603" lon="10.288751">
        <ele>868.647883</ele>
        <time>2021-01-22T16:10:57.018Z</time>
      </trkpt>
      <trkpt lat="45.756583" lon="10.288656">
        <ele>868.161546</ele>
        <time>2021-01-22T16:10:57.647Z</time>
      </trkpt>
      <trkpt lat="45.756506" lon="10.288507">
        <ele>867.438624</ele>
        <time>2021-01-22T16:10:58.919Z</time>
      </trkpt>
      <trkpt lat="45.756444" lon="10.288426">
        <ele>866.969831</ele>
        <time>2021-01-22T16:10:59.692Z</time>
      </trkpt>
      <trkpt lat="45.756180" lon="10.288166">
        <ele>865.179877</ele>
        <time>2021-01-22T16:11:02.709Z</time>
      </trkpt>
      <trkpt lat="45.756177" lon="10.288162">
        <ele>865.156980</ele>
        <time>2021-01-22T16:11:02.739Z</time>
      </trkpt>
      <trkpt lat="45.756094" lon="10.288087">
        <ele>864.608688</ele>
        <time>2021-01-22T16:11:03.637Z</time>
      </trkpt>
      <trkpt lat="45.755798" lon="10.287779">
        <ele>862.564679</ele>
        <time>2021-01-22T16:11:07.041Z</time>
      </trkpt>
      <trkpt lat="45.755745" lon="10.287714">
        <ele>862.174884</ele>
        <time>2021-01-22T16:11:07.692Z</time>
      </trkpt>
      <trkpt lat="45.755726" lon="10.287691">
        <ele>862.035909</ele>
        <time>2021-01-22T16:11:07.903Z</time>
      </trkpt>
      <trkpt lat="45.755647" lon="10.287566">
        <ele>861.378334</ele>
        <time>2021-01-22T16:11:09.097Z</time>
      </trkpt>
      <trkpt lat="45.755591" lon="10.286967">
        <ele>859.022023</ele>
        <time>2021-01-22T16:11:12.974Z</time>
      </trkpt>
      <trkpt lat="45.755448" lon="10.286483">
        <ele>857.039001</ele>
        <time>2021-01-22T16:11:16.367Z</time>
      </trkpt>
      <trkpt lat="45.755437" lon="10.285834">
        <ele>854.649274</ele>
        <time>2021-01-22T16:11:20.604Z</time>
      </trkpt>
      <trkpt lat="45.755402" lon="10.285724">
        <ele>854.204238</ele>
        <time>2021-01-22T16:11:21.361Z</time>
      </trkpt>
      <trkpt lat="45.755259" lon="10.285611">
        <ele>853.342719</ele>
        <time>2021-01-22T16:11:23.010Z</time>
      </trkpt>
      <trkpt lat="45.754786" lon="10.285538">
        <ele>850.832813</ele>
        <time>2021-01-22T16:11:27.671Z</time>
      </trkpt>
      <trkpt lat="45.754629" lon="10.285441">
        <ele>849.930818</ele>
        <time>2021-01-22T16:11:29.495Z</time>
      </trkpt>
      <trkpt lat="45.754582" lon="10.284837">
        <ele>847.079190</ele>
        <time>2021-01-22T16:11:33.284Z</time>
      </trkpt>
      <trkpt lat="45.754657" lon="10.284499">
        <ele>844.951441</ele>
        <time>2021-01-22T16:11:35.515Z</time>
      </trkpt>
      <trkpt lat="45.754673" lon="10.284464">
        <ele>844.700422</ele>
        <time>2021-01-22T16:11:35.782Z</time>
      </trkpt>
      <trkpt lat="45.754701" lon="10.284397">
        <ele>844.231904</ele>
        <time>2021-01-22T16:11:36.231Z</time>
      </trkpt>
      <trkpt lat="45.754715" lon="10.284299">
        <ele>843.631801</ele>
        <time>2021-01-22T16:11:36.923Z</time>
      </trkpt>
      <trkpt lat="45.754657" lon="10.284140">
        <ele>842.555461</ele>
        <time>2021-01-22T16:11:38.086Z</time>
      </trkpt>
      <trkpt lat="45.754556" lon="10.284056">
        <ele>841.551450</ele>
        <time>2021-01-22T16:11:39.079Z</time>
      </trkpt>
      <trkpt lat="45.754245" lon="10.283962">
        <ele>838.818679</ele>
        <time>2021-01-22T16:11:41.849Z</time>
      </trkpt>
      <trkpt lat="45.753989" lon="10.283967">
        <ele>836.617406</ele>
        <time>2021-01-22T16:11:44.097Z</time>
      </trkpt>
      <trkpt lat="45.753899" lon="10.283979">
        <ele>835.840251</ele>
        <time>2021-01-22T16:11:44.865Z</time>
      </trkpt>
      <trkpt lat="45.753813" lon="10.283995">
        <ele>835.094625</ele>
        <time>2021-01-22T16:11:45.577Z</time>
      </trkpt>
      <trkpt lat="45.753385" lon="10.284037">
        <ele>831.751900</ele>
        <time>2021-01-22T16:11:49.285Z</time>
      </trkpt>
      <trkpt lat="45.752765" lon="10.283934">
        <ele>827.417178</ele>
        <time>2021-01-22T16:11:54.632Z</time>
      </trkpt>
      <trkpt lat="45.752583" lon="10.283678">
        <ele>825.646122</ele>
        <time>2021-01-22T16:11:56.927Z</time>
      </trkpt>
      <trkpt lat="45.752211" lon="10.282776">
        <ele>820.712990</ele>
        <time>2021-01-22T16:12:03.938Z</time>
      </trkpt>
      <trkpt lat="45.752018" lon="10.281956">
        <ele>820.704676</ele>
        <time>2021-01-22T16:12:14.270Z</time>
      </trkpt>
      <trkpt lat="45.752032" lon="10.281242">
        <ele>820.697814</ele>
        <time>2021-01-22T16:12:24.366Z</time>
      </trkpt>
      <trkpt lat="45.752119" lon="10.281027">
        <ele>820.695426</ele>
        <time>2021-01-22T16:12:30.092Z</time>
      </trkpt>
      <trkpt lat="45.752308" lon="10.280783">
        <ele>820.691924</ele>
        <time>2021-01-22T16:12:33.174Z</time>
      </trkpt>
      <trkpt lat="45.752875" lon="10.280526">
        <ele>820.079444</ele>
        <time>2021-01-22T16:12:41.172Z</time>
      </trkpt>
      <trkpt lat="45.752914" lon="10.280383">
        <ele>819.891352</ele>
        <time>2021-01-22T16:12:42.969Z</time>
      </trkpt>
      <trkpt lat="45.752849" lon="10.280278">
        <ele>819.719390</ele>
        <time>2021-01-22T16:12:44.404Z</time>
      </trkpt>
      <trkpt lat="45.752812" lon="10.280269">
        <ele>819.653499</ele>
        <time>2021-01-22T16:12:46.774Z</time>
      </trkpt>
      <trkpt lat="45.752733" lon="10.280250">
        <ele>819.512855</ele>
        <time>2021-01-22T16:12:47.445Z</time>
      </trkpt>
      <trkpt lat="45.752316" lon="10.280407">
        <ele>818.755867</ele>
        <time>2021-01-22T16:12:52.514Z</time>
      </trkpt>
      <trkpt lat="45.751913" lon="10.280813">
        <ele>817.890971</ele>
        <time>2021-01-22T16:12:57.955Z</time>
      </trkpt>
      <trkpt lat="45.751832" lon="10.280832">
        <ele>817.746864</ele>
        <time>2021-01-22T16:13:00.340Z</time>
      </trkpt>
      <trkpt lat="45.751770" lon="10.280758">
        <ele>817.605200</ele>
        <time>2021-01-22T16:13:01.019Z</time>
      </trkpt>
      <trkpt lat="45.751771" lon="10.280638">
        <ele>817.392257</ele>
        <time>2021-01-22T16:13:02.187Z</time>
      </trkpt>
      <trkpt lat="45.751933" lon="10.280356">
        <ele>816.537174</ele>
        <time>2021-01-22T16:13:04.667Z</time>
      </trkpt>
      <trkpt lat="45.751982" lon="10.280304">
        <ele>816.332622</ele>
        <time>2021-01-22T16:13:05.178Z</time>
      </trkpt>
      <trkpt lat="45.752000" lon="10.280285">
        <ele>816.257623</ele>
        <time>2021-01-22T16:13:07.227Z</time>
      </trkpt>
      <trkpt lat="45.752188" lon="10.280097">
        <ele>815.488542</ele>
        <time>2021-01-22T16:13:09.499Z</time>
      </trkpt>
      <trkpt lat="45.752567" lon="10.279957">
        <ele>814.175487</ele>
        <time>2021-01-22T16:13:13.685Z</time>
      </trkpt>
      <trkpt lat="45.752722" lon="10.279729">
        <ele>813.430324</ele>
        <time>2021-01-22T16:13:16.051Z</time>
      </trkpt>
      <trkpt lat="45.752729" lon="10.279610">
        <ele>813.150771</ele>
        <time>2021-01-22T16:13:16.970Z</time>
      </trkpt>
      <trkpt lat="45.752727" lon="10.279487">
        <ele>812.862763</ele>
        <time>2021-01-22T16:13:18.120Z</time>
      </trkpt>
      <trkpt lat="45.752719" lon="10.279086">
        <ele>811.923684</ele>
        <time>2021-01-22T16:13:20.739Z</time>
      </trkpt>
      <trkpt lat="45.752720" lon="10.278685">
        <ele>810.316775</ele>
        <time>2021-01-22T16:13:23.417Z</time>
      </trkpt>
      <trkpt lat="45.752786" lon="10.278502">
        <ele>809.204398</ele>
        <time>2021-01-22T16:13:25.114Z</time>
      </trkpt>
      <trkpt lat="45.752823" lon="10.278445">
        <ele>808.784009</ele>
        <time>2021-01-22T16:13:25.594Z</time>
      </trkpt>
      <trkpt lat="45.752835" lon="10.278426">
        <ele>808.645623</ele>
        <time>2021-01-22T16:13:25.828Z</time>
      </trkpt>
      <trkpt lat="45.752898" lon="10.278367">
        <ele>808.063207</ele>
        <time>2021-01-22T16:13:26.534Z</time>
      </trkpt>
      <trkpt lat="45.752927" lon="10.278340">
        <ele>807.795578</ele>
        <time>2021-01-22T16:13:26.827Z</time>
      </trkpt>
      <trkpt lat="45.752971" lon="10.278299">
        <ele>807.389420</ele>
        <time>2021-01-22T16:13:27.266Z</time>
      </trkpt>
      <trkpt lat="45.753411" lon="10.277715">
        <ele>802.748353</ele>
        <time>2021-01-22T16:13:32.715Z</time>
      </trkpt>
      <trkpt lat="45.753419" lon="10.277689">
        <ele>802.594912</ele>
        <time>2021-01-22T16:13:32.900Z</time>
      </trkpt>
      <trkpt lat="45.753457" lon="10.277574">
        <ele>801.907819</ele>
        <time>2021-01-22T16:13:33.630Z</time>
      </trkpt>
      <trkpt lat="45.753438" lon="10.275753">
        <ele>791.348329</ele>
        <time>2021-01-22T16:13:44.577Z</time>
      </trkpt>
      <trkpt lat="45.753385" lon="10.275402">
        <ele>789.153526</ele>
        <time>2021-01-22T16:13:46.745Z</time>
      </trkpt>
      <trkpt lat="45.753376" lon="10.275320">
        <ele>788.646218</ele>
        <time>2021-01-22T16:13:47.225Z</time>
      </trkpt>
      <trkpt lat="45.753369" lon="10.275256">
        <ele>788.250303</ele>
        <time>2021-01-22T16:13:47.650Z</time>
      </trkpt>
      <trkpt lat="45.753152" lon="10.274131">
        <ele>781.431888</ele>
        <time>2021-01-22T16:13:55.064Z</time>
      </trkpt>
      <trkpt lat="45.753006" lon="10.273881">
        <ele>780.328798</ele>
        <time>2021-01-22T16:13:57.080Z</time>
      </trkpt>
      <trkpt lat="45.752575" lon="10.273400">
        <ele>777.679813</ele>
        <time>2021-01-22T16:14:02.311Z</time>
      </trkpt>
      <trkpt lat="45.752521" lon="10.273144">
        <ele>776.774886</ele>
        <time>2021-01-22T16:14:04.125Z</time>
      </trkpt>
      <trkpt lat="45.752579" lon="10.272787">
        <ele>775.534616</ele>
        <time>2021-01-22T16:14:06.813Z</time>
      </trkpt>
      <trkpt lat="45.752609" lon="10.272698">
        <ele>775.200174</ele>
        <time>2021-01-22T16:14:07.466Z</time>
      </trkpt>
      <trkpt lat="45.752614" lon="10.272681">
        <ele>775.137751</ele>
        <time>2021-01-22T16:14:07.574Z</time>
      </trkpt>
      <trkpt lat="45.752953" lon="10.271890">
        <ele>771.709433</ele>
        <time>2021-01-22T16:14:14.033Z</time>
      </trkpt>
      <trkpt lat="45.752991" lon="10.271532">
        <ele>770.165166</ele>
        <time>2021-01-22T16:14:16.320Z</time>
      </trkpt>
      <trkpt lat="45.752734" lon="10.270474">
        <ele>765.387687</ele>
        <time>2021-01-22T16:14:23.459Z</time>
      </trkpt>
      <trkpt lat="45.752752" lon="10.269794">
        <ele>762.485706</ele>
        <time>2021-01-22T16:14:27.835Z</time>
      </trkpt>
      <trkpt lat="45.752752" lon="10.269761">
        <ele>762.344976</ele>
        <time>2021-01-22T16:14:28.031Z</time>
      </trkpt>
      <trkpt lat="45.752755" lon="10.269581">
        <ele>761.251619</ele>
        <time>2021-01-22T16:14:29.159Z</time>
      </trkpt>
      <trkpt lat="45.752679" lon="10.269334">
        <ele>759.393739</ele>
        <time>2021-01-22T16:14:30.871Z</time>
      </trkpt>
      <trkpt lat="45.752280" lon="10.268541">
        <ele>752.665066</ele>
        <time>2021-01-22T16:14:36.739Z</time>
      </trkpt>
      <trkpt lat="45.751656" lon="10.268032">
        <ele>745.583119</ele>
        <time>2021-01-22T16:14:42.859Z</time>
      </trkpt>
      <trkpt lat="45.751580" lon="10.267977">
        <ele>744.743340</ele>
        <time>2021-01-22T16:14:43.569Z</time>
      </trkpt>
      <trkpt lat="45.751504" lon="10.267914">
        <ele>743.975224</ele>
        <time>2021-01-22T16:14:44.302Z</time>
      </trkpt>
      <trkpt lat="45.750821" lon="10.267402">
        <ele>737.893737</ele>
        <time>2021-01-22T16:14:50.994Z</time>
      </trkpt>
      <trkpt lat="45.750542" lon="10.267073">
        <ele>735.043055</ele>
        <time>2021-01-22T16:14:54.164Z</time>
      </trkpt>
      <trkpt lat="45.750398" lon="10.266776">
        <ele>733.051967</ele>
        <time>2021-01-22T16:14:56.403Z</time>
      </trkpt>
      <trkpt lat="45.750262" lon="10.266311">
        <ele>730.276147</ele>
        <time>2021-01-22T16:14:59.772Z</time>
      </trkpt>
      <trkpt lat="45.749858" lon="10.265568">
        <ele>728.922835</ele>
        <time>2021-01-22T16:15:06.923Z</time>
      </trkpt>
      <trkpt lat="45.749812" lon="10.265221">
        <ele>728.443843</ele>
        <time>2021-01-22T16:15:09.899Z</time>
      </trkpt>
      <trkpt lat="45.749908" lon="10.264935">
        <ele>728.013451</ele>
        <time>2021-01-22T16:15:12.749Z</time>
      </trkpt>
      <trkpt lat="45.750494" lon="10.264245">
        <ele>726.330635</ele>
        <time>2021-01-22T16:15:22.420Z</time>
      </trkpt>
      <trkpt lat="45.750875" lon="10.263492">
        <ele>723.192307</ele>
        <time>2021-01-22T16:15:29.301Z</time>
      </trkpt>
      <trkpt lat="45.751510" lon="10.262911">
        <ele>719.549396</ele>
        <time>2021-01-22T16:15:36.290Z</time>
      </trkpt>
      <trkpt lat="45.751657" lon="10.262705">
        <ele>718.555243</ele>
        <time>2021-01-22T16:15:38.109Z</time>
      </trkpt>
      <trkpt lat="45.751877" lon="10.261912">
        <ele>713.185992</ele>
        <time>2021-01-22T16:15:43.309Z</time>
      </trkpt>
      <trkpt lat="45.752358" lon="10.261089">
        <ele>705.653907</ele>
        <time>2021-01-22T16:15:49.742Z</time>
      </trkpt>
      <trkpt lat="45.752362" lon="10.260917">
        <ele>704.446489</ele>
        <time>2021-01-22T16:15:50.761Z</time>
      </trkpt>
      <trkpt lat="45.752150" lon="10.260096">
        <ele>698.121645</ele>
        <time>2021-01-22T16:15:55.973Z</time>
      </trkpt>
      <trkpt lat="45.752001" lon="10.260013">
        <ele>696.329639</ele>
        <time>2021-01-22T16:15:57.326Z</time>
      </trkpt>
      <trkpt lat="45.751950" lon="10.260184">
        <ele>694.875040</ele>
        <time>2021-01-22T16:15:58.446Z</time>
      </trkpt>
      <trkpt lat="45.752109" lon="10.260608">
        <ele>691.109962</ele>
        <time>2021-01-22T16:16:01.322Z</time>
      </trkpt>
      <trkpt lat="45.752138" lon="10.260970">
        <ele>688.259852</ele>
        <time>2021-01-22T16:16:03.492Z</time>
      </trkpt>
      <trkpt lat="45.752092" lon="10.261196">
        <ele>686.418440</ele>
        <time>2021-01-22T16:16:04.910Z</time>
      </trkpt>
      <trkpt lat="45.752043" lon="10.261250">
        <ele>685.725534</ele>
        <time>2021-01-22T16:16:05.433Z</time>
      </trkpt>
      <trkpt lat="45.751921" lon="10.261210">
        <ele>684.322596</ele>
        <time>2021-01-22T16:16:06.498Z</time>
      </trkpt>
      <trkpt lat="45.751907" lon="10.260549">
        <ele>679.142043</ele>
        <time>2021-01-22T16:16:10.435Z</time>
      </trkpt>
      <trkpt lat="45.751816" lon="10.260345">
        <ele>677.222554</ele>
        <time>2021-01-22T16:16:11.870Z</time>
      </trkpt>
      <trkpt lat="45.751335" lon="10.259642">
        <ele>669.417074</ele>
        <time>2021-01-22T16:16:17.666Z</time>
      </trkpt>
      <trkpt lat="45.751340" lon="10.259482">
        <ele>668.147360</ele>
        <time>2021-01-22T16:16:18.605Z</time>
      </trkpt>
      <trkpt lat="45.751432" lon="10.259238">
        <ele>665.948640</ele>
        <time>2021-01-22T16:16:20.292Z</time>
      </trkpt>
      <trkpt lat="45.751412" lon="10.259048">
        <ele>664.425324</ele>
        <time>2021-01-22T16:16:21.415Z</time>
      </trkpt>
      <trkpt lat="45.751277" lon="10.259036">
        <ele>662.888572</ele>
        <time>2021-01-22T16:16:22.592Z</time>
      </trkpt>
      <trkpt lat="45.751221" lon="10.259125">
        <ele>661.938498</ele>
        <time>2021-01-22T16:16:23.328Z</time>
      </trkpt>
      <trkpt lat="45.751101" lon="10.259656">
        <ele>657.846679</ele>
        <time>2021-01-22T16:16:26.678Z</time>
      </trkpt>
      <trkpt lat="45.751049" lon="10.259704">
        <ele>657.275017</ele>
        <time>2021-01-22T16:16:27.188Z</time>
      </trkpt>
      <trkpt lat="45.751018" lon="10.259702">
        <ele>656.988217</ele>
        <time>2021-01-22T16:16:27.501Z</time>
      </trkpt>
      <trkpt lat="45.750926" lon="10.259604">
        <ele>655.928773</ele>
        <time>2021-01-22T16:16:28.515Z</time>
      </trkpt>
      <trkpt lat="45.750932" lon="10.259450">
        <ele>654.934072</ele>
        <time>2021-01-22T16:16:29.472Z</time>
      </trkpt>
      <trkpt lat="45.751168" lon="10.258968">
        <ele>651.136719</ele>
        <time>2021-01-22T16:16:33.029Z</time>
      </trkpt>
      <trkpt lat="45.751208" lon="10.258769">
        <ele>649.801177</ele>
        <time>2021-01-22T16:16:34.265Z</time>
      </trkpt>
      <trkpt lat="45.751193" lon="10.257804">
        <ele>643.576329</ele>
        <time>2021-01-22T16:16:40.165Z</time>
      </trkpt>
      <trkpt lat="45.751118" lon="10.257442">
        <ele>641.441128</ele>
        <time>2021-01-22T16:16:42.561Z</time>
      </trkpt>
      <trkpt lat="45.750805" lon="10.256721">
        <ele>637.035597</ele>
        <time>2021-01-22T16:16:47.859Z</time>
      </trkpt>
      <trkpt lat="45.749933" lon="10.255416">
        <ele>627.856353</ele>
        <time>2021-01-22T16:16:59.101Z</time>
      </trkpt>
      <trkpt lat="45.749854" lon="10.255148">
        <ele>626.526343</ele>
        <time>2021-01-22T16:17:00.944Z</time>
      </trkpt>
      <trkpt lat="45.749872" lon="10.254836">
        <ele>625.095154</ele>
        <time>2021-01-22T16:17:02.951Z</time>
      </trkpt>
      <trkpt lat="45.750172" lon="10.254156">
        <ele>621.417302</ele>
        <time>2021-01-22T16:17:08.114Z</time>
      </trkpt>
      <trkpt lat="45.750273" lon="10.253723">
        <ele>619.330167</ele>
        <time>2021-01-22T16:17:11.046Z</time>
      </trkpt>
      <trkpt lat="45.750174" lon="10.253109">
        <ele>616.404135</ele>
        <time>2021-01-22T16:17:15.083Z</time>
      </trkpt>
      <trkpt lat="45.750357" lon="10.252431">
        <ele>612.940524</ele>
        <time>2021-01-22T16:17:19.571Z</time>
      </trkpt>
      <trkpt lat="45.750351" lon="10.251615">
        <ele>609.052441</ele>
        <time>2021-01-22T16:17:24.760Z</time>
      </trkpt>
      <trkpt lat="45.750303" lon="10.251098">
        <ele>606.567463</ele>
        <time>2021-01-22T16:17:28.065Z</time>
      </trkpt>
      <trkpt lat="45.750217" lon="10.251006">
        <ele>605.834686</ele>
        <time>2021-01-22T16:17:29.074Z</time>
      </trkpt>
      <trkpt lat="45.750170" lon="10.251028">
        <ele>605.497081</ele>
        <time>2021-01-22T16:17:29.478Z</time>
      </trkpt>
      <trkpt lat="45.750145" lon="10.251098">
        <ele>605.115448</ele>
        <time>2021-01-22T16:17:30.064Z</time>
      </trkpt>
      <trkpt lat="45.750175" lon="10.251830">
        <ele>601.410206</ele>
        <time>2021-01-22T16:17:34.732Z</time>
      </trkpt>
      <trkpt lat="45.750093" lon="10.252431">
        <ele>598.315784</ele>
        <time>2021-01-22T16:17:38.584Z</time>
      </trkpt>
      <trkpt lat="45.750013" lon="10.252692">
        <ele>596.875293</ele>
        <time>2021-01-22T16:17:40.320Z</time>
      </trkpt>
      <trkpt lat="45.749643" lon="10.253208">
        <ele>593.136613</ele>
        <time>2021-01-22T16:17:44.941Z</time>
      </trkpt>
      <trkpt lat="45.749495" lon="10.253168">
        <ele>592.003945</ele>
        <time>2021-01-22T16:17:46.308Z</time>
      </trkpt>
      <trkpt lat="45.749513" lon="10.252902">
        <ele>590.312639</ele>
        <time>2021-01-22T16:17:47.991Z</time>
      </trkpt>
      <trkpt lat="45.749765" lon="10.252659">
        <ele>587.557926</ele>
        <time>2021-01-22T16:17:50.693Z</time>
      </trkpt>
      <trkpt lat="45.749869" lon="10.252419">
        <ele>585.770026</ele>
        <time>2021-01-22T16:17:52.428Z</time>
      </trkpt>
      <trkpt lat="45.749885" lon="10.251516">
        <ele>580.053493</ele>
        <time>2021-01-22T16:17:57.901Z</time>
      </trkpt>
      <trkpt lat="45.749586" lon="10.250764">
        <ele>574.571734</ele>
        <time>2021-01-22T16:18:03.094Z</time>
      </trkpt>
      <trkpt lat="45.749527" lon="10.249990">
        <ele>569.628252</ele>
        <time>2021-01-22T16:18:07.720Z</time>
      </trkpt>
      <trkpt lat="45.749480" lon="10.249842">
        <ele>568.595841</ele>
        <time>2021-01-22T16:18:08.714Z</time>
      </trkpt>
      <trkpt lat="45.749189" lon="10.249416">
        <ele>564.810821</ele>
        <time>2021-01-22T16:18:12.358Z</time>
      </trkpt>
      <trkpt lat="45.749079" lon="10.249041">
        <ele>562.228054</ele>
        <time>2021-01-22T16:18:14.853Z</time>
      </trkpt>
      <trkpt lat="45.748970" lon="10.248987">
        <ele>561.178686</ele>
        <time>2021-01-22T16:18:15.917Z</time>
      </trkpt>
      <trkpt lat="45.748907" lon="10.249111">
        <ele>560.204808</ele>
        <time>2021-01-22T16:18:16.897Z</time>
      </trkpt>
      <trkpt lat="45.748908" lon="10.249176">
        <ele>559.792008</ele>
        <time>2021-01-22T16:18:17.272Z</time>
      </trkpt>
      <trkpt lat="45.748918" lon="10.249247">
        <ele>559.414627</ele>
        <time>2021-01-22T16:18:17.739Z</time>
      </trkpt>
      <trkpt lat="45.749244" lon="10.250161">
        <ele>555.558451</ele>
        <time>2021-01-22T16:18:24.341Z</time>
      </trkpt>
      <trkpt lat="45.749151" lon="10.250779">
        <ele>553.183436</ele>
        <time>2021-01-22T16:18:28.644Z</time>
      </trkpt>
      <trkpt lat="45.749200" lon="10.251406">
        <ele>550.813256</ele>
        <time>2021-01-22T16:18:32.779Z</time>
      </trkpt>
      <trkpt lat="45.748970" lon="10.251904">
        <ele>548.717328</ele>
        <time>2021-01-22T16:18:36.838Z</time>
      </trkpt>
      <trkpt lat="45.748842" lon="10.251924">
        <ele>548.103981</ele>
        <time>2021-01-22T16:18:38.068Z</time>
      </trkpt>
      <trkpt lat="45.748789" lon="10.251785">
        <ele>547.577464</ele>
        <time>2021-01-22T16:18:39.131Z</time>
      </trkpt>
      <trkpt lat="45.748948" lon="10.251488">
        <ele>546.333161</ele>
        <time>2021-01-22T16:18:41.633Z</time>
      </trkpt>
      <trkpt lat="45.748960" lon="10.251281">
        <ele>545.642719</ele>
        <time>2021-01-22T16:18:43.062Z</time>
      </trkpt>
      <trkpt lat="45.748924" lon="10.251124">
        <ele>545.093395</ele>
        <time>2021-01-22T16:18:44.134Z</time>
      </trkpt>
      <trkpt lat="45.748887" lon="10.250892">
        <ele>544.302338</ele>
        <time>2021-01-22T16:18:45.702Z</time>
      </trkpt>
      <trkpt lat="45.748860" lon="10.250377">
        <ele>542.585643</ele>
        <time>2021-01-22T16:18:49.127Z</time>
      </trkpt>
      <trkpt lat="45.748671" lon="10.249987">
        <ele>541.021323</ele>
        <time>2021-01-22T16:18:52.259Z</time>
      </trkpt>
      <trkpt lat="45.748451" lon="10.249649">
        <ele>539.562994</ele>
        <time>2021-01-22T16:18:55.296Z</time>
      </trkpt>
      <trkpt lat="45.748143" lon="10.249445">
        <ele>538.028841</ele>
        <time>2021-01-22T16:18:58.454Z</time>
      </trkpt>
      <trkpt lat="45.747882" lon="10.249116">
        <ele>536.457168</ele>
        <time>2021-01-22T16:19:01.822Z</time>
      </trkpt>
      <trkpt lat="45.747553" lon="10.248488">
        <ele>533.979487</ele>
        <time>2021-01-22T16:19:07.216Z</time>
      </trkpt>
      <trkpt lat="45.747404" lon="10.247640">
        <ele>531.320374</ele>
        <time>2021-01-22T16:19:13.134Z</time>
      </trkpt>
      <trkpt lat="45.747518" lon="10.247077">
        <ele>529.566551</ele>
        <time>2021-01-22T16:19:17.084Z</time>
      </trkpt>
      <trkpt lat="45.747374" lon="10.246213">
        <ele>526.908989</ele>
        <time>2021-01-22T16:19:23.054Z</time>
      </trkpt>
      <trkpt lat="45.746730" lon="10.245354">
        <ele>522.930872</ele>
        <time>2021-01-22T16:19:31.618Z</time>
      </trkpt>
      <trkpt lat="45.746677" lon="10.245116">
        <ele>522.116519</ele>
        <time>2021-01-22T16:19:33.336Z</time>
      </trkpt>
      <trkpt lat="45.746696" lon="10.244735">
        <ele>520.871406</ele>
        <time>2021-01-22T16:19:35.976Z</time>
      </trkpt>
      <trkpt lat="45.746934" lon="10.243862">
        <ele>517.816240</ele>
        <time>2021-01-22T16:19:42.082Z</time>
      </trkpt>
      <trkpt lat="45.746867" lon="10.243016">
        <ele>514.183455</ele>
        <time>2021-01-22T16:19:47.642Z</time>
      </trkpt>
      <trkpt lat="45.746771" lon="10.242445">
        <ele>511.446810</ele>
        <time>2021-01-22T16:19:51.388Z</time>
      </trkpt>
      <trkpt lat="45.746621" lon="10.242027">
        <ele>509.256746</ele>
        <time>2021-01-22T16:19:54.609Z</time>
      </trkpt>
      <trkpt lat="45.746594" lon="10.241935">
        <ele>508.791714</ele>
        <time>2021-01-22T16:19:55.196Z</time>
      </trkpt>
      <trkpt lat="45.746588" lon="10.241806">
        <ele>508.189315</ele>
        <time>2021-01-22T16:19:56.212Z</time>
      </trkpt>
      <trkpt lat="45.747196" lon="10.241402">
        <ele>503.093494</ele>
        <time>2021-01-22T16:20:02.047Z</time>
      </trkpt>
      <trkpt lat="45.747585" lon="10.241384">
        <ele>499.266152</ele>
        <time>2021-01-22T16:20:05.349Z</time>
      </trkpt>
      <trkpt lat="45.748018" lon="10.241474">
        <ele>494.963562</ele>
        <time>2021-01-22T16:20:09.110Z</time>
      </trkpt>
      <trkpt lat="45.748036" lon="10.241430">
        <ele>494.613566</ele>
        <time>2021-01-22T16:20:09.411Z</time>
      </trkpt>
      <trkpt lat="45.748131" lon="10.241184">
        <ele>492.684212</ele>
        <time>2021-01-22T16:20:11.091Z</time>
      </trkpt>
      <trkpt lat="45.748293" lon="10.240771">
        <ele>489.433084</ele>
        <time>2021-01-22T16:20:13.975Z</time>
      </trkpt>
      <trkpt lat="45.748149" lon="10.240668">
        <ele>487.850423</ele>
        <time>2021-01-22T16:20:15.411Z</time>
      </trkpt>
      <trkpt lat="45.748058" lon="10.240610">
        <ele>487.022349</ele>
        <time>2021-01-22T16:20:16.607Z</time>
      </trkpt>
      <trkpt lat="45.747950" lon="10.240541">
        <ele>486.234292</ele>
        <time>2021-01-22T16:20:18.027Z</time>
      </trkpt>
      <trkpt lat="45.747312" lon="10.240122">
        <ele>481.557095</ele>
        <time>2021-01-22T16:20:24.110Z</time>
      </trkpt>
      <trkpt lat="45.747248" lon="10.240084">
        <ele>481.095405</ele>
        <time>2021-01-22T16:20:24.700Z</time>
      </trkpt>
      <trkpt lat="45.747152" lon="10.240032">
        <ele>480.411433</ele>
        <time>2021-01-22T16:20:26.000Z</time>
      </trkpt>
      <trkpt lat="45.747057" lon="10.240009">
        <ele>479.769333</ele>
        <time>2021-01-22T16:20:27.377Z</time>
      </trkpt>
      <trkpt lat="45.746680" lon="10.240031">
        <ele>477.254734</ele>
        <time>2021-01-22T16:20:31.070Z</time>
      </trkpt>
      <trkpt lat="45.746528" lon="10.240052">
        <ele>476.237032</ele>
        <time>2021-01-22T16:20:32.536Z</time>
      </trkpt>
      <trkpt lat="45.746432" lon="10.240066">
        <ele>475.593936</ele>
        <time>2021-01-22T16:20:34.053Z</time>
      </trkpt>
      <trkpt lat="45.746337" lon="10.240079">
        <ele>475.251177</ele>
        <time>2021-01-22T16:20:36.687Z</time>
      </trkpt>
      <trkpt lat="45.746315" lon="10.240085">
        <ele>475.212574</ele>
        <time>2021-01-22T16:20:37.231Z</time>
      </trkpt>
      <trkpt lat="45.746278" lon="10.240095">
        <ele>475.147670</ele>
        <time>2021-01-22T16:20:37.814Z</time>
      </trkpt>
      <trkpt lat="45.746095" lon="10.240144">
        <ele>474.826761</ele>
        <time>2021-01-22T16:20:40.547Z</time>
      </trkpt>
      <trkpt lat="45.746083" lon="10.240148">
        <ele>474.805524</ele>
        <time>2021-01-22T16:20:40.742Z</time>
      </trkpt>
      <trkpt lat="45.746049" lon="10.240163">
        <ele>474.744201</ele>
        <time>2021-01-22T16:20:41.324Z</time>
      </trkpt>
      <trkpt lat="45.746036" lon="10.240169">
        <ele>474.720658</ele>
        <time>2021-01-22T16:20:41.562Z</time>
      </trkpt>
      <trkpt lat="45.745969" lon="10.240201">
        <ele>474.598920</ele>
        <time>2021-01-22T16:20:43.743Z</time>
      </trkpt>
      <trkpt lat="45.745742" lon="10.240407">
        <ele>474.135760</ele>
        <time>2021-01-22T16:20:46.539Z</time>
      </trkpt>
      <trkpt lat="45.745509" lon="10.240507">
        <ele>473.716496</ele>
        <time>2021-01-22T16:20:49.801Z</time>
      </trkpt>
      <trkpt lat="45.745461" lon="10.240528">
        <ele>473.629985</ele>
        <time>2021-01-22T16:20:50.340Z</time>
      </trkpt>
      <trkpt lat="45.745335" lon="10.240522">
        <ele>473.412670</ele>
        <time>2021-01-22T16:20:52.261Z</time>
      </trkpt>
      <trkpt lat="45.745113" lon="10.240373">
        <ele>472.990099</ele>
        <time>2021-01-22T16:20:55.011Z</time>
      </trkpt>
      <trkpt lat="45.744871" lon="10.239902">
        <ele>472.286514</ele>
        <time>2021-01-22T16:20:59.862Z</time>
      </trkpt>
      <trkpt lat="45.744198" lon="10.238293">
        <ele>468.229776</ele>
        <time>2021-01-22T16:21:13.267Z</time>
      </trkpt>
      <trkpt lat="45.743968" lon="10.238013">
        <ele>467.288291</ele>
        <time>2021-01-22T16:21:16.192Z</time>
      </trkpt>
      <trkpt lat="45.743648" lon="10.237797">
        <ele>466.149874</ele>
        <time>2021-01-22T16:21:19.654Z</time>
      </trkpt>
      <trkpt lat="45.743522" lon="10.237744">
        <ele>465.708918</ele>
        <time>2021-01-22T16:21:20.984Z</time>
      </trkpt>
      <trkpt lat="45.743275" lon="10.237779">
        <ele>464.875456</ele>
        <time>2021-01-22T16:21:23.413Z</time>
      </trkpt>
      <trkpt lat="45.742782" lon="10.238032">
        <ele>463.117014</ele>
        <time>2021-01-22T16:21:28.686Z</time>
      </trkpt>
      <trkpt lat="45.742706" lon="10.238071">
        <ele>462.845937</ele>
        <time>2021-01-22T16:21:29.457Z</time>
      </trkpt>
      <trkpt lat="45.741908" lon="10.238409">
        <ele>460.230675</ele>
        <time>2021-01-22T16:21:38.025Z</time>
      </trkpt>
      <trkpt lat="45.741611" lon="10.238406">
        <ele>459.557597</ele>
        <time>2021-01-22T16:21:41.116Z</time>
      </trkpt>
      <trkpt lat="45.741258" lon="10.238264">
        <ele>458.726701</ele>
        <time>2021-01-22T16:21:44.983Z</time>
      </trkpt>
      <trkpt lat="45.740645" lon="10.237852">
        <ele>457.192288</ele>
        <time>2021-01-22T16:21:52.375Z</time>
      </trkpt>
      <trkpt lat="45.739296" lon="10.236946">
        <ele>455.415761</ele>
        <time>2021-01-22T16:22:09.543Z</time>
      </trkpt>
      <trkpt lat="45.737810" lon="10.236229">
        <ele>454.325548</ele>
        <time>2021-01-22T16:22:33.935Z</time>
      </trkpt>
      <trkpt lat="45.737749" lon="10.236187">
        <ele>454.288349</ele>
        <time>2021-01-22T16:22:35.128Z</time>
      </trkpt>
      <trkpt lat="45.737526" lon="10.236035">
        <ele>454.152611</ele>
        <time>2021-01-22T16:22:38.249Z</time>
      </trkpt>
      <trkpt lat="45.737270" lon="10.235776">
        <ele>453.980354</ele>
        <time>2021-01-22T16:22:41.923Z</time>
      </trkpt>
      <trkpt lat="45.736920" lon="10.235219">
        <ele>453.106006</ele>
        <time>2021-01-22T16:22:47.771Z</time>
      </trkpt>
      <trkpt lat="45.736848" lon="10.235007">
        <ele>452.711638</ele>
        <time>2021-01-22T16:22:49.548Z</time>
      </trkpt>
      <trkpt lat="45.736517" lon="10.234036">
        <ele>450.904063</ele>
        <time>2021-01-22T16:22:57.307Z</time>
      </trkpt>
      <trkpt lat="45.736432" lon="10.233838">
        <ele>450.515230</ele>
        <time>2021-01-22T16:22:58.954Z</time>
      </trkpt>
      <trkpt lat="45.736197" lon="10.233523">
        <ele>449.743981</ele>
        <time>2021-01-22T16:23:02.386Z</time>
      </trkpt>
      <trkpt lat="45.735607" lon="10.233054">
        <ele>449.107179</ele>
        <time>2021-01-22T16:23:09.804Z</time>
      </trkpt>
      <trkpt lat="45.735269" lon="10.232933">
        <ele>448.844604</ele>
        <time>2021-01-22T16:23:14.278Z</time>
      </trkpt>
      <trkpt lat="45.735234" lon="10.232932">
        <ele>448.818220</ele>
        <time>2021-01-22T16:23:14.717Z</time>
      </trkpt>
      <trkpt lat="45.734854" lon="10.232922">
        <ele>448.531773</ele>
        <time>2021-01-22T16:23:20.672Z</time>
      </trkpt>
      <trkpt lat="45.734488" lon="10.233004">
        <ele>448.252574</ele>
        <time>2021-01-22T16:23:26.703Z</time>
      </trkpt>
      <trkpt lat="45.734169" lon="10.233261">
        <ele>447.992886</ele>
        <time>2021-01-22T16:23:32.622Z</time>
      </trkpt>
      <trkpt lat="45.734041" lon="10.233431">
        <ele>447.870796</ele>
        <time>2021-01-22T16:23:35.533Z</time>
      </trkpt>
      <trkpt lat="45.733864" lon="10.233973">
        <ele>447.578638</ele>
        <time>2021-01-22T16:23:42.095Z</time>
      </trkpt>
      <trkpt lat="45.733643" lon="10.234413">
        <ele>447.313971</ele>
        <time>2021-01-22T16:23:46.807Z</time>
      </trkpt>
      <trkpt lat="45.732940" lon="10.235313">
        <ele>445.870750</ele>
        <time>2021-01-22T16:23:57.109Z</time>
      </trkpt>
      <trkpt lat="45.732526" lon="10.235611">
        <ele>444.666601</ele>
        <time>2021-01-22T16:24:01.922Z</time>
      </trkpt>
      <trkpt lat="45.732220" lon="10.235632">
        <ele>443.870402</ele>
        <time>2021-01-22T16:24:05.048Z</time>
      </trkpt>
      <trkpt lat="45.731880" lon="10.235460">
        <ele>442.933277</ele>
        <time>2021-01-22T16:24:08.732Z</time>
      </trkpt>
      <trkpt lat="45.731485" lon="10.234874">
        <ele>442.321055</ele>
        <time>2021-01-22T16:24:14.513Z</time>
      </trkpt>
      <trkpt lat="45.731339" lon="10.234728">
        <ele>442.350975</ele>
        <time>2021-01-22T16:24:16.667Z</time>
      </trkpt>
      <trkpt lat="45.731231" lon="10.234697">
        <ele>442.369484</ele>
        <time>2021-01-22T16:24:19.004Z</time>
      </trkpt>
      <trkpt lat="45.730706" lon="10.234807">
        <ele>442.458646</ele>
        <time>2021-01-22T16:24:26.868Z</time>
      </trkpt>
      <trkpt lat="45.730245" lon="10.235020">
        <ele>442.540043</ele>
        <time>2021-01-22T16:24:38.529Z</time>
      </trkpt>
      <trkpt lat="45.730074" lon="10.235188">
        <ele>442.579528</ele>
        <time>2021-01-22T16:24:42.680Z</time>
      </trkpt>
      <trkpt lat="45.730048" lon="10.235213">
        <ele>442.590672</ele>
        <time>2021-01-22T16:24:43.137Z</time>
      </trkpt>
      <trkpt lat="45.729854" lon="10.235403">
        <ele>442.674307</ele>
        <time>2021-01-22T16:24:51.009Z</time>
      </trkpt>
      <trkpt lat="45.729408" lon="10.235805">
        <ele>442.861836</ele>
        <time>2021-01-22T16:25:01.979Z</time>
      </trkpt>
      <trkpt lat="45.729037" lon="10.235849">
        <ele>442.994323</ele>
        <time>2021-01-22T16:25:07.918Z</time>
      </trkpt>
      <trkpt lat="45.728831" lon="10.235727">
        <ele>443.073654</ele>
        <time>2021-01-22T16:25:11.176Z</time>
      </trkpt>
      <trkpt lat="45.728663" lon="10.235544">
        <ele>443.148764</ele>
        <time>2021-01-22T16:25:14.224Z</time>
      </trkpt>
      <trkpt lat="45.728445" lon="10.235074">
        <ele>442.059123</ele>
        <time>2021-01-22T16:25:18.486Z</time>
      </trkpt>
      <trkpt lat="45.728346" lon="10.234818">
        <ele>440.986972</ele>
        <time>2021-01-22T16:25:20.398Z</time>
      </trkpt>
      <trkpt lat="45.728088" lon="10.234127">
        <ele>438.116136</ele>
        <time>2021-01-22T16:25:25.399Z</time>
      </trkpt>
      <trkpt lat="45.727967" lon="10.233846">
        <ele>436.906588</ele>
        <time>2021-01-22T16:25:27.512Z</time>
      </trkpt>
      <trkpt lat="45.727524" lon="10.233136">
        <ele>433.482775</ele>
        <time>2021-01-22T16:25:33.522Z</time>
      </trkpt>
      <trkpt lat="45.727440" lon="10.233029">
        <ele>433.001109</ele>
        <time>2021-01-22T16:25:34.503Z</time>
      </trkpt>
      <trkpt lat="45.727360" lon="10.232927">
        <ele>432.542189</ele>
        <time>2021-01-22T16:25:35.529Z</time>
      </trkpt>
      <trkpt lat="45.726938" lon="10.232651">
        <ele>430.554344</ele>
        <time>2021-01-22T16:25:40.069Z</time>
      </trkpt>
      <trkpt lat="45.726753" lon="10.232625">
        <ele>429.757804</ele>
        <time>2021-01-22T16:25:41.843Z</time>
      </trkpt>
      <trkpt lat="45.725803" lon="10.232727">
        <ele>425.711678</ele>
        <time>2021-01-22T16:25:51.482Z</time>
      </trkpt>
      <trkpt lat="45.725480" lon="10.232624">
        <ele>424.425439</ele>
        <time>2021-01-22T16:25:54.891Z</time>
      </trkpt>
      <trkpt lat="45.724057" lon="10.230843">
        <ele>417.342183</ele>
        <time>2021-01-22T16:26:13.217Z</time>
      </trkpt>
      <trkpt lat="45.723949" lon="10.230708">
        <ele>416.858246</ele>
        <time>2021-01-22T16:26:14.645Z</time>
      </trkpt>
      <trkpt lat="45.723718" lon="10.230331">
        <ele>415.675961</ele>
        <time>2021-01-22T16:26:18.167Z</time>
      </trkpt>
      <trkpt lat="45.723645" lon="10.230145">
        <ele>415.173037</ele>
        <time>2021-01-22T16:26:19.628Z</time>
      </trkpt>
      <trkpt lat="45.723526" lon="10.229841">
        <ele>414.351567</ele>
        <time>2021-01-22T16:26:22.214Z</time>
      </trkpt>
      <trkpt lat="45.723226" lon="10.229060">
        <ele>412.222258</ele>
        <time>2021-01-22T16:26:28.852Z</time>
      </trkpt>
      <trkpt lat="45.723103" lon="10.228932">
        <ele>411.689621</ele>
        <time>2021-01-22T16:26:30.419Z</time>
      </trkpt>
      <trkpt lat="45.722796" lon="10.228884">
        <ele>410.607683</ele>
        <time>2021-01-22T16:26:33.588Z</time>
      </trkpt>
      <trkpt lat="45.722547" lon="10.229026">
        <ele>409.668736</ele>
        <time>2021-01-22T16:26:36.221Z</time>
      </trkpt>
      <trkpt lat="45.722260" lon="10.229459">
        <ele>408.208394</ele>
        <time>2021-01-22T16:26:40.339Z</time>
      </trkpt>
      <trkpt lat="45.722033" lon="10.229949">
        <ele>406.770058</ele>
        <time>2021-01-22T16:26:44.338Z</time>
      </trkpt>
      <trkpt lat="45.721863" lon="10.230171">
        <ele>405.879697</ele>
        <time>2021-01-22T16:26:46.511Z</time>
      </trkpt>
      <trkpt lat="45.721674" lon="10.230303">
        <ele>405.058400</ele>
        <time>2021-01-22T16:26:48.557Z</time>
      </trkpt>
      <trkpt lat="45.721443" lon="10.230419">
        <ele>404.102291</ele>
        <time>2021-01-22T16:26:50.992Z</time>
      </trkpt>
      <trkpt lat="45.721307" lon="10.230463">
        <ele>403.557704</ele>
        <time>2021-01-22T16:26:52.293Z</time>
      </trkpt>
      <trkpt lat="45.721226" lon="10.230489">
        <ele>403.233478</ele>
        <time>2021-01-22T16:26:53.092Z</time>
      </trkpt>
      <trkpt lat="45.720954" lon="10.230525">
        <ele>402.166543</ele>
        <time>2021-01-22T16:26:55.735Z</time>
      </trkpt>
      <trkpt lat="45.720660" lon="10.230451">
        <ele>401.000608</ele>
        <time>2021-01-22T16:26:58.668Z</time>
      </trkpt>
      <trkpt lat="45.720362" lon="10.230299">
        <ele>399.765044</ele>
        <time>2021-01-22T16:27:01.757Z</time>
      </trkpt>
      <trkpt lat="45.720176" lon="10.230098">
        <ele>399.387769</ele>
        <time>2021-01-22T16:27:04.183Z</time>
      </trkpt>
      <trkpt lat="45.719251" lon="10.228626">
        <ele>397.502478</ele>
        <time>2021-01-22T16:27:19.991Z</time>
      </trkpt>
      <trkpt lat="45.717779" lon="10.226405">
        <ele>400.089346</ele>
        <time>2021-01-22T16:28:04.530Z</time>
      </trkpt>
      <trkpt lat="45.717532" lon="10.226732">
        <ele>400.960970</ele>
        <time>2021-01-22T16:28:13.719Z</time>
      </trkpt>
      <trkpt lat="45.717316" lon="10.226979">
        <ele>401.677227</ele>
        <time>2021-01-22T16:28:21.020Z</time>
      </trkpt>
      <trkpt lat="45.717232" lon="10.227063">
        <ele>401.942710</ele>
        <time>2021-01-22T16:28:24.074Z</time>
      </trkpt>
      <trkpt lat="45.717113" lon="10.226941">
        <ele>402.321945</ele>
        <time>2021-01-22T16:28:28.507Z</time>
      </trkpt>
      <trkpt lat="45.716921" lon="10.226562">
        <ele>403.169162</ele>
        <time>2021-01-22T16:28:37.600Z</time>
      </trkpt>
      <trkpt lat="45.716846" lon="10.226303">
        <ele>403.676479</ele>
        <time>2021-01-22T16:28:41.947Z</time>
      </trkpt>
      <trkpt lat="45.716599" lon="10.225465">
        <ele>404.070789</ele>
        <time>2021-01-22T16:28:58.181Z</time>
      </trkpt>
      <trkpt lat="45.716539" lon="10.225405">
        <ele>404.001528</ele>
        <time>2021-01-22T16:28:59.097Z</time>
      </trkpt>
      <trkpt lat="45.716512" lon="10.225260">
        <ele>403.902359</ele>
        <time>2021-01-22T16:29:01.620Z</time>
      </trkpt>
      <trkpt lat="45.715926" lon="10.224088">
        <ele>402.949749</ele>
        <time>2021-01-22T16:29:12.571Z</time>
      </trkpt>
      <trkpt lat="45.715689" lon="10.223720">
        <ele>402.382335</ele>
        <time>2021-01-22T16:29:16.208Z</time>
      </trkpt>
      <trkpt lat="45.715411" lon="10.223502">
        <ele>401.240794</ele>
        <time>2021-01-22T16:29:19.477Z</time>
      </trkpt>
      <trkpt lat="45.714776" lon="10.223084">
        <ele>398.723685</ele>
        <time>2021-01-22T16:29:26.305Z</time>
      </trkpt>
      <trkpt lat="45.713551" lon="10.222575">
        <ele>395.019350</ele>
        <time>2021-01-22T16:29:38.781Z</time>
      </trkpt>
      <trkpt lat="45.713125" lon="10.222311">
        <ele>394.057403</ele>
        <time>2021-01-22T16:29:43.709Z</time>
      </trkpt>
      <trkpt lat="45.712692" lon="10.222341">
        <ele>393.159008</ele>
        <time>2021-01-22T16:29:48.752Z</time>
      </trkpt>
      <trkpt lat="45.712319" lon="10.222279">
        <ele>392.606790</ele>
        <time>2021-01-22T16:29:53.812Z</time>
      </trkpt>
      <trkpt lat="45.712211" lon="10.222249">
        <ele>392.820290</ele>
        <time>2021-01-22T16:29:55.479Z</time>
      </trkpt>
      <trkpt lat="45.712197" lon="10.222245">
        <ele>392.847994</ele>
        <time>2021-01-22T16:29:56.118Z</time>
      </trkpt>
      <trkpt lat="45.711864" lon="10.221970">
        <ele>393.593988</ele>
        <time>2021-01-22T16:30:04.369Z</time>
      </trkpt>
      <trkpt lat="45.711563" lon="10.221876">
        <ele>394.191860</ele>
        <time>2021-01-22T16:30:11.297Z</time>
      </trkpt>
      <trkpt lat="45.710902" lon="10.221839">
        <ele>395.475629</ele>
        <time>2021-01-22T16:30:29.309Z</time>
      </trkpt>
      <trkpt lat="45.710730" lon="10.221763">
        <ele>395.824953</ele>
        <time>2021-01-22T16:30:34.027Z</time>
      </trkpt>
      <trkpt lat="45.710547" lon="10.221647">
        <ele>396.106083</ele>
        <time>2021-01-22T16:30:39.587Z</time>
      </trkpt>
      <trkpt lat="45.710451" lon="10.221585">
        <ele>396.213138</ele>
        <time>2021-01-22T16:30:42.011Z</time>
      </trkpt>
      <trkpt lat="45.710236" lon="10.221446">
        <ele>396.452940</ele>
        <time>2021-01-22T16:30:47.696Z</time>
      </trkpt>
      <trkpt lat="45.709653" lon="10.221405">
        <ele>397.046314</ele>
        <time>2021-01-22T16:30:58.958Z</time>
      </trkpt>
      <trkpt lat="45.709543" lon="10.221365">
        <ele>397.161685</ele>
        <time>2021-01-22T16:31:01.723Z</time>
      </trkpt>
      <trkpt lat="45.709150" lon="10.221166">
        <ele>397.585435</ele>
        <time>2021-01-22T16:31:08.197Z</time>
      </trkpt>
      <trkpt lat="45.708927" lon="10.220895">
        <ele>397.916742</ele>
        <time>2021-01-22T16:31:11.864Z</time>
      </trkpt>
      <trkpt lat="45.708791" lon="10.220228">
        <ele>398.663210</ele>
        <time>2021-01-22T16:31:17.184Z</time>
      </trkpt>
      <trkpt lat="45.708684" lon="10.220086">
        <ele>398.887637</ele>
        <time>2021-01-22T16:31:19.063Z</time>
      </trkpt>
      <trkpt lat="45.707847" lon="10.219631">
        <ele>400.264946</ele>
        <time>2021-01-22T16:31:40.152Z</time>
      </trkpt>
      <trkpt lat="45.707777" lon="10.219594">
        <ele>400.379737</ele>
        <time>2021-01-22T16:31:41.118Z</time>
      </trkpt>
      <trkpt lat="45.707754" lon="10.219669">
        <ele>400.467736</ele>
        <time>2021-01-22T16:31:45.058Z</time>
      </trkpt>
      <trkpt lat="45.707502" lon="10.219791">
        <ele>401.710347</ele>
        <time>2021-01-22T16:31:53.353Z</time>
      </trkpt>
      <trkpt lat="45.707219" lon="10.219779">
        <ele>403.383218</ele>
        <time>2021-01-22T16:32:05.957Z</time>
      </trkpt>
      <trkpt lat="45.707112" lon="10.219767">
        <ele>404.017375</ele>
        <time>2021-01-22T16:32:08.836Z</time>
      </trkpt>
      <trkpt lat="45.706958" lon="10.219750">
        <ele>404.930002</ele>
        <time>2021-01-22T16:32:19.089Z</time>
      </trkpt>
      <trkpt lat="45.705958" lon="10.219672">
        <ele>410.847376</ele>
        <time>2021-01-22T16:33:02.131Z</time>
      </trkpt>
      <trkpt lat="45.705828" lon="10.219602">
        <ele>411.140150</ele>
        <time>2021-01-22T16:33:04.709Z</time>
      </trkpt>
      <trkpt lat="45.705487" lon="10.219011">
        <ele>410.648982</ele>
        <time>2021-01-22T16:33:16.800Z</time>
      </trkpt>
      <trkpt lat="45.705473" lon="10.218968">
        <ele>410.618585</ele>
        <time>2021-01-22T16:33:19.323Z</time>
      </trkpt>
      <trkpt lat="45.705412" lon="10.218813">
        <ele>410.504594</ele>
        <time>2021-01-22T16:33:20.630Z</time>
      </trkpt>
      <trkpt lat="45.705377" lon="10.218716">
        <ele>410.434642</ele>
        <time>2021-01-22T16:33:21.301Z</time>
      </trkpt>
      <trkpt lat="45.705348" lon="10.218409">
        <ele>410.236158</ele>
        <time>2021-01-22T16:33:28.530Z</time>
      </trkpt>
      <trkpt lat="45.705348" lon="10.218254">
        <ele>410.136851</ele>
        <time>2021-01-22T16:33:29.508Z</time>
      </trkpt>
      <trkpt lat="45.705363" lon="10.218076">
        <ele>410.021980</ele>
        <time>2021-01-22T16:33:30.760Z</time>
      </trkpt>
      <trkpt lat="45.705358" lon="10.217844">
        <ele>409.873269</ele>
        <time>2021-01-22T16:33:33.531Z</time>
      </trkpt>
      <trkpt lat="45.705354" lon="10.217707">
        <ele>409.785417</ele>
        <time>2021-01-22T16:33:34.341Z</time>
      </trkpt>
      <trkpt lat="45.705327" lon="10.217532">
        <ele>409.670592</ele>
        <time>2021-01-22T16:33:35.507Z</time>
      </trkpt>
      <trkpt lat="45.705213" lon="10.217388">
        <ele>409.321720</ele>
        <time>2021-01-22T16:33:37.198Z</time>
      </trkpt>
      <trkpt lat="45.705183" lon="10.217343">
        <ele>409.001974</ele>
        <time>2021-01-22T16:33:37.558Z</time>
      </trkpt>
      <trkpt lat="45.705131" lon="10.217229">
        <ele>408.302155</ele>
        <time>2021-01-22T16:33:38.368Z</time>
      </trkpt>
      <trkpt lat="45.704991" lon="10.216933">
        <ele>406.464768</ele>
        <time>2021-01-22T16:33:40.680Z</time>
      </trkpt>
      <trkpt lat="45.704946" lon="10.216896">
        <ele>406.082875</ele>
        <time>2021-01-22T16:33:41.110Z</time>
      </trkpt>
      <trkpt lat="45.704887" lon="10.216900">
        <ele>405.648174</ele>
        <time>2021-01-22T16:33:41.608Z</time>
      </trkpt>
      <trkpt lat="45.704692" lon="10.216986">
        <ele>404.146534</ele>
        <time>2021-01-22T16:33:43.395Z</time>
      </trkpt>
      <trkpt lat="45.704603" lon="10.216876">
        <ele>403.281285</ele>
        <time>2021-01-22T16:33:44.380Z</time>
      </trkpt>
      <trkpt lat="45.704609" lon="10.216715">
        <ele>402.452631</ele>
        <time>2021-01-22T16:33:45.360Z</time>
      </trkpt>
      <trkpt lat="45.704595" lon="10.216207">
        <ele>399.839677</ele>
        <time>2021-01-22T16:33:48.585Z</time>
      </trkpt>
      <trkpt lat="45.704448" lon="10.215804">
        <ele>397.502894</ele>
        <time>2021-01-22T16:33:51.547Z</time>
      </trkpt>
      <trkpt lat="45.704312" lon="10.215614">
        <ele>396.146696</ele>
        <time>2021-01-22T16:33:53.355Z</time>
      </trkpt>
      <trkpt lat="45.704120" lon="10.215409">
        <ele>394.723139</ele>
        <time>2021-01-22T16:33:55.532Z</time>
      </trkpt>
      <trkpt lat="45.704177" lon="10.215312">
        <ele>394.196917</ele>
        <time>2021-01-22T16:33:56.371Z</time>
      </trkpt>
      <trkpt lat="45.704203" lon="10.215237">
        <ele>393.849346</ele>
        <time>2021-01-22T16:33:56.945Z</time>
      </trkpt>
      <trkpt lat="45.704203" lon="10.215175">
        <ele>393.591984</ele>
        <time>2021-01-22T16:33:57.313Z</time>
      </trkpt>
      <trkpt lat="45.704167" lon="10.215080">
        <ele>393.143326</ele>
        <time>2021-01-22T16:33:57.995Z</time>
      </trkpt>
      <trkpt lat="45.704102" lon="10.215029">
        <ele>392.702775</ele>
        <time>2021-01-22T16:33:58.635Z</time>
      </trkpt>
      <trkpt lat="45.703967" lon="10.215102">
        <ele>391.845041</ele>
        <time>2021-01-22T16:33:59.910Z</time>
      </trkpt>
      <trkpt lat="45.703916" lon="10.215180">
        <ele>391.401504</ele>
        <time>2021-01-22T16:34:00.572Z</time>
      </trkpt>
      <trkpt lat="45.703759" lon="10.215042">
        <ele>390.306521</ele>
        <time>2021-01-22T16:34:02.234Z</time>
      </trkpt>
      <trkpt lat="45.703212" lon="10.214290">
        <ele>385.799277</ele>
        <time>2021-01-22T16:34:09.329Z</time>
      </trkpt>
      <trkpt lat="45.703013" lon="10.214042">
        <ele>384.557957</ele>
        <time>2021-01-22T16:34:12.045Z</time>
      </trkpt>
      <trkpt lat="45.702980" lon="10.214002">
        <ele>384.360880</ele>
        <time>2021-01-22T16:34:12.462Z</time>
      </trkpt>
      <trkpt lat="45.700960" lon="10.211702">
        <ele>371.778619</ele>
        <time>2021-01-22T16:34:37.096Z</time>
      </trkpt>
      <trkpt lat="45.700889" lon="10.211493">
        <ele>370.913548</ele>
        <time>2021-01-22T16:34:38.550Z</time>
      </trkpt>
      <trkpt lat="45.700519" lon="10.210410">
        <ele>366.771414</ele>
        <time>2021-01-22T16:34:46.293Z</time>
      </trkpt>
      <trkpt lat="45.700457" lon="10.210250">
        <ele>366.255719</ele>
        <time>2021-01-22T16:34:47.466Z</time>
      </trkpt>
      <trkpt lat="45.700422" lon="10.210164">
        <ele>365.975191</ele>
        <time>2021-01-22T16:34:48.089Z</time>
      </trkpt>
      <trkpt lat="45.700413" lon="10.210142">
        <ele>365.903333</ele>
        <time>2021-01-22T16:34:48.246Z</time>
      </trkpt>
      <trkpt lat="45.700359" lon="10.209999">
        <ele>365.445168</ele>
        <time>2021-01-22T16:34:49.329Z</time>
      </trkpt>
      <trkpt lat="45.700518" lon="10.209577">
        <ele>364.093785</ele>
        <time>2021-01-22T16:34:52.405Z</time>
      </trkpt>
      <trkpt lat="45.700547" lon="10.209485">
        <ele>363.809311</ele>
        <time>2021-01-22T16:34:53.133Z</time>
      </trkpt>
      <trkpt lat="45.700729" lon="10.208990">
        <ele>362.232713</ele>
        <time>2021-01-22T16:34:57.112Z</time>
      </trkpt>
      <trkpt lat="45.700941" lon="10.208348">
        <ele>360.645288</ele>
        <time>2021-01-22T16:35:02.854Z</time>
      </trkpt>
      <trkpt lat="45.701033" lon="10.208173">
        <ele>360.739914</ele>
        <time>2021-01-22T16:35:05.011Z</time>
      </trkpt>
      <trkpt lat="45.701199" lon="10.208027">
        <ele>360.860420</ele>
        <time>2021-01-22T16:35:08.283Z</time>
      </trkpt>
      <trkpt lat="45.701297" lon="10.207913">
        <ele>360.938523</ele>
        <time>2021-01-22T16:35:09.795Z</time>
      </trkpt>
      <trkpt lat="45.701367" lon="10.207851">
        <ele>360.989437</ele>
        <time>2021-01-22T16:35:11.641Z</time>
      </trkpt>
      <trkpt lat="45.701607" lon="10.207696">
        <ele>361.152295</ele>
        <time>2021-01-22T16:35:15.874Z</time>
      </trkpt>
      <trkpt lat="45.701661" lon="10.207628">
        <ele>361.196778</ele>
        <time>2021-01-22T16:35:17.636Z</time>
      </trkpt>
      <trkpt lat="45.701924" lon="10.207202">
        <ele>361.442407</ele>
        <time>2021-01-22T16:35:25.857Z</time>
      </trkpt>
      <trkpt lat="45.702093" lon="10.206693">
        <ele>361.685879</ele>
        <time>2021-01-22T16:35:34.180Z</time>
      </trkpt>
      <trkpt lat="45.702207" lon="10.206632">
        <ele>361.738027</ele>
        <time>2021-01-22T16:35:37.301Z</time>
      </trkpt>
      <trkpt lat="45.702164" lon="10.206420">
        <ele>361.795569</ele>
        <time>2021-01-22T16:35:40.217Z</time>
      </trkpt>
      <trkpt lat="45.702133" lon="10.206132">
        <ele>361.871525</ele>
        <time>2021-01-22T16:35:45.119Z</time>
      </trkpt>
      <trkpt lat="45.702036" lon="10.205154">
        <ele>362.129005</ele>
        <time>2021-01-22T16:35:57.943Z</time>
      </trkpt>
      <trkpt lat="45.701796" lon="10.203372">
        <ele>361.345374</ele>
        <time>2021-01-22T16:36:13.057Z</time>
      </trkpt>
      <trkpt lat="45.701673" lon="10.202530">
        <ele>360.333276</ele>
        <time>2021-01-22T16:36:19.864Z</time>
      </trkpt>
      <trkpt lat="45.701640" lon="10.202307">
        <ele>360.065079</ele>
        <time>2021-01-22T16:36:21.582Z</time>
      </trkpt>
      <trkpt lat="45.701407" lon="10.201047">
        <ele>357.925563</ele>
        <time>2021-01-22T16:36:31.527Z</time>
      </trkpt>
      <trkpt lat="45.701416" lon="10.199890">
        <ele>355.548897</ele>
        <time>2021-01-22T16:36:39.823Z</time>
      </trkpt>
      <trkpt lat="45.701023" lon="10.198690">
        <ele>352.607861</ele>
        <time>2021-01-22T16:36:49.048Z</time>
      </trkpt>
      <trkpt lat="45.700812" lon="10.198399">
        <ele>351.592791</ele>
        <time>2021-01-22T16:36:51.937Z</time>
      </trkpt>
      <trkpt lat="45.700659" lon="10.198206">
        <ele>350.886279</ele>
        <time>2021-01-22T16:36:53.952Z</time>
      </trkpt>
      <trkpt lat="45.700654" lon="10.198194">
        <ele>350.852465</ele>
        <time>2021-01-22T16:36:54.051Z</time>
      </trkpt>
      <trkpt lat="45.700646" lon="10.198185">
        <ele>350.817214</ele>
        <time>2021-01-22T16:36:54.150Z</time>
      </trkpt>
      <trkpt lat="45.700641" lon="10.198087">
        <ele>350.579432</ele>
        <time>2021-01-22T16:36:54.852Z</time>
      </trkpt>
      <trkpt lat="45.700592" lon="10.198016">
        <ele>350.337887</ele>
        <time>2021-01-22T16:36:55.545Z</time>
      </trkpt>
      <trkpt lat="45.700564" lon="10.197875">
        <ele>349.983157</ele>
        <time>2021-01-22T16:36:56.572Z</time>
      </trkpt>
      <trkpt lat="45.700486" lon="10.197449">
        <ele>348.917442</ele>
        <time>2021-01-22T16:36:59.643Z</time>
      </trkpt>
      <trkpt lat="45.700263" lon="10.195100">
        <ele>344.217443</ele>
        <time>2021-01-22T16:37:16.692Z</time>
      </trkpt>
      <trkpt lat="45.699675" lon="10.193337">
        <ele>343.807786</ele>
        <time>2021-01-22T16:37:31.796Z</time>
      </trkpt>
      <trkpt lat="45.699690" lon="10.192776">
        <ele>344.165458</ele>
        <time>2021-01-22T16:37:36.661Z</time>
      </trkpt>
      <trkpt lat="45.699494" lon="10.192019">
        <ele>344.968979</ele>
        <time>2021-01-22T16:38:00.023Z</time>
      </trkpt>
      <trkpt lat="45.699423" lon="10.191892">
        <ele>345.596714</ele>
        <time>2021-01-22T16:38:04.993Z</time>
      </trkpt>
      <trkpt lat="45.699393" lon="10.191851">
        <ele>345.825853</ele>
        <time>2021-01-22T16:38:06.320Z</time>
      </trkpt>
      <trkpt lat="45.699394" lon="10.191804">
        <ele>346.007302</ele>
        <time>2021-01-22T16:38:07.879Z</time>
      </trkpt>
      <trkpt lat="45.699299" lon="10.191625">
        <ele>346.874831</ele>
        <time>2021-01-22T16:38:16.132Z</time>
      </trkpt>
      <trkpt lat="45.699267" lon="10.191613">
        <ele>347.057596</ele>
        <time>2021-01-22T16:38:17.522Z</time>
      </trkpt>
      <trkpt lat="45.699238" lon="10.191612">
        <ele>347.217869</ele>
        <time>2021-01-22T16:38:18.742Z</time>
      </trkpt>
      <trkpt lat="45.699210" lon="10.191618">
        <ele>347.374293</ele>
        <time>2021-01-22T16:38:19.884Z</time>
      </trkpt>
      <trkpt lat="45.699183" lon="10.191632">
        <ele>347.532950</ele>
        <time>2021-01-22T16:38:21.100Z</time>
      </trkpt>
      <trkpt lat="45.699149" lon="10.191664">
        <ele>347.757753</ele>
        <time>2021-01-22T16:38:22.425Z</time>
      </trkpt>
      <trkpt lat="45.699123" lon="10.191708">
        <ele>347.980158</ele>
        <time>2021-01-22T16:38:24.097Z</time>
      </trkpt>
      <trkpt lat="45.699089" lon="10.191723">
        <ele>348.176725</ele>
        <time>2021-01-22T16:38:25.640Z</time>
      </trkpt>
      <trkpt lat="45.699050" lon="10.191735">
        <ele>348.397122</ele>
        <time>2021-01-22T16:38:27.477Z</time>
      </trkpt>
      <trkpt lat="45.698992" lon="10.191705">
        <ele>348.737844</ele>
        <time>2021-01-22T16:38:31.327Z</time>
      </trkpt>
      <trkpt lat="45.698716" lon="10.191564">
        <ele>350.356920</ele>
        <time>2021-01-22T16:38:42.211Z</time>
      </trkpt>
      <trkpt lat="45.698322" lon="10.191360">
        <ele>352.671757</ele>
        <time>2021-01-22T16:38:59.230Z</time>
      </trkpt>
      <trkpt lat="45.698129" lon="10.190254">
        <ele>352.545181</ele>
        <time>2021-01-22T16:39:20.970Z</time>
      </trkpt>
      <trkpt lat="45.697692" lon="10.189465">
        <ele>349.426438</ele>
        <time>2021-01-22T16:39:27.878Z</time>
      </trkpt>
      <trkpt lat="45.697100" lon="10.188991">
        <ele>346.272447</ele>
        <time>2021-01-22T16:39:33.653Z</time>
      </trkpt>
      <trkpt lat="45.696998" lon="10.188781">
        <ele>344.781064</ele>
        <time>2021-01-22T16:39:35.148Z</time>
      </trkpt>
      <trkpt lat="45.696939" lon="10.188623">
        <ele>343.736437</ele>
        <time>2021-01-22T16:39:36.277Z</time>
      </trkpt>
      <trkpt lat="45.696838" lon="10.188243">
        <ele>341.365813</ele>
        <time>2021-01-22T16:39:38.692Z</time>
      </trkpt>
      <trkpt lat="45.696731" lon="10.188076">
        <ele>340.044469</ele>
        <time>2021-01-22T16:39:40.106Z</time>
      </trkpt>
      <trkpt lat="45.696568" lon="10.187979">
        <ele>338.570912</ele>
        <time>2021-01-22T16:39:41.605Z</time>
      </trkpt>
      <trkpt lat="45.695742" lon="10.187777">
        <ele>331.575726</ele>
        <time>2021-01-22T16:39:49.113Z</time>
      </trkpt>
      <trkpt lat="45.695704" lon="10.187766">
        <ele>331.477026</ele>
        <time>2021-01-22T16:39:49.487Z</time>
      </trkpt>
      <trkpt lat="45.695603" lon="10.187736">
        <ele>331.225994</ele>
        <time>2021-01-22T16:39:50.577Z</time>
      </trkpt>
      <trkpt lat="45.695190" lon="10.187504">
        <ele>330.146299</ele>
        <time>2021-01-22T16:39:55.644Z</time>
      </trkpt>
      <trkpt lat="45.694378" lon="10.187001">
        <ele>327.993132</ele>
        <time>2021-01-22T16:40:05.538Z</time>
      </trkpt>
      <trkpt lat="45.694269" lon="10.186933">
        <ele>327.703774</ele>
        <time>2021-01-22T16:40:06.817Z</time>
      </trkpt>
      <trkpt lat="45.693823" lon="10.186677">
        <ele>326.732632</ele>
        <time>2021-01-22T16:40:12.394Z</time>
      </trkpt>
      <trkpt lat="45.693525" lon="10.186505">
        <ele>326.186301</ele>
        <time>2021-01-22T16:40:16.088Z</time>
      </trkpt>
      <trkpt lat="45.693369" lon="10.186415">
        <ele>325.900320</ele>
        <time>2021-01-22T16:40:17.943Z</time>
      </trkpt>
      <trkpt lat="45.693125" lon="10.186303">
        <ele>325.464633</ele>
        <time>2021-01-22T16:40:20.948Z</time>
      </trkpt>
      <trkpt lat="45.692891" lon="10.186222">
        <ele>325.055287</ele>
        <time>2021-01-22T16:40:23.673Z</time>
      </trkpt>
      <trkpt lat="45.692559" lon="10.186163">
        <ele>324.486441</ele>
        <time>2021-01-22T16:40:27.441Z</time>
      </trkpt>
      <trkpt lat="45.692115" lon="10.186117">
        <ele>323.716940</ele>
        <time>2021-01-22T16:40:32.352Z</time>
      </trkpt>
      <trkpt lat="45.691957" lon="10.186107">
        <ele>323.439663</ele>
        <time>2021-01-22T16:40:33.978Z</time>
      </trkpt>
      <trkpt lat="45.691911" lon="10.186103">
        <ele>323.358867</ele>
        <time>2021-01-22T16:40:34.473Z</time>
      </trkpt>
      <trkpt lat="45.691655" lon="10.186086">
        <ele>322.909565</ele>
        <time>2021-01-22T16:40:37.253Z</time>
      </trkpt>
      <trkpt lat="45.691476" lon="10.186079">
        <ele>322.595625</ele>
        <time>2021-01-22T16:40:39.222Z</time>
      </trkpt>
      <trkpt lat="45.690953" lon="10.186071">
        <ele>321.678648</ele>
        <time>2021-01-22T16:40:45.243Z</time>
      </trkpt>
      <trkpt lat="45.690843" lon="10.186100">
        <ele>321.482552</ele>
        <time>2021-01-22T16:40:46.495Z</time>
      </trkpt>
      <trkpt lat="45.690663" lon="10.186274">
        <ele>321.101768</ele>
        <time>2021-01-22T16:40:49.222Z</time>
      </trkpt>
      <trkpt lat="45.690627" lon="10.186343">
        <ele>320.996297</ele>
        <time>2021-01-22T16:40:49.871Z</time>
      </trkpt>
      <trkpt lat="45.690591" lon="10.186440">
        <ele>320.875979</ele>
        <time>2021-01-22T16:40:50.760Z</time>
      </trkpt>
      <trkpt lat="45.690513" lon="10.186640">
        <ele>320.628974</ele>
        <time>2021-01-22T16:40:52.802Z</time>
      </trkpt>
      <trkpt lat="45.690419" lon="10.186898">
        <ele>320.315192</ele>
        <time>2021-01-22T16:40:55.007Z</time>
      </trkpt>
      <trkpt lat="45.690377" lon="10.187008">
        <ele>320.180010</ele>
        <time>2021-01-22T16:40:56.208Z</time>
      </trkpt>
      <trkpt lat="45.690298" lon="10.187173">
        <ele>319.964300</ele>
        <time>2021-01-22T16:40:57.784Z</time>
      </trkpt>
      <trkpt lat="45.690202" lon="10.187302">
        <ele>319.761044</ele>
        <time>2021-01-22T16:40:59.207Z</time>
      </trkpt>
      <trkpt lat="45.690125" lon="10.187362">
        <ele>319.625709</ele>
        <time>2021-01-22T16:41:00.407Z</time>
      </trkpt>
      <trkpt lat="45.689675" lon="10.187620">
        <ele>318.877392</ele>
        <time>2021-01-22T16:41:05.872Z</time>
      </trkpt>
      <trkpt lat="45.689418" lon="10.187722">
        <ele>318.465690</ele>
        <time>2021-01-22T16:41:08.836Z</time>
      </trkpt>
      <trkpt lat="45.689140" lon="10.187756">
        <ele>318.080137</ele>
        <time>2021-01-22T16:41:11.896Z</time>
      </trkpt>
      <trkpt lat="45.688619" lon="10.187727">
        <ele>317.490294</ele>
        <time>2021-01-22T16:41:18.178Z</time>
      </trkpt>
      <trkpt lat="45.688390" lon="10.187643">
        <ele>317.222861</ele>
        <time>2021-01-22T16:41:21.001Z</time>
      </trkpt>
      <trkpt lat="45.687855" lon="10.187298">
        <ele>316.559051</ele>
        <time>2021-01-22T16:41:28.094Z</time>
      </trkpt>
      <trkpt lat="45.687548" lon="10.187100">
        <ele>316.178126</ele>
        <time>2021-01-22T16:41:32.478Z</time>
      </trkpt>
      <trkpt lat="45.687280" lon="10.186951">
        <ele>315.934050</ele>
        <time>2021-01-22T16:41:36.208Z</time>
      </trkpt>
      <trkpt lat="45.686846" lon="10.186711">
        <ele>315.542754</ele>
        <time>2021-01-22T16:41:41.944Z</time>
      </trkpt>
      <trkpt lat="45.686528" lon="10.186632">
        <ele>315.271309</ele>
        <time>2021-01-22T16:41:45.928Z</time>
      </trkpt>
      <trkpt lat="45.686511" lon="10.186628">
        <ele>315.256820</ele>
        <time>2021-01-22T16:41:46.165Z</time>
      </trkpt>
      <trkpt lat="45.686378" lon="10.186634">
        <ele>315.144908</ele>
        <time>2021-01-22T16:41:48.139Z</time>
      </trkpt>
      <trkpt lat="45.686333" lon="10.186636">
        <ele>315.107043</ele>
        <time>2021-01-22T16:41:48.781Z</time>
      </trkpt>
      <trkpt lat="45.686104" lon="10.186694">
        <ele>314.911456</ele>
        <time>2021-01-22T16:41:53.036Z</time>
      </trkpt>
      <trkpt lat="45.685987" lon="10.186663">
        <ele>314.811384</ele>
        <time>2021-01-22T16:41:55.255Z</time>
      </trkpt>
      <trkpt lat="45.685902" lon="10.186612">
        <ele>314.733871</ele>
        <time>2021-01-22T16:41:56.784Z</time>
      </trkpt>
      <trkpt lat="45.685898" lon="10.186575">
        <ele>314.711873</ele>
        <time>2021-01-22T16:41:57.129Z</time>
      </trkpt>
      <trkpt lat="45.685878" lon="10.186512">
        <ele>314.671216</ele>
        <time>2021-01-22T16:41:57.701Z</time>
      </trkpt>
      <trkpt lat="45.685813" lon="10.186440">
        <ele>314.569207</ele>
        <time>2021-01-22T16:41:58.790Z</time>
      </trkpt>
      <trkpt lat="45.685724" lon="10.186440">
        <ele>314.449144</ele>
        <time>2021-01-22T16:41:59.828Z</time>
      </trkpt>
      <trkpt lat="45.685367" lon="10.186637">
        <ele>313.932999</ele>
        <time>2021-01-22T16:42:04.230Z</time>
      </trkpt>
      <trkpt lat="45.685312" lon="10.186730">
        <ele>313.818165</ele>
        <time>2021-01-22T16:42:05.118Z</time>
      </trkpt>
      <trkpt lat="45.684924" lon="10.187011">
        <ele>313.231566</ele>
        <time>2021-01-22T16:42:09.978Z</time>
      </trkpt>
      <trkpt lat="45.684563" lon="10.187274">
        <ele>312.685124</ele>
        <time>2021-01-22T16:42:14.678Z</time>
      </trkpt>
      <trkpt lat="45.684259" lon="10.187480">
        <ele>312.231390</ele>
        <time>2021-01-22T16:42:18.849Z</time>
      </trkpt>
      <trkpt lat="45.684198" lon="10.187522">
        <ele>312.155334</ele>
        <time>2021-01-22T16:42:19.691Z</time>
      </trkpt>
      <trkpt lat="45.684106" lon="10.187545">
        <ele>312.050693</ele>
        <time>2021-01-22T16:42:20.971Z</time>
      </trkpt>
      <trkpt lat="45.684053" lon="10.187559">
        <ele>311.990307</ele>
        <time>2021-01-22T16:42:21.597Z</time>
      </trkpt>
      <trkpt lat="45.683977" lon="10.187570">
        <ele>311.904719</ele>
        <time>2021-01-22T16:42:22.458Z</time>
      </trkpt>
      <trkpt lat="45.683863" lon="10.187581">
        <ele>311.776699</ele>
        <time>2021-01-22T16:42:23.835Z</time>
      </trkpt>
      <trkpt lat="45.683768" lon="10.187581">
        <ele>311.670257</ele>
        <time>2021-01-22T16:42:25.095Z</time>
      </trkpt>
      <trkpt lat="45.683374" lon="10.187534">
        <ele>311.227272</ele>
        <time>2021-01-22T16:42:29.859Z</time>
      </trkpt>
      <trkpt lat="45.682987" lon="10.187488">
        <ele>310.792169</ele>
        <time>2021-01-22T16:42:34.574Z</time>
      </trkpt>
      <trkpt lat="45.682269" lon="10.187402">
        <ele>309.882934</ele>
        <time>2021-01-22T16:42:43.150Z</time>
      </trkpt>
      <trkpt lat="45.681998" lon="10.187370">
        <ele>309.443208</ele>
        <time>2021-01-22T16:42:46.331Z</time>
      </trkpt>
      <trkpt lat="45.681771" lon="10.187343">
        <ele>309.074858</ele>
        <time>2021-01-22T16:42:48.871Z</time>
      </trkpt>
      <trkpt lat="45.681764" lon="10.187467">
        <ele>308.934308</ele>
        <time>2021-01-22T16:42:49.954Z</time>
      </trkpt>
      <trkpt lat="45.681227" lon="10.187417">
        <ele>308.064084</ele>
        <time>2021-01-22T16:42:55.812Z</time>
      </trkpt>
      <trkpt lat="45.680680" lon="10.187391">
        <ele>307.164362</ele>
        <time>2021-01-22T16:43:02.066Z</time>
      </trkpt>
      <trkpt lat="45.680519" lon="10.187367">
        <ele>306.872405</ele>
        <time>2021-01-22T16:43:03.853Z</time>
      </trkpt>
      <trkpt lat="45.680459" lon="10.187358">
        <ele>306.763593</ele>
        <time>2021-01-22T16:43:08.094Z</time>
      </trkpt>
      <trkpt lat="45.680460" lon="10.187410">
        <ele>306.698042</ele>
        <time>2021-01-22T16:43:08.541Z</time>
      </trkpt>
      <trkpt lat="45.680264" lon="10.187374">
        <ele>306.341629</ele>
        <time>2021-01-22T16:43:10.891Z</time>
      </trkpt>
      <trkpt lat="45.680156" lon="10.187371">
        <ele>306.146799</ele>
        <time>2021-01-22T16:43:12.059Z</time>
      </trkpt>
      <trkpt lat="45.679997" lon="10.187366">
        <ele>305.859951</ele>
        <time>2021-01-22T16:43:13.895Z</time>
      </trkpt>
      <trkpt lat="45.679769" lon="10.187403">
        <ele>305.446085</ele>
        <time>2021-01-22T16:43:16.419Z</time>
      </trkpt>
      <trkpt lat="45.679755" lon="10.187413">
        <ele>305.417865</ele>
        <time>2021-01-22T16:43:16.617Z</time>
      </trkpt>
      <trkpt lat="45.679611" lon="10.187509">
        <ele>305.131348</ele>
        <time>2021-01-22T16:43:18.423Z</time>
      </trkpt>
      <trkpt lat="45.679599" lon="10.187457">
        <ele>305.062339</ele>
        <time>2021-01-22T16:43:18.872Z</time>
      </trkpt>
      <trkpt lat="45.679580" lon="10.187464">
        <ele>305.026952</ele>
        <time>2021-01-22T16:43:20.217Z</time>
      </trkpt>
      <trkpt lat="45.679519" lon="10.187486">
        <ele>304.913491</ele>
        <time>2021-01-22T16:43:20.888Z</time>
      </trkpt>
      <trkpt lat="45.679386" lon="10.187519">
        <ele>304.670029</ele>
        <time>2021-01-22T16:43:22.355Z</time>
      </trkpt>
      <trkpt lat="45.679220" lon="10.187560">
        <ele>304.366199</ele>
        <time>2021-01-22T16:43:24.230Z</time>
      </trkpt>
      <trkpt lat="45.678705" lon="10.187683">
        <ele>303.418588</ele>
        <time>2021-01-22T16:43:29.931Z</time>
      </trkpt>
      <trkpt lat="45.678671" lon="10.187692">
        <ele>303.355648</ele>
        <time>2021-01-22T16:43:32.360Z</time>
      </trkpt>
      <trkpt lat="45.678668" lon="10.187637">
        <ele>303.285485</ele>
        <time>2021-01-22T16:43:32.789Z</time>
      </trkpt>
      <trkpt lat="45.678417" lon="10.187715">
        <ele>302.817943</ele>
        <time>2021-01-22T16:43:35.625Z</time>
      </trkpt>
      <trkpt lat="45.678279" lon="10.187754">
        <ele>302.561890</ele>
        <time>2021-01-22T16:43:37.145Z</time>
      </trkpt>
      <trkpt lat="45.678286" lon="10.187806">
        <ele>302.494539</ele>
        <time>2021-01-22T16:43:37.583Z</time>
      </trkpt>
      <trkpt lat="45.677927" lon="10.187920">
        <ele>301.825157</ele>
        <time>2021-01-22T16:43:41.640Z</time>
      </trkpt>
      <trkpt lat="45.677146" lon="10.188168">
        <ele>300.476583</ele>
        <time>2021-01-22T16:43:50.822Z</time>
      </trkpt>
      <trkpt lat="45.676550" lon="10.188331">
        <ele>299.655752</ele>
        <time>2021-01-22T16:43:57.872Z</time>
      </trkpt>
      <trkpt lat="45.676369" lon="10.188389">
        <ele>299.404841</ele>
        <time>2021-01-22T16:44:00.060Z</time>
      </trkpt>
      <trkpt lat="45.676247" lon="10.188416">
        <ele>299.237843</ele>
        <time>2021-01-22T16:44:01.537Z</time>
      </trkpt>
      <trkpt lat="45.676229" lon="10.188310">
        <ele>299.134737</ele>
        <time>2021-01-22T16:44:02.431Z</time>
      </trkpt>
      <trkpt lat="45.676004" lon="10.188292">
        <ele>298.829892</ele>
        <time>2021-01-22T16:44:04.994Z</time>
      </trkpt>
      <trkpt lat="45.675934" lon="10.188284">
        <ele>298.734897</ele>
        <time>2021-01-22T16:44:05.856Z</time>
      </trkpt>
      <trkpt lat="45.674715" lon="10.188141">
        <ele>297.433716</ele>
        <time>2021-01-22T16:44:20.418Z</time>
      </trkpt>
      <trkpt lat="45.674584" lon="10.188144">
        <ele>297.305617</ele>
        <time>2021-01-22T16:44:21.833Z</time>
      </trkpt>
      <trkpt lat="45.674326" lon="10.188149">
        <ele>297.053342</ele>
        <time>2021-01-22T16:44:24.853Z</time>
      </trkpt>
      <trkpt lat="45.673636" lon="10.188310">
        <ele>297.235963</ele>
        <time>2021-01-22T16:44:34.009Z</time>
      </trkpt>
      <trkpt lat="45.673195" lon="10.188423">
        <ele>298.472621</ele>
        <time>2021-01-22T16:44:42.764Z</time>
      </trkpt>
      <trkpt lat="45.672962" lon="10.188483">
        <ele>299.126104</ele>
        <time>2021-01-22T16:44:50.400Z</time>
      </trkpt>
      <trkpt lat="45.672725" lon="10.188571">
        <ele>299.801960</ele>
        <time>2021-01-22T16:45:01.651Z</time>
      </trkpt>
      <trkpt lat="45.672699" lon="10.188581">
        <ele>299.876275</ele>
        <time>2021-01-22T16:45:03.471Z</time>
      </trkpt>
      <trkpt lat="45.672356" lon="10.188790">
        <ele>300.905310</ele>
        <time>2021-01-22T16:45:17.010Z</time>
      </trkpt>
      <trkpt lat="45.672286" lon="10.188825">
        <ele>301.109986</ele>
        <time>2021-01-22T16:45:19.052Z</time>
      </trkpt>
      <trkpt lat="45.672196" lon="10.188871">
        <ele>301.373783</ele>
        <time>2021-01-22T16:45:21.260Z</time>
      </trkpt>
      <trkpt lat="45.671990" lon="10.188911">
        <ele>301.432514</ele>
        <time>2021-01-22T16:45:26.230Z</time>
      </trkpt>
      <trkpt lat="45.671888" lon="10.188907">
        <ele>301.338730</ele>
        <time>2021-01-22T16:45:27.817Z</time>
      </trkpt>
      <trkpt lat="45.671795" lon="10.188931">
        <ele>301.251875</ele>
        <time>2021-01-22T16:45:28.831Z</time>
      </trkpt>
      <trkpt lat="45.671697" lon="10.188979">
        <ele>301.156673</ele>
        <time>2021-01-22T16:45:29.850Z</time>
      </trkpt>
      <trkpt lat="45.671691" lon="10.188990">
        <ele>301.147711</ele>
        <time>2021-01-22T16:45:30.407Z</time>
      </trkpt>
      <trkpt lat="45.671645" lon="10.189078">
        <ele>301.077130</ele>
        <time>2021-01-22T16:45:32.426Z</time>
      </trkpt>
      <trkpt lat="45.671524" lon="10.189471">
        <ele>300.801313</ele>
        <time>2021-01-22T16:45:35.738Z</time>
      </trkpt>
      <trkpt lat="45.671488" lon="10.189500">
        <ele>300.763344</ele>
        <time>2021-01-22T16:45:37.364Z</time>
      </trkpt>
      <trkpt lat="45.671392" lon="10.189487">
        <ele>300.674715</ele>
        <time>2021-01-22T16:45:38.568Z</time>
      </trkpt>
      <trkpt lat="45.670939" lon="10.189354">
        <ele>300.249689</ele>
        <time>2021-01-22T16:45:44.016Z</time>
      </trkpt>
      <trkpt lat="45.670821" lon="10.189328">
        <ele>300.139957</ele>
        <time>2021-01-22T16:45:45.265Z</time>
      </trkpt>
      <trkpt lat="45.670658" lon="10.189307">
        <ele>299.989537</ele>
        <time>2021-01-22T16:45:47.197Z</time>
      </trkpt>
      <trkpt lat="45.670593" lon="10.189316">
        <ele>299.929516</ele>
        <time>2021-01-22T16:45:47.789Z</time>
      </trkpt>
      <trkpt lat="45.670516" lon="10.189326">
        <ele>299.638700</ele>
        <time>2021-01-22T16:45:48.526Z</time>
      </trkpt>
      <trkpt lat="45.670397" lon="10.189378">
        <ele>299.017560</ele>
        <time>2021-01-22T16:45:50.111Z</time>
      </trkpt>
      <trkpt lat="45.670205" lon="10.189392">
        <ele>298.057831</ele>
        <time>2021-01-22T16:45:51.913Z</time>
      </trkpt>
      <trkpt lat="45.670100" lon="10.189320">
        <ele>297.476591</ele>
        <time>2021-01-22T16:45:53.021Z</time>
      </trkpt>
      <trkpt lat="45.669864" lon="10.189638">
        <ele>295.858379</ele>
        <time>2021-01-22T16:45:55.793Z</time>
      </trkpt>
      <trkpt lat="45.669822" lon="10.189697">
        <ele>295.564573</ele>
        <time>2021-01-22T16:45:56.329Z</time>
      </trkpt>
      <trkpt lat="45.669547" lon="10.190041">
        <ele>293.741187</ele>
        <time>2021-01-22T16:45:59.595Z</time>
      </trkpt>
      <trkpt lat="45.669442" lon="10.190169">
        <ele>293.052609</ele>
        <time>2021-01-22T16:46:00.986Z</time>
      </trkpt>
      <trkpt lat="45.668472" lon="10.191321">
        <ele>289.497113</ele>
        <time>2021-01-22T16:46:14.744Z</time>
      </trkpt>
      <trkpt lat="45.668452" lon="10.191354">
        <ele>289.444776</ele>
        <time>2021-01-22T16:46:15.052Z</time>
      </trkpt>
      <trkpt lat="45.668197" lon="10.191778">
        <ele>288.774530</ele>
        <time>2021-01-22T16:46:19.652Z</time>
      </trkpt>
      <trkpt lat="45.667994" lon="10.191895">
        <ele>288.399307</ele>
        <time>2021-01-22T16:46:22.365Z</time>
      </trkpt>
      <trkpt lat="45.667892" lon="10.191935">
        <ele>288.217975</ele>
        <time>2021-01-22T16:46:23.557Z</time>
      </trkpt>
      <trkpt lat="45.667857" lon="10.191917">
        <ele>288.154208</ele>
        <time>2021-01-22T16:46:24.021Z</time>
      </trkpt>
      <trkpt lat="45.667835" lon="10.191915">
        <ele>288.116412</ele>
        <time>2021-01-22T16:46:24.299Z</time>
      </trkpt>
      <trkpt lat="45.667813" lon="10.191919">
        <ele>288.078389</ele>
        <time>2021-01-22T16:46:24.577Z</time>
      </trkpt>
      <trkpt lat="45.667786" lon="10.191934">
        <ele>288.028730</ele>
        <time>2021-01-22T16:46:24.931Z</time>
      </trkpt>
      <trkpt lat="45.667745" lon="10.191992">
        <ele>287.929882</ele>
        <time>2021-01-22T16:46:25.657Z</time>
      </trkpt>
      <trkpt lat="45.667733" lon="10.192030">
        <ele>287.879920</ele>
        <time>2021-01-22T16:46:26.011Z</time>
      </trkpt>
      <trkpt lat="45.667730" lon="10.192070">
        <ele>287.838478</ele>
        <time>2021-01-22T16:46:26.374Z</time>
      </trkpt>
      <trkpt lat="45.667734" lon="10.192111">
        <ele>287.813825</ele>
        <time>2021-01-22T16:46:26.740Z</time>
      </trkpt>
      <trkpt lat="45.667659" lon="10.192263">
        <ele>287.703019</ele>
        <time>2021-01-22T16:46:28.236Z</time>
      </trkpt>
      <trkpt lat="45.667549" lon="10.192560">
        <ele>287.502849</ele>
        <time>2021-01-22T16:46:31.244Z</time>
      </trkpt>
      <trkpt lat="45.666988" lon="10.193089">
        <ele>286.930326</ele>
        <time>2021-01-22T16:46:39.828Z</time>
      </trkpt>
      <trkpt lat="45.666525" lon="10.193647">
        <ele>286.414485</ele>
        <time>2021-01-22T16:46:47.553Z</time>
      </trkpt>
      <trkpt lat="45.666418" lon="10.193775">
        <ele>286.292049</ele>
        <time>2021-01-22T16:46:49.331Z</time>
      </trkpt>
      <trkpt lat="45.666356" lon="10.193850">
        <ele>286.208069</ele>
        <time>2021-01-22T16:46:50.330Z</time>
      </trkpt>
      <trkpt lat="45.666133" lon="10.194121">
        <ele>285.905434</ele>
        <time>2021-01-22T16:46:53.830Z</time>
      </trkpt>
      <trkpt lat="45.665483" lon="10.194912">
        <ele>285.022799</ele>
        <time>2021-01-22T16:47:03.973Z</time>
      </trkpt>
      <trkpt lat="45.665184" lon="10.195209">
        <ele>284.646293</ele>
        <time>2021-01-22T16:47:08.539Z</time>
      </trkpt>
      <trkpt lat="45.664670" lon="10.195756">
        <ele>283.954961</ele>
        <time>2021-01-22T16:47:16.583Z</time>
      </trkpt>
      <trkpt lat="45.664618" lon="10.195811">
        <ele>283.883969</ele>
        <time>2021-01-22T16:47:17.296Z</time>
      </trkpt>
      <trkpt lat="45.664538" lon="10.195896">
        <ele>283.774575</ele>
        <time>2021-01-22T16:47:18.569Z</time>
      </trkpt>
      <trkpt lat="45.664259" lon="10.196211">
        <ele>283.384404</ele>
        <time>2021-01-22T16:47:22.875Z</time>
      </trkpt>
      <trkpt lat="45.663852" lon="10.196569">
        <ele>282.859900</ele>
        <time>2021-01-22T16:47:28.709Z</time>
      </trkpt>
      <trkpt lat="45.663598" lon="10.196792">
        <ele>282.532736</ele>
        <time>2021-01-22T16:47:32.219Z</time>
      </trkpt>
      <trkpt lat="45.663517" lon="10.196874">
        <ele>282.372212</ele>
        <time>2021-01-22T16:47:33.489Z</time>
      </trkpt>
      <trkpt lat="45.663402" lon="10.196942">
        <ele>282.103667</ele>
        <time>2021-01-22T16:47:34.842Z</time>
      </trkpt>
      <trkpt lat="45.662949" lon="10.197327">
        <ele>280.966569</ele>
        <time>2021-01-22T16:47:40.936Z</time>
      </trkpt>
      <trkpt lat="45.662049" lon="10.197394">
        <ele>279.021601</ele>
        <time>2021-01-22T16:47:50.336Z</time>
      </trkpt>
      <trkpt lat="45.661260" lon="10.197511">
        <ele>277.351816</ele>
        <time>2021-01-22T16:47:58.645Z</time>
      </trkpt>
      <trkpt lat="45.660518" lon="10.197547">
        <ele>275.802033</ele>
        <time>2021-01-22T16:48:06.788Z</time>
      </trkpt>
      <trkpt lat="45.660046" lon="10.197572">
        <ele>274.828769</ele>
        <time>2021-01-22T16:48:12.039Z</time>
      </trkpt>
      <trkpt lat="45.659913" lon="10.197577">
        <ele>274.693169</ele>
        <time>2021-01-22T16:48:13.613Z</time>
      </trkpt>
      <trkpt lat="45.659747" lon="10.197554">
        <ele>274.523192</ele>
        <time>2021-01-22T16:48:15.544Z</time>
      </trkpt>
      <trkpt lat="45.659692" lon="10.197564">
        <ele>274.466685</ele>
        <time>2021-01-22T16:48:16.208Z</time>
      </trkpt>
      <trkpt lat="45.659638" lon="10.197585">
        <ele>274.409652</ele>
        <time>2021-01-22T16:48:16.880Z</time>
      </trkpt>
      <trkpt lat="45.659599" lon="10.197619">
        <ele>274.363106</ele>
        <time>2021-01-22T16:48:17.463Z</time>
      </trkpt>
      <trkpt lat="45.659571" lon="10.197679">
        <ele>274.311714</ele>
        <time>2021-01-22T16:48:18.175Z</time>
      </trkpt>
      <trkpt lat="45.659471" lon="10.197718">
        <ele>274.206077</ele>
        <time>2021-01-22T16:48:19.429Z</time>
      </trkpt>
      <trkpt lat="45.659415" lon="10.197752">
        <ele>274.144076</ele>
        <time>2021-01-22T16:48:20.192Z</time>
      </trkpt>
      <trkpt lat="45.659201" lon="10.197922">
        <ele>273.894605</ele>
        <time>2021-01-22T16:48:23.299Z</time>
      </trkpt>
      <trkpt lat="45.658588" lon="10.198155">
        <ele>273.248168</ele>
        <time>2021-01-22T16:48:31.243Z</time>
      </trkpt>
      <trkpt lat="45.658549" lon="10.198385">
        <ele>273.079575</ele>
        <time>2021-01-22T16:48:33.372Z</time>
      </trkpt>
      <trkpt lat="45.658170" lon="10.198535">
        <ele>272.607704</ele>
        <time>2021-01-22T16:48:38.318Z</time>
      </trkpt>
      <trkpt lat="45.657378" lon="10.198847">
        <ele>271.589508</ele>
        <time>2021-01-22T16:48:48.226Z</time>
      </trkpt>
      <trkpt lat="45.657302" lon="10.198880">
        <ele>271.491065</ele>
        <time>2021-01-22T16:48:49.129Z</time>
      </trkpt>
      <trkpt lat="45.656588" lon="10.199187">
        <ele>270.484486</ele>
        <time>2021-01-22T16:48:57.676Z</time>
      </trkpt>
      <trkpt lat="45.656360" lon="10.199027">
        <ele>270.046870</ele>
        <time>2021-01-22T16:49:00.472Z</time>
      </trkpt>
      <trkpt lat="45.656231" lon="10.199068">
        <ele>269.819153</ele>
        <time>2021-01-22T16:49:01.886Z</time>
      </trkpt>
      <trkpt lat="45.656080" lon="10.199110">
        <ele>269.554072</ele>
        <time>2021-01-22T16:49:03.606Z</time>
      </trkpt>
      <trkpt lat="45.655656" lon="10.199273">
        <ele>268.797502</ele>
        <time>2021-01-22T16:49:08.515Z</time>
      </trkpt>
      <trkpt lat="45.655229" lon="10.199386">
        <ele>268.049197</ele>
        <time>2021-01-22T16:49:13.352Z</time>
      </trkpt>
      <trkpt lat="45.655248" lon="10.199286">
        <ele>267.924377</ele>
        <time>2021-01-22T16:49:14.103Z</time>
      </trkpt>
      <trkpt lat="45.655344" lon="10.198928">
        <ele>267.590619</ele>
        <time>2021-01-22T16:49:17.102Z</time>
      </trkpt>
      <trkpt lat="45.655098" lon="10.197077">
        <ele>266.665014</ele>
        <time>2021-01-22T16:49:34.422Z</time>
      </trkpt>
      <trkpt lat="45.655077" lon="10.196901">
        <ele>266.577302</ele>
        <time>2021-01-22T16:49:35.814Z</time>
      </trkpt>
      <trkpt lat="45.655067" lon="10.196826">
        <ele>266.539793</ele>
        <time>2021-01-22T16:49:36.452Z</time>
      </trkpt>
      <trkpt lat="45.655011" lon="10.196459">
        <ele>266.368691</ele>
        <time>2021-01-22T16:49:40.846Z</time>
      </trkpt>
      <trkpt lat="45.654933" lon="10.196269">
        <ele>266.284902</ele>
        <time>2021-01-22T16:49:42.617Z</time>
      </trkpt>
      <trkpt lat="45.654894" lon="10.196191">
        <ele>266.248435</ele>
        <time>2021-01-22T16:49:45.428Z</time>
      </trkpt>
      <trkpt lat="45.654587" lon="10.196533">
        <ele>266.036759</ele>
        <time>2021-01-22T16:49:50.735Z</time>
      </trkpt>
      <trkpt lat="45.654375" lon="10.196739">
        <ele>265.897339</ele>
        <time>2021-01-22T16:49:53.595Z</time>
      </trkpt>
      <trkpt lat="45.653793" lon="10.197064">
        <ele>265.557453</ele>
        <time>2021-01-22T16:50:02.569Z</time>
      </trkpt>
      <trkpt lat="45.651917" lon="10.197262">
        <ele>263.574315</ele>
        <time>2021-01-22T16:50:24.601Z</time>
      </trkpt>
      <trkpt lat="45.649831" lon="10.196546">
        <ele>262.634056</ele>
        <time>2021-01-22T16:50:52.278Z</time>
      </trkpt>
      <trkpt lat="45.649752" lon="10.196514">
        <ele>262.750003</ele>
        <time>2021-01-22T16:50:53.520Z</time>
      </trkpt>
      <trkpt lat="45.649093" lon="10.196246">
        <ele>263.717499</ele>
        <time>2021-01-22T16:51:07.143Z</time>
      </trkpt>
      <trkpt lat="45.649066" lon="10.196235">
        <ele>263.757144</ele>
        <time>2021-01-22T16:51:07.681Z</time>
      </trkpt>
      <trkpt lat="45.649007" lon="10.196186">
        <ele>263.853485</ele>
        <time>2021-01-22T16:51:09.157Z</time>
      </trkpt>
      <trkpt lat="45.648987" lon="10.196169">
        <ele>263.886339</ele>
        <time>2021-01-22T16:51:09.660Z</time>
      </trkpt>
      <trkpt lat="45.648611" lon="10.195857">
        <ele>264.500179</ele>
        <time>2021-01-22T16:51:21.216Z</time>
      </trkpt>
      <trkpt lat="45.648253" lon="10.195677">
        <ele>264.943685</ele>
        <time>2021-01-22T16:51:31.026Z</time>
      </trkpt>
      <trkpt lat="45.647784" lon="10.195771">
        <ele>265.209087</ele>
        <time>2021-01-22T16:51:41.943Z</time>
      </trkpt>
      <trkpt lat="45.647474" lon="10.195565">
        <ele>265.400646</ele>
        <time>2021-01-22T16:51:48.783Z</time>
      </trkpt>
      <trkpt lat="45.647355" lon="10.195360">
        <ele>265.505038</ele>
        <time>2021-01-22T16:51:52.637Z</time>
      </trkpt>
      <trkpt lat="45.647332" lon="10.195321">
        <ele>265.525028</ele>
        <time>2021-01-22T16:51:53.091Z</time>
      </trkpt>
      <trkpt lat="45.647285" lon="10.195240">
        <ele>265.566268</ele>
        <time>2021-01-22T16:51:53.973Z</time>
      </trkpt>
      <trkpt lat="45.647243" lon="10.195194">
        <ele>265.595913</ele>
        <time>2021-01-22T16:51:54.504Z</time>
      </trkpt>
      <trkpt lat="45.647061" lon="10.195047">
        <ele>265.713044</ele>
        <time>2021-01-22T16:51:57.714Z</time>
      </trkpt>
      <trkpt lat="45.646851" lon="10.194980">
        <ele>265.833623</ele>
        <time>2021-01-22T16:52:00.097Z</time>
      </trkpt>
      <trkpt lat="45.646661" lon="10.194998">
        <ele>265.603785</ele>
        <time>2021-01-22T16:52:02.436Z</time>
      </trkpt>
      <trkpt lat="45.646180" lon="10.195066">
        <ele>264.030712</ele>
        <time>2021-01-22T16:52:07.385Z</time>
      </trkpt>
      <trkpt lat="45.645801" lon="10.195151">
        <ele>262.782162</ele>
        <time>2021-01-22T16:52:11.243Z</time>
      </trkpt>
      <trkpt lat="45.645422" lon="10.195278">
        <ele>261.515288</ele>
        <time>2021-01-22T16:52:15.013Z</time>
      </trkpt>
      <trkpt lat="45.645247" lon="10.195266">
        <ele>260.945085</ele>
        <time>2021-01-22T16:52:16.716Z</time>
      </trkpt>
      <trkpt lat="45.644792" lon="10.195178">
        <ele>259.596221</ele>
        <time>2021-01-22T16:52:21.154Z</time>
      </trkpt>
      <trkpt lat="45.644642" lon="10.195152">
        <ele>259.226449</ele>
        <time>2021-01-22T16:52:22.651Z</time>
      </trkpt>
      <trkpt lat="45.644096" lon="10.195098">
        <ele>257.887063</ele>
        <time>2021-01-22T16:52:28.285Z</time>
      </trkpt>
      <trkpt lat="45.643844" lon="10.195071">
        <ele>257.268630</ele>
        <time>2021-01-22T16:52:31.098Z</time>
      </trkpt>
      <trkpt lat="45.643650" lon="10.195048">
        <ele>256.792237</ele>
        <time>2021-01-22T16:52:33.227Z</time>
      </trkpt>
      <trkpt lat="45.643547" lon="10.195097">
        <ele>256.526595</ele>
        <time>2021-01-22T16:52:34.455Z</time>
      </trkpt>
      <trkpt lat="45.643498" lon="10.195134">
        <ele>256.390996</ele>
        <time>2021-01-22T16:52:35.147Z</time>
      </trkpt>
      <trkpt lat="45.643432" lon="10.195163">
        <ele>256.222029</ele>
        <time>2021-01-22T16:52:35.901Z</time>
      </trkpt>
      <trkpt lat="45.643053" lon="10.194932">
        <ele>255.449133</ele>
        <time>2021-01-22T16:52:40.943Z</time>
      </trkpt>
      <trkpt lat="45.642812" lon="10.194785">
        <ele>255.165860</ele>
        <time>2021-01-22T16:52:44.346Z</time>
      </trkpt>
      <trkpt lat="45.642361" lon="10.194567">
        <ele>254.651147</ele>
        <time>2021-01-22T16:52:50.151Z</time>
      </trkpt>
      <trkpt lat="45.642088" lon="10.194472">
        <ele>254.347370</ele>
        <time>2021-01-22T16:52:53.529Z</time>
      </trkpt>
      <trkpt lat="45.641965" lon="10.194407">
        <ele>254.205596</ele>
        <time>2021-01-22T16:52:55.086Z</time>
      </trkpt>
      <trkpt lat="45.641912" lon="10.194387">
        <ele>254.146331</ele>
        <time>2021-01-22T16:52:55.764Z</time>
      </trkpt>
      <trkpt lat="45.641481" lon="10.194285">
        <ele>253.660257</ele>
        <time>2021-01-22T16:53:01.170Z</time>
      </trkpt>
      <trkpt lat="45.641343" lon="10.194263">
        <ele>253.386451</ele>
        <time>2021-01-22T16:53:02.870Z</time>
      </trkpt>
      <trkpt lat="45.641160" lon="10.194255">
        <ele>253.025426</ele>
        <time>2021-01-22T16:53:05.041Z</time>
      </trkpt>
      <trkpt lat="45.640533" lon="10.194115">
        <ele>251.774074</ele>
        <time>2021-01-22T16:53:12.063Z</time>
      </trkpt>
      <trkpt lat="45.640464" lon="10.194105">
        <ele>251.637317</ele>
        <time>2021-01-22T16:53:12.845Z</time>
      </trkpt>
      <trkpt lat="45.640300" lon="10.194069">
        <ele>251.310140</ele>
        <time>2021-01-22T16:53:14.489Z</time>
      </trkpt>
      <trkpt lat="45.639968" lon="10.193997">
        <ele>250.647989</ele>
        <time>2021-01-22T16:53:17.970Z</time>
      </trkpt>
      <trkpt lat="45.639726" lon="10.193948">
        <ele>250.166033</ele>
        <time>2021-01-22T16:53:20.644Z</time>
      </trkpt>
      <trkpt lat="45.639488" lon="10.193926">
        <ele>249.848955</ele>
        <time>2021-01-22T16:53:23.152Z</time>
      </trkpt>
      <trkpt lat="45.638996" lon="10.193916">
        <ele>249.210358</ele>
        <time>2021-01-22T16:53:28.890Z</time>
      </trkpt>
      <trkpt lat="45.638947" lon="10.193877">
        <ele>249.137580</ele>
        <time>2021-01-22T16:53:29.440Z</time>
      </trkpt>
      <trkpt lat="45.638906" lon="10.193801">
        <ele>249.050474</ele>
        <time>2021-01-22T16:53:30.255Z</time>
      </trkpt>
      <trkpt lat="45.638874" lon="10.193764">
        <ele>248.997070</ele>
        <time>2021-01-22T16:53:30.792Z</time>
      </trkpt>
      <trkpt lat="45.638837" lon="10.193736">
        <ele>248.942743</ele>
        <time>2021-01-22T16:53:31.344Z</time>
      </trkpt>
      <trkpt lat="45.638798" lon="10.193718">
        <ele>248.889557</ele>
        <time>2021-01-22T16:53:31.853Z</time>
      </trkpt>
      <trkpt lat="45.638729" lon="10.193712">
        <ele>248.799841</ele>
        <time>2021-01-22T16:53:32.835Z</time>
      </trkpt>
      <trkpt lat="45.638662" lon="10.193735">
        <ele>248.710417</ele>
        <time>2021-01-22T16:53:33.608Z</time>
      </trkpt>
      <trkpt lat="45.638603" lon="10.193785">
        <ele>248.621412</ele>
        <time>2021-01-22T16:53:34.347Z</time>
      </trkpt>
      <trkpt lat="45.638538" lon="10.193804">
        <ele>248.535310</ele>
        <time>2021-01-22T16:53:35.249Z</time>
      </trkpt>
      <trkpt lat="45.638328" lon="10.193837">
        <ele>248.261125</ele>
        <time>2021-01-22T16:53:38.022Z</time>
      </trkpt>
      <trkpt lat="45.638209" lon="10.193818">
        <ele>248.105723</ele>
        <time>2021-01-22T16:53:39.377Z</time>
      </trkpt>
      <trkpt lat="45.637974" lon="10.193699">
        <ele>247.803365</ele>
        <time>2021-01-22T16:53:42.776Z</time>
      </trkpt>
      <trkpt lat="45.637858" lon="10.193648">
        <ele>247.767500</ele>
        <time>2021-01-22T16:53:44.340Z</time>
      </trkpt>
      <trkpt lat="45.637738" lon="10.193627">
        <ele>247.731772</ele>
        <time>2021-01-22T16:53:46.323Z</time>
      </trkpt>
      <trkpt lat="45.637561" lon="10.193597">
        <ele>247.679096</ele>
        <time>2021-01-22T16:53:48.552Z</time>
      </trkpt>
      <trkpt lat="45.636620" lon="10.193478">
        <ele>247.399916</ele>
        <time>2021-01-22T16:54:03.413Z</time>
      </trkpt>
      <trkpt lat="45.636147" lon="10.193550">
        <ele>247.189322</ele>
        <time>2021-01-22T16:54:09.583Z</time>
      </trkpt>
      <trkpt lat="45.635844" lon="10.193677">
        <ele>246.746901</ele>
        <time>2021-01-22T16:54:13.413Z</time>
      </trkpt>
      <trkpt lat="45.635681" lon="10.193774">
        <ele>246.499522</ele>
        <time>2021-01-22T16:54:15.470Z</time>
      </trkpt>
      <trkpt lat="45.635475" lon="10.193920">
        <ele>246.177375</ele>
        <time>2021-01-22T16:54:18.155Z</time>
      </trkpt>
      <trkpt lat="45.634892" lon="10.194317">
        <ele>245.272600</ele>
        <time>2021-01-22T16:54:25.530Z</time>
      </trkpt>
      <trkpt lat="45.634609" lon="10.194501">
        <ele>244.837005</ele>
        <time>2021-01-22T16:54:28.982Z</time>
      </trkpt>
      <trkpt lat="45.634501" lon="10.194569">
        <ele>244.641284</ele>
        <time>2021-01-22T16:54:30.271Z</time>
      </trkpt>
      <trkpt lat="45.634162" lon="10.194784">
        <ele>243.938424</ele>
        <time>2021-01-22T16:54:34.348Z</time>
      </trkpt>
      <trkpt lat="45.634017" lon="10.194812">
        <ele>243.661108</ele>
        <time>2021-01-22T16:54:35.986Z</time>
      </trkpt>
      <trkpt lat="45.633924" lon="10.194869">
        <ele>243.469338</ele>
        <time>2021-01-22T16:54:37.154Z</time>
      </trkpt>
      <trkpt lat="45.633811" lon="10.194960">
        <ele>243.223545</ele>
        <time>2021-01-22T16:54:38.537Z</time>
      </trkpt>
      <trkpt lat="45.633524" lon="10.195264">
        <ele>242.546634</ele>
        <time>2021-01-22T16:54:42.510Z</time>
      </trkpt>
      <trkpt lat="45.633408" lon="10.195432">
        <ele>242.233728</ele>
        <time>2021-01-22T16:54:44.374Z</time>
      </trkpt>
      <trkpt lat="45.633265" lon="10.195671">
        <ele>241.816852</ele>
        <time>2021-01-22T16:54:46.795Z</time>
      </trkpt>
      <trkpt lat="45.633129" lon="10.195972">
        <ele>241.344413</ele>
        <time>2021-01-22T16:54:49.569Z</time>
      </trkpt>
      <trkpt lat="45.633059" lon="10.196100">
        <ele>241.207579</ele>
        <time>2021-01-22T16:54:50.781Z</time>
      </trkpt>
      <trkpt lat="45.632695" lon="10.197253">
        <ele>240.142307</ele>
        <time>2021-01-22T16:55:00.658Z</time>
      </trkpt>
      <trkpt lat="45.632587" lon="10.197478">
        <ele>239.912498</ele>
        <time>2021-01-22T16:55:03.067Z</time>
      </trkpt>
      <trkpt lat="45.632469" lon="10.197641">
        <ele>239.714932</ele>
        <time>2021-01-22T16:55:05.150Z</time>
      </trkpt>
      <trkpt lat="45.632325" lon="10.197722">
        <ele>239.528589</ele>
        <time>2021-01-22T16:55:07.296Z</time>
      </trkpt>
      <trkpt lat="45.632221" lon="10.197835">
        <ele>239.371300</ele>
        <time>2021-01-22T16:55:09.249Z</time>
      </trkpt>
      <trkpt lat="45.632112" lon="10.197935">
        <ele>239.215349</ele>
        <time>2021-01-22T16:55:11.030Z</time>
      </trkpt>
      <trkpt lat="45.632069" lon="10.197945">
        <ele>239.179600</ele>
        <time>2021-01-22T16:55:11.731Z</time>
      </trkpt>
      <trkpt lat="45.632029" lon="10.197968">
        <ele>239.171288</ele>
        <time>2021-01-22T16:55:12.478Z</time>
      </trkpt>
      <trkpt lat="45.631975" lon="10.198029">
        <ele>239.158020</ele>
        <time>2021-01-22T16:55:13.759Z</time>
      </trkpt>
      <trkpt lat="45.631938" lon="10.198113">
        <ele>239.144636</ele>
        <time>2021-01-22T16:55:14.805Z</time>
      </trkpt>
      <trkpt lat="45.631924" lon="10.198210">
        <ele>239.131283</ele>
        <time>2021-01-22T16:55:15.721Z</time>
      </trkpt>
      <trkpt lat="45.631929" lon="10.198288">
        <ele>239.120723</ele>
        <time>2021-01-22T16:55:16.444Z</time>
      </trkpt>
      <trkpt lat="45.631949" lon="10.198362">
        <ele>239.110027</ele>
        <time>2021-01-22T16:55:17.214Z</time>
      </trkpt>
      <trkpt lat="45.631982" lon="10.198425">
        <ele>239.099414</ele>
        <time>2021-01-22T16:55:18.050Z</time>
      </trkpt>
      <trkpt lat="45.631984" lon="10.198575">
        <ele>239.079187</ele>
        <time>2021-01-22T16:55:19.809Z</time>
      </trkpt>
      <trkpt lat="45.631964" lon="10.198774">
        <ele>239.052082</ele>
        <time>2021-01-22T16:55:21.667Z</time>
      </trkpt>
      <trkpt lat="45.631917" lon="10.198901">
        <ele>239.032710</ele>
        <time>2021-01-22T16:55:23.114Z</time>
      </trkpt>
      <trkpt lat="45.631633" lon="10.199160">
        <ele>238.967767</ele>
        <time>2021-01-22T16:55:27.596Z</time>
      </trkpt>
      <trkpt lat="45.631465" lon="10.199290">
        <ele>238.930938</ele>
        <time>2021-01-22T16:55:30.313Z</time>
      </trkpt>
      <trkpt lat="45.631427" lon="10.199424">
        <ele>238.911443</ele>
        <time>2021-01-22T16:55:31.704Z</time>
      </trkpt>
      <trkpt lat="45.631420" lon="10.199510">
        <ele>238.899770</ele>
        <time>2021-01-22T16:55:32.573Z</time>
      </trkpt>
      <trkpt lat="45.631426" lon="10.199687">
        <ele>238.875879</ele>
        <time>2021-01-22T16:55:34.486Z</time>
      </trkpt>
      <trkpt lat="45.631289" lon="10.199663">
        <ele>238.849267</ele>
        <time>2021-01-22T16:55:36.596Z</time>
      </trkpt>
      <trkpt lat="45.631115" lon="10.199633">
        <ele>238.757380</ele>
        <time>2021-01-22T16:55:39.296Z</time>
      </trkpt>
      <trkpt lat="45.630999" lon="10.199684">
        <ele>238.667752</ele>
        <time>2021-01-22T16:55:40.994Z</time>
      </trkpt>
      <trkpt lat="45.630833" lon="10.199925">
        <ele>238.493050</ele>
        <time>2021-01-22T16:55:44.368Z</time>
      </trkpt>
      <trkpt lat="45.630778" lon="10.199978">
        <ele>238.444070</ele>
        <time>2021-01-22T16:55:45.145Z</time>
      </trkpt>
      <trkpt lat="45.630050" lon="10.200153">
        <ele>237.898874</ele>
        <time>2021-01-22T16:55:54.164Z</time>
      </trkpt>
      <trkpt lat="45.629860" lon="10.200097">
        <ele>237.755603</ele>
        <time>2021-01-22T16:55:56.477Z</time>
      </trkpt>
      <trkpt lat="45.629595" lon="10.199511">
        <ele>237.492982</ele>
        <time>2021-01-22T16:56:02.299Z</time>
      </trkpt>
      <trkpt lat="45.629362" lon="10.199449">
        <ele>237.470161</ele>
        <time>2021-01-22T16:56:05.293Z</time>
      </trkpt>
      <trkpt lat="45.627999" lon="10.200096">
        <ele>237.352057</ele>
        <time>2021-01-22T16:56:27.708Z</time>
      </trkpt>
      <trkpt lat="45.627791" lon="10.200410">
        <ele>237.551112</ele>
        <time>2021-01-22T16:56:32.567Z</time>
      </trkpt>
      <trkpt lat="45.627652" lon="10.200856">
        <ele>237.775840</ele>
        <time>2021-01-22T16:56:38.279Z</time>
      </trkpt>
      <trkpt lat="45.627605" lon="10.200935">
        <ele>237.823576</ele>
        <time>2021-01-22T16:56:39.989Z</time>
      </trkpt>
      <trkpt lat="45.627526" lon="10.201035">
        <ele>237.893012</ele>
        <time>2021-01-22T16:56:41.712Z</time>
      </trkpt>
      <trkpt lat="45.627147" lon="10.201157">
        <ele>238.148683</ele>
        <time>2021-01-22T16:56:48.572Z</time>
      </trkpt>
      <trkpt lat="45.627026" lon="10.201190">
        <ele>238.229751</ele>
        <time>2021-01-22T16:56:50.588Z</time>
      </trkpt>
      <trkpt lat="45.626722" lon="10.201291">
        <ele>238.435150</ele>
        <time>2021-01-22T16:56:56.590Z</time>
      </trkpt>
      <trkpt lat="45.626341" lon="10.201397">
        <ele>238.564376</ele>
        <time>2021-01-22T16:57:03.936Z</time>
      </trkpt>
      <trkpt lat="45.626068" lon="10.201488">
        <ele>238.613803</ele>
        <time>2021-01-22T16:57:09.240Z</time>
      </trkpt>
      <trkpt lat="45.625853" lon="10.201554">
        <ele>238.652577</ele>
        <time>2021-01-22T16:57:12.653Z</time>
      </trkpt>
      <trkpt lat="45.625687" lon="10.201608">
        <ele>238.682595</ele>
        <time>2021-01-22T16:57:15.205Z</time>
      </trkpt>
      <trkpt lat="45.625400" lon="10.201793">
        <ele>238.738105</ele>
        <time>2021-01-22T16:57:19.821Z</time>
      </trkpt>
      <trkpt lat="45.625059" lon="10.201956">
        <ele>238.801502</ele>
        <time>2021-01-22T16:57:24.860Z</time>
      </trkpt>
      <trkpt lat="45.624730" lon="10.202004">
        <ele>238.657382</ele>
        <time>2021-01-22T16:57:29.346Z</time>
      </trkpt>
      <trkpt lat="45.624365" lon="10.202009">
        <ele>238.189644</ele>
        <time>2021-01-22T16:57:33.983Z</time>
      </trkpt>
      <trkpt lat="45.624261" lon="10.202015">
        <ele>238.056268</ele>
        <time>2021-01-22T16:57:35.200Z</time>
      </trkpt>
      <trkpt lat="45.623143" lon="10.202052">
        <ele>236.623259</ele>
        <time>2021-01-22T16:57:47.790Z</time>
      </trkpt>
      <trkpt lat="45.622734" lon="10.202069">
        <ele>236.235625</ele>
        <time>2021-01-22T16:57:52.434Z</time>
      </trkpt>
      <trkpt lat="45.622577" lon="10.202078">
        <ele>236.098049</ele>
        <time>2021-01-22T16:57:54.302Z</time>
      </trkpt>
      <trkpt lat="45.622230" lon="10.202121">
        <ele>235.793085</ele>
        <time>2021-01-22T16:57:58.534Z</time>
      </trkpt>
      <trkpt lat="45.622114" lon="10.202090">
        <ele>235.689760</ele>
        <time>2021-01-22T16:57:59.972Z</time>
      </trkpt>
      <trkpt lat="45.622037" lon="10.202110">
        <ele>235.621237</ele>
        <time>2021-01-22T16:58:00.978Z</time>
      </trkpt>
      <trkpt lat="45.621600" lon="10.202227">
        <ele>235.231960</ele>
        <time>2021-01-22T16:58:06.739Z</time>
      </trkpt>
      <trkpt lat="45.621027" lon="10.202381">
        <ele>235.030045</ele>
        <time>2021-01-22T16:58:15.002Z</time>
      </trkpt>
      <trkpt lat="45.619814" lon="10.202706">
        <ele>235.373207</ele>
        <time>2021-01-22T16:58:35.338Z</time>
      </trkpt>
      <trkpt lat="45.619717" lon="10.202735">
        <ele>235.400763</ele>
        <time>2021-01-22T16:58:36.958Z</time>
      </trkpt>
      <trkpt lat="45.619026" lon="10.202940">
        <ele>235.367498</ele>
        <time>2021-01-22T16:58:48.589Z</time>
      </trkpt>
      <trkpt lat="45.618851" lon="10.202995">
        <ele>235.336336</ele>
        <time>2021-01-22T16:58:51.454Z</time>
      </trkpt>
      <trkpt lat="45.618743" lon="10.203029">
        <ele>235.317104</ele>
        <time>2021-01-22T16:58:53.342Z</time>
      </trkpt>
      <trkpt lat="45.618441" lon="10.203121">
        <ele>235.263402</ele>
        <time>2021-01-22T16:58:58.162Z</time>
      </trkpt>
      <trkpt lat="45.618401" lon="10.203131">
        <ele>235.256340</ele>
        <time>2021-01-22T16:58:58.767Z</time>
      </trkpt>
      <trkpt lat="45.617268" lon="10.203179">
        <ele>234.277063</ele>
        <time>2021-01-22T16:59:12.740Z</time>
      </trkpt>
      <trkpt lat="45.617002" lon="10.203148">
        <ele>233.797372</ele>
        <time>2021-01-22T16:59:15.595Z</time>
      </trkpt>
      <trkpt lat="45.616926" lon="10.203129">
        <ele>233.658698</ele>
        <time>2021-01-22T16:59:16.416Z</time>
      </trkpt>
      <trkpt lat="45.616866" lon="10.203115">
        <ele>233.549428</ele>
        <time>2021-01-22T16:59:17.184Z</time>
      </trkpt>
      <trkpt lat="45.616624" lon="10.203057">
        <ele>233.108391</ele>
        <time>2021-01-22T16:59:19.688Z</time>
      </trkpt>
      <trkpt lat="45.616597" lon="10.203207">
        <ele>232.913668</ele>
        <time>2021-01-22T16:59:20.961Z</time>
      </trkpt>
      <trkpt lat="45.616278" lon="10.203288">
        <ele>232.331329</ele>
        <time>2021-01-22T16:59:24.348Z</time>
      </trkpt>
      <trkpt lat="45.616098" lon="10.203351">
        <ele>231.998245</ele>
        <time>2021-01-22T16:59:26.571Z</time>
      </trkpt>
      <trkpt lat="45.615934" lon="10.203390">
        <ele>231.720595</ele>
        <time>2021-01-22T16:59:28.327Z</time>
      </trkpt>
      <trkpt lat="45.615772" lon="10.203450">
        <ele>231.450028</ele>
        <time>2021-01-22T16:59:30.446Z</time>
      </trkpt>
      <trkpt lat="45.615622" lon="10.203573">
        <ele>231.170449</ele>
        <time>2021-01-22T16:59:32.279Z</time>
      </trkpt>
      <trkpt lat="45.615560" lon="10.203658">
        <ele>231.031566</ele>
        <time>2021-01-22T16:59:33.399Z</time>
      </trkpt>
      <trkpt lat="45.615491" lon="10.203791">
        <ele>230.844301</ele>
        <time>2021-01-22T16:59:34.903Z</time>
      </trkpt>
      <trkpt lat="45.615288" lon="10.204226">
        <ele>230.252923</ele>
        <time>2021-01-22T16:59:39.358Z</time>
      </trkpt>
      <trkpt lat="45.615156" lon="10.204456">
        <ele>229.916466</ele>
        <time>2021-01-22T16:59:41.448Z</time>
      </trkpt>
      <trkpt lat="45.614993" lon="10.204740">
        <ele>229.501006</ele>
        <time>2021-01-22T16:59:44.267Z</time>
      </trkpt>
      <trkpt lat="45.614608" lon="10.205258">
        <ele>228.741680</ele>
        <time>2021-01-22T16:59:50.356Z</time>
      </trkpt>
      <trkpt lat="45.614349" lon="10.205465">
        <ele>228.390609</ele>
        <time>2021-01-22T16:59:54.289Z</time>
      </trkpt>
      <trkpt lat="45.614255" lon="10.205538">
        <ele>228.264043</ele>
        <time>2021-01-22T16:59:56.454Z</time>
      </trkpt>
      <trkpt lat="45.614193" lon="10.205512">
        <ele>228.187597</ele>
        <time>2021-01-22T16:59:57.130Z</time>
      </trkpt>
      <trkpt lat="45.614150" lon="10.205481">
        <ele>228.130618</ele>
        <time>2021-01-22T16:59:58.282Z</time>
      </trkpt>
      <trkpt lat="45.614064" lon="10.205349">
        <ele>227.981329</ele>
        <time>2021-01-22T16:59:59.753Z</time>
      </trkpt>
      <trkpt lat="45.613940" lon="10.205573">
        <ele>227.744916</ele>
        <time>2021-01-22T17:00:02.626Z</time>
      </trkpt>
      <trkpt lat="45.613805" lon="10.205791">
        <ele>227.503954</ele>
        <time>2021-01-22T17:00:05.357Z</time>
      </trkpt>
      <trkpt lat="45.613466" lon="10.206221">
        <ele>226.967749</ele>
        <time>2021-01-22T17:00:10.742Z</time>
      </trkpt>
      <trkpt lat="45.613085" lon="10.206687">
        <ele>225.515477</ele>
        <time>2021-01-22T17:00:15.793Z</time>
      </trkpt>
      <trkpt lat="45.612916" lon="10.206870">
        <ele>224.833287</ele>
        <time>2021-01-22T17:00:17.890Z</time>
      </trkpt>
      <trkpt lat="45.612472" lon="10.207348">
        <ele>223.044794</ele>
        <time>2021-01-22T17:00:23.689Z</time>
      </trkpt>
      <trkpt lat="45.612252" lon="10.207509">
        <ele>222.249523</ele>
        <time>2021-01-22T17:00:26.099Z</time>
      </trkpt>
      <trkpt lat="45.612081" lon="10.207644">
        <ele>221.620956</ele>
        <time>2021-01-22T17:00:28.050Z</time>
      </trkpt>
      <trkpt lat="45.611720" lon="10.207809">
        <ele>220.248279</ele>
        <time>2021-01-22T17:00:31.714Z</time>
      </trkpt>
      <trkpt lat="45.611239" lon="10.207893">
        <ele>218.340453</ele>
        <time>2021-01-22T17:00:36.441Z</time>
      </trkpt>
      <trkpt lat="45.611225" lon="10.207895">
        <ele>218.285059</ele>
        <time>2021-01-22T17:00:36.561Z</time>
      </trkpt>
      <trkpt lat="45.610971" lon="10.207944">
        <ele>217.275970</ele>
        <time>2021-01-22T17:00:39.054Z</time>
      </trkpt>
      <trkpt lat="45.610830" lon="10.207971">
        <ele>216.715880</ele>
        <time>2021-01-22T17:00:40.361Z</time>
      </trkpt>
      <trkpt lat="45.610551" lon="10.208035">
        <ele>215.603375</ele>
        <time>2021-01-22T17:00:43.232Z</time>
      </trkpt>
      <trkpt lat="45.610392" lon="10.208071">
        <ele>214.969572</ele>
        <time>2021-01-22T17:00:44.777Z</time>
      </trkpt>
      <trkpt lat="45.610108" lon="10.208022">
        <ele>213.949476</ele>
        <time>2021-01-22T17:00:47.704Z</time>
      </trkpt>
      <trkpt lat="45.610006" lon="10.207948">
        <ele>213.794848</ele>
        <time>2021-01-22T17:00:48.987Z</time>
      </trkpt>
      <trkpt lat="45.609978" lon="10.207884">
        <ele>213.723465</ele>
        <time>2021-01-22T17:00:49.617Z</time>
      </trkpt>
      <trkpt lat="45.609889" lon="10.207802">
        <ele>213.580328</ele>
        <time>2021-01-22T17:00:50.896Z</time>
      </trkpt>
      <trkpt lat="45.609836" lon="10.207792">
        <ele>213.508059</ele>
        <time>2021-01-22T17:00:51.362Z</time>
      </trkpt>
      <trkpt lat="45.609781" lon="10.207806">
        <ele>213.432539</ele>
        <time>2021-01-22T17:00:52.026Z</time>
      </trkpt>
      <trkpt lat="45.609691" lon="10.207899">
        <ele>213.282417</ele>
        <time>2021-01-22T17:00:53.363Z</time>
      </trkpt>
      <trkpt lat="45.609664" lon="10.207970">
        <ele>213.205995</ele>
        <time>2021-01-22T17:00:54.067Z</time>
      </trkpt>
      <trkpt lat="45.609654" lon="10.208055">
        <ele>213.124485</ele>
        <time>2021-01-22T17:00:54.851Z</time>
      </trkpt>
      <trkpt lat="45.609664" lon="10.208140">
        <ele>213.042975</ele>
        <time>2021-01-22T17:00:55.582Z</time>
      </trkpt>
      <trkpt lat="45.609621" lon="10.208349">
        <ele>212.836961</ele>
        <time>2021-01-22T17:00:57.435Z</time>
      </trkpt>
      <trkpt lat="45.609536" lon="10.208506">
        <ele>212.649221</ele>
        <time>2021-01-22T17:00:59.294Z</time>
      </trkpt>
      <trkpt lat="45.609428" lon="10.208588">
        <ele>212.483907</ele>
        <time>2021-01-22T17:01:00.820Z</time>
      </trkpt>
      <trkpt lat="45.609351" lon="10.208599">
        <ele>212.379298</ele>
        <time>2021-01-22T17:01:01.763Z</time>
      </trkpt>
      <trkpt lat="45.609194" lon="10.208679">
        <ele>212.153981</ele>
        <time>2021-01-22T17:01:03.994Z</time>
      </trkpt>
      <trkpt lat="45.609141" lon="10.208688">
        <ele>212.081830</ele>
        <time>2021-01-22T17:01:04.670Z</time>
      </trkpt>
      <trkpt lat="45.609083" lon="10.208711">
        <ele>212.000463</ele>
        <time>2021-01-22T17:01:05.435Z</time>
      </trkpt>
      <trkpt lat="45.609000" lon="10.208759">
        <ele>211.879427</ele>
        <time>2021-01-22T17:01:06.563Z</time>
      </trkpt>
      <trkpt lat="45.608858" lon="10.208715">
        <ele>211.683009</ele>
        <time>2021-01-22T17:01:08.502Z</time>
      </trkpt>
      <trkpt lat="45.608842" lon="10.208784">
        <ele>211.614266</ele>
        <time>2021-01-22T17:01:09.151Z</time>
      </trkpt>
      <trkpt lat="45.608821" lon="10.208882">
        <ele>211.543890</ele>
        <time>2021-01-22T17:01:10.072Z</time>
      </trkpt>
      <trkpt lat="45.608747" lon="10.208922">
        <ele>211.487476</ele>
        <time>2021-01-22T17:01:11.136Z</time>
      </trkpt>
      <trkpt lat="45.608417" lon="10.209241">
        <ele>211.203413</ele>
        <time>2021-01-22T17:01:16.270Z</time>
      </trkpt>
      <trkpt lat="45.608367" lon="10.209326">
        <ele>211.148015</ele>
        <time>2021-01-22T17:01:17.286Z</time>
      </trkpt>
      <trkpt lat="45.607918" lon="10.209765">
        <ele>210.760122</ele>
        <time>2021-01-22T17:01:24.013Z</time>
      </trkpt>
      <trkpt lat="45.607833" lon="10.209769">
        <ele>210.699479</ele>
        <time>2021-01-22T17:01:25.140Z</time>
      </trkpt>
      <trkpt lat="45.607497" lon="10.210147">
        <ele>210.394589</ele>
        <time>2021-01-22T17:01:30.666Z</time>
      </trkpt>
      <trkpt lat="45.607492" lon="10.210303">
        <ele>210.316689</ele>
        <time>2021-01-22T17:01:31.996Z</time>
      </trkpt>
      <trkpt lat="45.607239" lon="10.210605">
        <ele>210.127007</ele>
        <time>2021-01-22T17:01:36.232Z</time>
      </trkpt>
      <trkpt lat="45.607171" lon="10.210686">
        <ele>210.077565</ele>
        <time>2021-01-22T17:01:37.318Z</time>
      </trkpt>
      <trkpt lat="45.606713" lon="10.211456">
        <ele>209.682621</ele>
        <time>2021-01-22T17:01:46.645Z</time>
      </trkpt>
      <trkpt lat="45.606350" lon="10.212065">
        <ele>209.369979</ele>
        <time>2021-01-22T17:01:54.129Z</time>
      </trkpt>
      <trkpt lat="45.606080" lon="10.212518">
        <ele>209.106421</ele>
        <time>2021-01-22T17:01:59.802Z</time>
      </trkpt>
      <trkpt lat="45.605813" lon="10.212881">
        <ele>208.857734</ele>
        <time>2021-01-22T17:02:04.822Z</time>
      </trkpt>
      <trkpt lat="45.605705" lon="10.213005">
        <ele>208.764243</ele>
        <time>2021-01-22T17:02:06.730Z</time>
      </trkpt>
      <trkpt lat="45.605675" lon="10.213041">
        <ele>208.737807</ele>
        <time>2021-01-22T17:02:07.246Z</time>
      </trkpt>
      <trkpt lat="45.605661" lon="10.213059">
        <ele>208.725099</ele>
        <time>2021-01-22T17:02:07.500Z</time>
      </trkpt>
      <trkpt lat="45.605447" lon="10.213212">
        <ele>208.563613</ele>
        <time>2021-01-22T17:02:10.661Z</time>
      </trkpt>
      <trkpt lat="45.605392" lon="10.213251">
        <ele>208.522177</ele>
        <time>2021-01-22T17:02:11.477Z</time>
      </trkpt>
      <trkpt lat="45.604770" lon="10.213839">
        <ele>207.964971</ele>
        <time>2021-01-22T17:02:20.667Z</time>
      </trkpt>
      <trkpt lat="45.603633" lon="10.214782">
        <ele>206.184056</ele>
        <time>2021-01-22T17:02:35.887Z</time>
      </trkpt>
      <trkpt lat="45.603621" lon="10.214792">
        <ele>206.165237</ele>
        <time>2021-01-22T17:02:36.006Z</time>
      </trkpt>
      <trkpt lat="45.602421" lon="10.216052">
        <ele>204.395642</ele>
        <time>2021-01-22T17:02:53.564Z</time>
      </trkpt>
      <trkpt lat="45.602233" lon="10.216176">
        <ele>204.161831</ele>
        <time>2021-01-22T17:02:56.333Z</time>
      </trkpt>
      <trkpt lat="45.602188" lon="10.216191">
        <ele>204.109651</ele>
        <time>2021-01-22T17:02:56.842Z</time>
      </trkpt>
      <trkpt lat="45.602170" lon="10.216145">
        <ele>204.068011</ele>
        <time>2021-01-22T17:02:57.303Z</time>
      </trkpt>
      <trkpt lat="45.602067" lon="10.216118">
        <ele>203.949759</ele>
        <time>2021-01-22T17:02:58.685Z</time>
      </trkpt>
      <trkpt lat="45.602039" lon="10.216153">
        <ele>203.907754</ele>
        <time>2021-01-22T17:02:59.147Z</time>
      </trkpt>
      <trkpt lat="45.602027" lon="10.216184">
        <ele>203.879763</ele>
        <time>2021-01-22T17:02:59.521Z</time>
      </trkpt>
      <trkpt lat="45.602034" lon="10.216288">
        <ele>203.797218</ele>
        <time>2021-01-22T17:03:00.454Z</time>
      </trkpt>
      <trkpt lat="45.602050" lon="10.216315">
        <ele>203.769263</ele>
        <time>2021-01-22T17:03:00.826Z</time>
      </trkpt>
      <trkpt lat="45.602021" lon="10.216409">
        <ele>203.688097</ele>
        <time>2021-01-22T17:03:01.646Z</time>
      </trkpt>
      <trkpt lat="45.602005" lon="10.216445">
        <ele>203.654401</ele>
        <time>2021-01-22T17:03:02.009Z</time>
      </trkpt>
      <trkpt lat="45.601978" lon="10.216491">
        <ele>203.606963</ele>
        <time>2021-01-22T17:03:02.575Z</time>
      </trkpt>
      <trkpt lat="45.601919" lon="10.216572">
        <ele>203.525900</ele>
        <time>2021-01-22T17:03:03.603Z</time>
      </trkpt>
      <trkpt lat="45.601689" lon="10.216820">
        <ele>203.241491</ele>
        <time>2021-01-22T17:03:07.155Z</time>
      </trkpt>
      <trkpt lat="45.601193" lon="10.217359">
        <ele>202.626409</ele>
        <time>2021-01-22T17:03:14.631Z</time>
      </trkpt>
      <trkpt lat="45.600684" lon="10.217961">
        <ele>201.974221</ele>
        <time>2021-01-22T17:03:22.868Z</time>
      </trkpt>
      <trkpt lat="45.600180" lon="10.218463">
        <ele>201.272708</ele>
        <time>2021-01-22T17:03:30.349Z</time>
      </trkpt>
      <trkpt lat="45.599333" lon="10.219404">
        <ele>199.995339</ele>
        <time>2021-01-22T17:03:43.010Z</time>
      </trkpt>
      <trkpt lat="45.599020" lon="10.219793">
        <ele>199.544758</ele>
        <time>2021-01-22T17:03:47.890Z</time>
      </trkpt>
      <trkpt lat="45.598963" lon="10.219862">
        <ele>199.476535</ele>
        <time>2021-01-22T17:03:48.789Z</time>
      </trkpt>
      <trkpt lat="45.598805" lon="10.220051">
        <ele>199.288356</ele>
        <time>2021-01-22T17:03:51.288Z</time>
      </trkpt>
      <trkpt lat="45.598533" lon="10.220381">
        <ele>198.962494</ele>
        <time>2021-01-22T17:03:55.638Z</time>
      </trkpt>
      <trkpt lat="45.598126" lon="10.220940">
        <ele>198.446949</ele>
        <time>2021-01-22T17:04:02.776Z</time>
      </trkpt>
      <trkpt lat="45.597865" lon="10.221298">
        <ele>198.116550</ele>
        <time>2021-01-22T17:04:07.447Z</time>
      </trkpt>
      <trkpt lat="45.597602" lon="10.221695">
        <ele>197.907666</ele>
        <time>2021-01-22T17:04:12.306Z</time>
      </trkpt>
      <trkpt lat="45.597461" lon="10.221909">
        <ele>197.814947</ele>
        <time>2021-01-22T17:04:15.003Z</time>
      </trkpt>
      <trkpt lat="45.597166" lon="10.222353">
        <ele>197.621814</ele>
        <time>2021-01-22T17:04:20.746Z</time>
      </trkpt>
      <trkpt lat="45.597070" lon="10.222485">
        <ele>197.561760</ele>
        <time>2021-01-22T17:04:22.681Z</time>
      </trkpt>
      <trkpt lat="45.597001" lon="10.222568">
        <ele>197.521103</ele>
        <time>2021-01-22T17:04:23.937Z</time>
      </trkpt>
      <trkpt lat="45.596926" lon="10.222656">
        <ele>197.477357</ele>
        <time>2021-01-22T17:04:25.285Z</time>
      </trkpt>
      <trkpt lat="45.595854" lon="10.223677">
        <ele>196.712969</ele>
        <time>2021-01-22T17:04:43.000Z</time>
      </trkpt>
      <trkpt lat="45.595207" lon="10.224228">
        <ele>196.188499</ele>
        <time>2021-01-22T17:04:52.165Z</time>
      </trkpt>
      <trkpt lat="45.594013" lon="10.224606">
        <ele>195.379634</ele>
        <time>2021-01-22T17:05:07.483Z</time>
      </trkpt>
      <trkpt lat="45.593512" lon="10.224876">
        <ele>195.031509</ele>
        <time>2021-01-22T17:05:14.542Z</time>
      </trkpt>
      <trkpt lat="45.593426" lon="10.224918">
        <ele>194.972420</ele>
        <time>2021-01-22T17:05:15.839Z</time>
      </trkpt>
      <trkpt lat="45.593332" lon="10.225049">
        <ele>194.887055</ele>
        <time>2021-01-22T17:05:17.558Z</time>
      </trkpt>
      <trkpt lat="45.593268" lon="10.225107">
        <ele>194.837783</ele>
        <time>2021-01-22T17:05:18.657Z</time>
      </trkpt>
      <trkpt lat="45.593220" lon="10.225106">
        <ele>194.808592</ele>
        <time>2021-01-22T17:05:19.264Z</time>
      </trkpt>
      <trkpt lat="45.593051" lon="10.225218">
        <ele>194.733915</ele>
        <time>2021-01-22T17:05:21.757Z</time>
      </trkpt>
      <trkpt lat="45.593021" lon="10.225271">
        <ele>194.714793</ele>
        <time>2021-01-22T17:05:22.386Z</time>
      </trkpt>
      <trkpt lat="45.592924" lon="10.225342">
        <ele>194.671105</ele>
        <time>2021-01-22T17:05:23.892Z</time>
      </trkpt>
      <trkpt lat="45.592689" lon="10.225422">
        <ele>194.574266</ele>
        <time>2021-01-22T17:05:27.112Z</time>
      </trkpt>
      <trkpt lat="45.592578" lon="10.225428">
        <ele>194.529738</ele>
        <time>2021-01-22T17:05:28.687Z</time>
      </trkpt>
      <trkpt lat="45.592533" lon="10.225430">
        <ele>194.511690</ele>
        <time>2021-01-22T17:05:29.260Z</time>
      </trkpt>
      <trkpt lat="45.591822" lon="10.225410">
        <ele>194.226618</ele>
        <time>2021-01-22T17:05:39.522Z</time>
      </trkpt>
      <trkpt lat="45.591443" lon="10.225389">
        <ele>194.038488</ele>
        <time>2021-01-22T17:05:44.522Z</time>
      </trkpt>
      <trkpt lat="45.591332" lon="10.225382">
        <ele>193.895020</ele>
        <time>2021-01-22T17:05:45.901Z</time>
      </trkpt>
      <trkpt lat="45.590996" lon="10.225218">
        <ele>193.436551</ele>
        <time>2021-01-22T17:05:50.195Z</time>
      </trkpt>
      <trkpt lat="45.590926" lon="10.225192">
        <ele>193.343160</ele>
        <time>2021-01-22T17:05:51.085Z</time>
      </trkpt>
      <trkpt lat="45.590809" lon="10.225164">
        <ele>193.189981</ele>
        <time>2021-01-22T17:05:52.500Z</time>
      </trkpt>
      <trkpt lat="45.590186" lon="10.225099">
        <ele>192.383391</ele>
        <time>2021-01-22T17:05:59.706Z</time>
      </trkpt>
      <trkpt lat="45.589745" lon="10.225058">
        <ele>191.812747</ele>
        <time>2021-01-22T17:06:04.753Z</time>
      </trkpt>
      <trkpt lat="45.589591" lon="10.225040">
        <ele>191.576484</ele>
        <time>2021-01-22T17:06:06.442Z</time>
      </trkpt>
      <trkpt lat="45.589368" lon="10.224994">
        <ele>191.216622</ele>
        <time>2021-01-22T17:06:08.947Z</time>
      </trkpt>
      <trkpt lat="45.588794" lon="10.224925">
        <ele>190.296603</ele>
        <time>2021-01-22T17:06:15.310Z</time>
      </trkpt>
      <trkpt lat="45.588286" lon="10.224818">
        <ele>189.476470</ele>
        <time>2021-01-22T17:06:21.150Z</time>
      </trkpt>
      <trkpt lat="45.588075" lon="10.224777">
        <ele>189.136364</ele>
        <time>2021-01-22T17:06:23.622Z</time>
      </trkpt>
      <trkpt lat="45.588008" lon="10.224760">
        <ele>189.027679</ele>
        <time>2021-01-22T17:06:24.467Z</time>
      </trkpt>
      <trkpt lat="45.587928" lon="10.224746">
        <ele>188.898950</ele>
        <time>2021-01-22T17:06:25.457Z</time>
      </trkpt>
      <trkpt lat="45.587830" lon="10.224728">
        <ele>188.799396</ele>
        <time>2021-01-22T17:06:26.638Z</time>
      </trkpt>
      <trkpt lat="45.587488" lon="10.224720">
        <ele>188.459171</ele>
        <time>2021-01-22T17:06:30.839Z</time>
      </trkpt>
      <trkpt lat="45.587353" lon="10.224729">
        <ele>188.324743</ele>
        <time>2021-01-22T17:06:32.509Z</time>
      </trkpt>
      <trkpt lat="45.586711" lon="10.224846">
        <ele>187.680987</ele>
        <time>2021-01-22T17:06:40.628Z</time>
      </trkpt>
      <trkpt lat="45.585864" lon="10.225031">
        <ele>186.703257</ele>
        <time>2021-01-22T17:06:51.230Z</time>
      </trkpt>
      <trkpt lat="45.585255" lon="10.225743">
        <ele>185.567106</ele>
        <time>2021-01-22T17:07:00.364Z</time>
      </trkpt>
      <trkpt lat="45.584650" lon="10.225968">
        <ele>184.664457</ele>
        <time>2021-01-22T17:07:07.347Z</time>
      </trkpt>
      <trkpt lat="45.584107" lon="10.226385">
        <ele>183.771182</ele>
        <time>2021-01-22T17:07:14.311Z</time>
      </trkpt>
      <trkpt lat="45.583887" lon="10.226555">
        <ele>183.408487</ele>
        <time>2021-01-22T17:07:17.175Z</time>
      </trkpt>
      <trkpt lat="45.583481" lon="10.227014">
        <ele>182.657729</ele>
        <time>2021-01-22T17:07:23.084Z</time>
      </trkpt>
      <trkpt lat="45.582998" lon="10.227584">
        <ele>181.829673</ele>
        <time>2021-01-22T17:07:30.601Z</time>
      </trkpt>
      <trkpt lat="45.582833" lon="10.227707">
        <ele>181.702584</ele>
        <time>2021-01-22T17:07:32.878Z</time>
      </trkpt>
      <trkpt lat="45.582184" lon="10.228396">
        <ele>181.150442</ele>
        <time>2021-01-22T17:07:43.564Z</time>
      </trkpt>
      <trkpt lat="45.582029" lon="10.228543">
        <ele>181.023400</ele>
        <time>2021-01-22T17:07:45.945Z</time>
      </trkpt>
      <trkpt lat="45.581739" lon="10.228804">
        <ele>180.789349</ele>
        <time>2021-01-22T17:07:50.422Z</time>
      </trkpt>
      <trkpt lat="45.581547" lon="10.228934">
        <ele>180.672938</ele>
        <time>2021-01-22T17:07:53.143Z</time>
      </trkpt>
      <trkpt lat="45.581173" lon="10.229049">
        <ele>180.672938</ele>
        <time>2021-01-22T17:07:58.130Z</time>
      </trkpt>
      <trkpt lat="45.581056" lon="10.229041">
        <ele>180.672938</ele>
        <time>2021-01-22T17:07:59.671Z</time>
      </trkpt>
      <trkpt lat="45.581019" lon="10.228974">
        <ele>180.672938</ele>
        <time>2021-01-22T17:08:00.443Z</time>
      </trkpt>
      <trkpt lat="45.580974" lon="10.228934">
        <ele>180.672938</ele>
        <time>2021-01-22T17:08:01.142Z</time>
      </trkpt>
      <trkpt lat="45.580937" lon="10.228918">
        <ele>180.672938</ele>
        <time>2021-01-22T17:08:01.682Z</time>
      </trkpt>
      <trkpt lat="45.580879" lon="10.228919">
        <ele>180.672938</ele>
        <time>2021-01-22T17:08:02.555Z</time>
      </trkpt>
      <trkpt lat="45.580821" lon="10.228951">
        <ele>180.672938</ele>
        <time>2021-01-22T17:08:03.341Z</time>
      </trkpt>
      <trkpt lat="45.580773" lon="10.229016">
        <ele>180.672938</ele>
        <time>2021-01-22T17:08:04.216Z</time>
      </trkpt>
      <trkpt lat="45.580748" lon="10.229091">
        <ele>180.672938</ele>
        <time>2021-01-22T17:08:05.002Z</time>
      </trkpt>
      <trkpt lat="45.580680" lon="10.229177">
        <ele>180.672938</ele>
        <time>2021-01-22T17:08:06.220Z</time>
      </trkpt>
      <trkpt lat="45.580331" lon="10.229425">
        <ele>180.672938</ele>
        <time>2021-01-22T17:08:11.769Z</time>
      </trkpt>
      <trkpt lat="45.580229" lon="10.229433">
        <ele>180.672938</ele>
        <time>2021-01-22T17:08:13.176Z</time>
      </trkpt>
      <trkpt lat="45.580196" lon="10.229409">
        <ele>180.672938</ele>
        <time>2021-01-22T17:08:13.708Z</time>
      </trkpt>
      <trkpt lat="45.580180" lon="10.229367">
        <ele>180.672938</ele>
        <time>2021-01-22T17:08:14.171Z</time>
      </trkpt>
      <trkpt lat="45.580176" lon="10.229285">
        <ele>180.672938</ele>
        <time>2021-01-22T17:08:14.998Z</time>
      </trkpt>
      <trkpt lat="45.580190" lon="10.229191">
        <ele>180.672938</ele>
        <time>2021-01-22T17:08:15.824Z</time>
      </trkpt>
      <trkpt lat="45.580136" lon="10.229266">
        <ele>180.672938</ele>
        <time>2021-01-22T17:08:16.832Z</time>
      </trkpt>
    </trkseg>
  </trk>
</gpx>